[[{"header":{"parameterUnit":"m.s-1","parameterCategory":1,"la1":30.6,"la2":28.766,"lo1":-90.7593,"lo2":-88.6598,"dy":0.0162,"dx":0.0183,"nx":116,"ny":114,"refTime":"2023-08-15T06:00:00:Z","depth":0,"parameterNumber":2,"parameterNumberName":"U-component_of_WINDS"},"data":[0.0,0.0,0.0,0.0,0.0,0.0,0.0,0.0,0.0,0.0,0.0,0.0,0.0,0.0,0.0,0.0,0.0,0.0,0.0,0.0,0.0,0.0,0.0,0.0,0.0,0.0,0.0,0.0,0.0,0.0,0.0,0.0,0.0,0.0,0.0,0.0,0.0,0.0,0.0,0.0,0.0,0.0,0.0,0.0,0.0,0.0,0.0,0.0,0.0,0.0,0.0,0.0,0.0,0.0,0.0,0.0,0.0,0.0,0.0,0.0,0.0,0.0,0.0,0.0,0.0,0.0,0.0,0.0,0.0,0.0,0.0,0.0,0.0,0.0,0.0,0.0,0.0,0.0,0.0,0.0,0.0,0.0,0.0,0.0,0.0,0.0,0.0,0.0,0.0,0.0,0.0,0.0,0.0,0.0,0.0,0.0,0.0,0.0,0.0,0.0,0.0,0.0,0.0,0.0,0.0,0.0,0.0,0.0,0.0,0.0,0.0,0.0,0.0,0.0,0.0,0.0,0.0,0.0,0.0,0.0,0.0,0.0,0.0,0.0,0.0,0.0,0.0,0.0,0.0,0.0,0.0,0.0,0.0,0.0,0.0,0.0,0.0,0.0,0.0,0.0,0.0,0.0,0.0,0.0,0.0,0.0,0.0,0.0,0.0,0.0,0.0,0.0,0.0,0.0,0.0,0.0,0.0,0.0,0.0,0.0,0.0,0.0,0.0,0.0,0.0,0.0,0.0,0.0,0.0,0.0,0.0,0.0,0.0,0.0,0.0,0.0,0.0,0.0,0.0,0.0,0.0,0.0,0.0,0.0,0.0,0.0,0.0,0.0,0.0,0.0,0.0,0.0,0.0,0.0,0.0,0.0,0.0,0.0,0.0,0.0,0.0,0.0,0.0,0.0,0.0,0.0,0.0,0.0,0.0,0.0,0.0,0.0,0.0,0.0,0.0,0.0,0.0,0.0,0.0,0.0,0.0,0.0,0.0,0.0,0.0,0.0,0.0,0.0,0.0,0.0,0.0,0.0,0.0,0.0,0.0,0.0,0.0,0.0,0.0,0.0,0.0,0.0,0.0,0.0,0.0,0.0,0.0,0.0,0.0,0.0,0.0,0.0,0.0,0.0,0.0,0.0,0.0,0.0,0.0,0.0,0.0,0.0,0.0,0.0,0.0,0.0,0.0,0.0,0.0,0.0,0.0,0.0,0.0,0.0,0.0,0.0,0.0,0.0,0.0,0.0,0.0,0.0,0.0,0.0,0.0,0.0,0.0,0.0,0.0,0.0,0.0,0.0,0.0,0.0,0.0,0.0,0.0,0.0,0.0,0.0,0.0,0.0,0.0,0.0,0.0,0.0,0.0,0.0,0.0,0.0,0.0,0.0,0.0,0.0,0.0,0.0,0.0,0.0,0.0,0.0,0.0,0.0,0.0,0.0,0.0,0.0,0.0,0.0,0.0,0.0,0.0,0.0,0.0,0.0,0.0,0.0,0.0,0.0,0.0,0.0,0.0,0.0,0.0,0.0,0.0,0.0,0.0,0.0,0.0,0.0,0.0,0.0,0.0,0.0,0.0,0.0,0.0,0.0,0.0,0.0,0.0,0.0,0.0,0.0,0.0,0.0,0.0,0.0,0.0,0.0,0.0,0.0,0.0,0.0,0.0,0.0,0.0,0.0,0.0,0.0,0.0,0.0,0.0,0.0,0.0,0.0,0.0,0.0,0.0,0.0,0.0,0.0,0.0,0.0,0.0,0.0,0.0,0.0,0.0,0.0,0.0,0.0,0.0,0.0,0.0,0.0,0.0,0.0,0.0,0.0,0.0,0.0,0.0,0.0,0.0,0.0,0.0,0.0,0.0,0.0,0.0,0.0,0.0,0.0,0.0,0.0,0.0,0.0,0.0,0.0,0.0,0.0,0.0,0.0,0.0,0.0,0.0,0.0,0.0,0.0,0.0,0.0,0.0,0.0,0.0,0.0,0.0,0.0,0.0,0.0,0.0,0.0,0.0,0.0,0.0,0.0,0.0,0.0,0.0,0.0,0.0,0.0,0.0,0.0,0.0,0.0,0.0,0.0,0.0,0.0,0.0,0.0,0.0,0.0,0.0,0.0,0.0,0.0,0.0,0.0,0.0,0.0,0.0,0.0,0.0,0.0,0.0,0.0,0.0,0.0,0.0,0.0,0.0,0.0,0.0,0.0,0.0,0.0,0.0,0.0,0.0,0.0,0.0,0.0,0.0,0.0,0.0,0.0,0.0,0.0,0.0,0.0,0.0,0.0,0.0,0.0,0.0,0.0,0.0,0.0,0.0,0.0,0.0,0.0,0.0,0.0,0.0,0.0,0.0,0.0,0.0,0.0,0.0,0.0,0.0,0.0,0.0,0.0,0.0,0.0,0.0,0.0,0.0,0.0,0.0,0.0,0.0,0.0,0.0,0.0,0.0,0.0,0.0,0.0,0.0,0.0,0.0,0.0,0.0,0.0,0.0,0.0,0.0,0.0,0.0,0.0,0.0,0.0,0.0,0.0,0.0,0.0,0.0,0.0,0.0,0.0,0.0,0.0,0.0,0.0,0.0,0.0,0.0,0.0,0.0,0.0,0.0,0.0,0.0,0.0,0.0,0.0,0.0,0.0,0.0,0.0,0.0,0.0,0.0,0.0,0.0,0.0,0.0,0.0,0.0,0.0,0.0,0.0,0.0,0.0,0.0,0.0,0.0,0.0,0.0,0.0,0.0,0.0,0.0,0.0,0.0,0.0,0.0,0.0,0.0,0.0,0.0,0.0,0.0,0.0,0.0,0.0,0.0,0.0,0.0,0.0,0.0,0.0,0.0,0.0,0.0,0.0,0.0,0.0,0.0,0.0,0.0,0.0,0.0,0.0,0.0,0.0,0.0,0.0,0.0,0.0,0.0,0.0,0.0,0.0,0.0,0.0,0.0,0.0,0.0,0.0,0.0,0.0,0.0,0.0,0.0,0.0,0.0,0.0,0.0,0.0,0.0,0.0,0.0,0.0,0.0,0.0,0.0,0.0,0.0,0.0,0.0,0.0,0.0,0.0,0.0,0.0,0.0,0.0,0.0,0.0,0.0,0.0,0.0,0.0,0.0,0.0,0.0,0.0,0.0,0.0,0.0,0.0,0.0,0.0,0.0,0.0,0.0,0.0,0.0,0.0,0.0,0.0,0.0,0.0,0.0,0.0,0.0,0.0,0.0,0.0,0.0,0.0,0.0,0.0,0.0,0.0,0.0,0.0,0.0,0.0,0.0,0.0,0.0,0.0,0.0,0.0,0.0,0.0,0.0,0.0,0.0,0.0,0.0,0.0,0.0,0.0,0.0,0.0,0.0,0.0,0.0,0.0,0.0,0.0,0.0,0.0,0.0,0.0,0.0,0.0,0.0,0.0,0.0,0.0,0.0,0.0,0.0,0.0,0.0,0.0,0.0,0.0,0.0,0.0,0.0,0.0,0.0,0.0,0.0,0.0,0.0,0.0,0.0,0.0,0.0,0.0,0.0,0.0,0.0,0.0,0.0,0.0,0.0,0.0,0.0,0.0,0.0,0.0,0.0,0.0,0.0,0.0,0.0,0.0,0.0,0.0,0.0,0.0,0.0,0.0,0.0,0.0,0.0,0.0,0.0,0.0,0.0,0.0,0.0,0.0,0.0,0.0,0.0,0.0,0.0,0.0,0.0,0.0,0.0,0.0,0.0,0.0,0.0,0.0,0.0,0.0,0.0,0.0,0.0,0.0,0.0,0.0,0.0,0.0,0.0,0.0,0.0,0.0,0.0,0.0,0.0,0.0,0.0,0.0,0.0,0.0,0.0,0.0,0.0,0.0,0.0,0.0,0.0,0.0,0.0,0.0,0.0,0.0,0.0,0.0,0.0,0.0,0.0,0.0,0.0,0.0,0.0,0.0,0.0,0.0,0.0,0.0,0.0,0.0,0.0,0.0,0.0,0.0,0.0,0.0,0.0,0.0,0.0,0.0,0.0,0.0,0.0,0.0,0.0,0.0,0.0,0.0,0.0,0.0,0.0,0.0,0.0,0.0,0.0,0.0,0.0,0.0,0.0,0.0,0.0,0.0,0.0,0.0,0.0,0.0,0.0,0.0,0.0,0.0,0.0,0.0,0.0,0.0,0.0,0.0,0.0,0.0,0.0,0.0,0.0,0.0,0.0,0.0,0.0,0.0,0.0,0.0,0.0,0.0,0.0,0.0,0.0,0.0,0.0,0.0,0.0,0.0,0.0,0.0,0.0,0.0,0.0,0.0,0.0,0.0,0.0,0.0,0.0,0.0,0.0,0.0,0.0,0.0,0.0,0.0,0.0,0.0,0.0,0.0,0.0,0.0,0.0,0.0,0.0,0.0,0.0,0.0,0.0,0.0,0.0,0.0,0.0,0.0,0.0,0.0,0.0,0.0,0.0,0.0,0.0,0.0,0.0,0.0,0.0,0.0,0.0,0.0,0.0,0.0,0.0,0.0,0.0,0.0,0.0,0.0,0.0,0.0,0.0,0.0,0.0,0.0,0.0,0.0,0.0,0.0,0.0,0.0,0.0,0.0,0.0,0.0,0.0,0.0,0.0,0.0,0.0,0.0,0.0,0.0,0.0,0.0,0.0,0.0,0.0,0.0,0.0,0.0,0.0,0.0,0.0,0.0,0.0,0.0,0.0,0.0,0.0,0.0,0.0,0.0,0.0,0.0,0.0,0.0,0.0,0.0,0.0,0.0,0.0,0.0,0.0,0.0,0.0,0.0,0.0,0.0,0.0,0.0,0.0,0.0,0.0,0.0,0.0,0.0,0.0,0.0,0.0,0.0,0.0,0.0,0.0,0.0,0.0,0.0,0.0,0.0,0.0,0.0,0.0,0.0,0.0,0.0,0.0,0.0,0.0,0.0,0.0,0.0,0.0,0.0,0.0,0.0,0.0,0.0,0.0,0.0,0.0,0.0,0.0,0.0,0.0,0.0,0.0,0.0,0.0,0.0,0.0,0.0,0.0,0.0,0.0,0.0,0.0,0.0,0.0,0.0,0.0,0.0,0.0,0.0,0.0,0.0,0.0,0.0,0.0,0.0,0.0,0.0,0.0,0.0,0.0,0.0,0.0,0.0,0.0,0.0,0.0,0.0,0.0,0.0,0.0,0.0,0.0,0.0,0.0,0.0,0.0,0.0,0.0,0.0,0.0,0.0,0.0,0.0,0.0,0.0,0.0,0.0,0.0,0.0,0.0,0.0,0.0,0.0,0.0,0.0,0.0,0.0,0.0,0.0,0.0,0.0,0.0,0.0,0.0,0.0,0.0,0.0,0.0,0.0,0.0,0.0,0.0,0.0,0.0,0.0,0.0,0.0,0.0,0.0,0.0,0.0,0.0,0.0,0.0,0.0,0.0,0.0,0.0,0.0,0.0,0.0,0.0,0.0,0.0,0.0,0.0,0.0,0.0,0.0,0.0,0.0,0.0,0.0,0.0,0.0,0.0,0.0,0.0,0.0,0.0,0.0,0.0,0.0,0.0,0.0,0.0,0.0,0.0,0.0,0.0,0.0,0.0,0.0,0.0,0.0,0.0,0.0,0.0,0.0,0.0,0.0,0.0,0.0,0.0,0.0,0.0,0.0,0.0,0.0,0.0,0.0,0.0,0.0,0.0,0.0,0.0,0.0,0.0,0.0,0.0,0.0,0.0,0.0,0.0,0.0,0.0,0.0,0.0,0.0,0.0,0.0,0.0,0.0,0.0,0.0,0.0,0.0,0.0,0.0,0.0,0.0,0.0,0.0,0.0,0.0,0.0,0.0,0.0,0.0,0.0,0.0,0.0,0.0,0.0,0.0,0.0,0.0,0.0,0.0,0.0,0.0,0.0,0.0,0.0,0.0,0.0,0.0,0.0,0.0,0.0,0.0,0.0,0.0,0.0,0.0,0.0,0.0,0.0,0.0,0.0,0.0,0.0,0.0,0.0,0.0,0.0,0.0,0.0,0.0,0.0,0.0,0.0,0.0,0.0,0.0,0.0,0.0,0.0,0.0,0.0,0.0,0.0,0.0,0.0,0.0,0.0,0.0,0.0,0.0,0.0,0.0,0.0,0.0,0.0,0.0,0.0,0.0,0.0,0.0,-2.3281,0.0,0.0,0.0,0.0,0.0,0.0,0.0,0.0,0.0,0.0,0.0,0.0,0.0,0.0,0.0,0.0,0.0,0.0,0.0,0.0,0.0,0.0,0.0,0.0,0.0,0.0,0.0,0.0,0.0,0.0,0.0,0.0,0.0,0.0,0.0,0.0,0.0,0.0,0.0,0.0,0.0,0.0,0.0,0.0,0.0,0.0,0.0,0.0,0.0,0.0,0.0,0.0,0.0,0.0,0.0,0.0,0.0,0.0,0.0,0.0,0.0,0.0,0.0,0.0,0.0,0.0,0.0,0.0,0.0,0.0,0.0,0.0,0.0,0.0,0.0,0.0,0.0,0.0,0.0,0.0,0.0,0.0,0.0,0.0,0.0,0.0,0.0,0.0,0.0,0.0,0.0,0.0,0.0,0.0,0.0,0.0,0.0,0.0,0.0,0.0,0.0,0.0,0.0,0.0,0.0,0.0,0.0,0.0,0.0,0.0,0.0,0.0,0.0,0.0,0.0,0.0,-2.4014,0.0,0.0,0.0,0.0,0.0,0.0,0.0,0.0,0.0,0.0,0.0,0.0,0.0,0.0,0.0,0.0,0.0,0.0,0.0,0.0,0.0,0.0,0.0,0.0,0.0,0.0,0.0,0.0,0.0,0.0,0.0,0.0,0.0,0.0,0.0,0.0,0.0,0.0,0.0,0.0,0.0,0.0,0.0,0.0,0.0,0.0,0.0,0.0,0.0,0.0,0.0,0.0,0.0,0.0,0.0,0.0,0.0,0.0,0.0,0.0,0.0,0.0,0.0,0.0,0.0,0.0,0.0,0.0,0.0,0.0,0.0,0.0,0.0,0.0,0.0,0.0,0.0,0.0,0.0,0.0,0.0,0.0,0.0,0.0,0.0,0.0,0.0,0.0,0.0,0.0,0.0,0.0,0.0,0.0,0.0,0.0,0.0,0.0,0.0,0.0,0.0,0.0,0.0,0.0,0.0,0.0,0.0,0.0,-2.4823,-2.4942,-2.4808,-2.4855,-2.4998,-2.5235,-2.5401,-2.5488,-2.5488,-2.5492,0.0,0.0,0.0,0.0,0.0,0.0,0.0,0.0,0.0,0.0,0.0,0.0,0.0,0.0,0.0,0.0,0.0,0.0,0.0,0.0,0.0,0.0,0.0,0.0,0.0,0.0,0.0,0.0,0.0,0.0,0.0,0.0,0.0,0.0,0.0,0.0,0.0,0.0,0.0,0.0,-1.9603,-1.9281,0.0,0.0,0.0,0.0,0.0,0.0,0.0,0.0,0.0,0.0,0.0,0.0,0.0,0.0,0.0,0.0,0.0,0.0,0.0,0.0,0.0,0.0,0.0,0.0,0.0,0.0,0.0,0.0,0.0,0.0,0.0,0.0,0.0,0.0,0.0,0.0,0.0,0.0,0.0,0.0,0.0,0.0,0.0,0.0,-2.1622,-2.1482,0.0,0.0,0.0,0.0,0.0,0.0,0.0,0.0,0.0,0.0,0.0,0.0,0.0,-2.3613,-2.3767,-2.419,-2.4396,-2.4414,-2.4872,-2.5126,-2.5228,-2.5179,-2.5224,-2.5378,-2.5393,0.0,-2.5429,-2.5484,0.0,0.0,0.0,0.0,0.0,0.0,0.0,0.0,0.0,0.0,0.0,0.0,0.0,0.0,0.0,0.0,0.0,0.0,0.0,0.0,0.0,0.0,0.0,0.0,0.0,0.0,0.0,0.0,0.0,0.0,0.0,0.0,0.0,0.0,0.0,0.0,0.0,0.0,0.0,0.0,0.0,0.0,0.0,0.0,0.0,0.0,0.0,0.0,0.0,0.0,0.0,0.0,0.0,0.0,0.0,0.0,0.0,0.0,0.0,0.0,0.0,0.0,0.0,0.0,0.0,0.0,0.0,0.0,0.0,0.0,0.0,0.0,0.0,0.0,0.0,0.0,0.0,0.0,0.0,0.0,0.0,0.0,0.0,0.0,0.0,-2.1669,-2.1883,-2.1935,-2.2268,-2.2415,0.0,0.0,0.0,0.0,0.0,0.0,0.0,0.0,0.0,-2.3581,-2.4111,-2.4582,-2.4985,-2.5677,-2.6019,-2.6032,-2.6308,-2.6473,-2.6549,-2.6548,-2.6619,-2.6745,-2.6746,-2.6776,-2.6728,-2.5854,-2.5456,-2.5404,0.0,0.0,0.0,0.0,-2.5517,-2.5583,0.0,0.0,0.0,0.0,0.0,0.0,0.0,0.0,0.0,0.0,0.0,0.0,0.0,0.0,0.0,0.0,0.0,0.0,0.0,0.0,0.0,0.0,0.0,0.0,0.0,0.0,0.0,0.0,0.0,0.0,0.0,0.0,0.0,0.0,0.0,0.0,0.0,0.0,0.0,0.0,0.0,0.0,0.0,0.0,0.0,0.0,0.0,0.0,0.0,0.0,0.0,0.0,0.0,0.0,0.0,0.0,0.0,0.0,0.0,0.0,0.0,0.0,0.0,0.0,0.0,0.0,0.0,0.0,0.0,0.0,0.0,0.0,0.0,0.0,0.0,0.0,0.0,-2.2051,-2.2051,-2.2118,-2.2385,-2.2426,0.0,0.0,0.0,0.0,0.0,0.0,-2.3397,-2.345,-2.3746,-2.4238,-2.4936,-2.5546,-2.6139,-2.6812,-2.7182,-2.7245,-2.7358,-2.7437,-2.75,-2.7518,-2.7631,-2.78,-2.7804,-2.7849,-2.7816,-2.6601,-2.6086,-2.6078,-2.6105,-2.6086,-2.6072,-2.6126,-2.6186,-2.6228,0.0,0.0,0.0,0.0,0.0,0.0,0.0,0.0,0.0,0.0,0.0,0.0,0.0,0.0,0.0,0.0,0.0,0.0,0.0,0.0,0.0,0.0,0.0,0.0,0.0,0.0,0.0,0.0,0.0,0.0,0.0,0.0,0.0,0.0,0.0,0.0,0.0,0.0,0.0,0.0,0.0,0.0,0.0,0.0,0.0,0.0,0.0,0.0,0.0,0.0,0.0,0.0,0.0,0.0,0.0,0.0,0.0,0.0,0.0,0.0,0.0,0.0,0.0,0.0,0.0,0.0,0.0,0.0,0.0,0.0,0.0,0.0,0.0,0.0,0.0,0.0,0.0,0.0,0.0,-2.1972,-2.2141,0.0,0.0,0.0,0.0,-2.3321,-2.3687,-2.4267,-2.52,-2.5314,-2.5582,-2.6055,-2.6059,-2.6213,-2.6573,-2.6688,-2.686,-2.7117,-2.7169,-2.7318,-2.75,-2.7433,-2.7565,-2.78,-2.78,-2.7838,-2.7893,-2.7817,-2.7808,-2.7855,-2.7788,-2.7816,-2.7876,-2.7859,-2.7927,-2.7968,0.0,0.0,0.0,0.0,0.0,0.0,0.0,0.0,0.0,0.0,0.0,0.0,0.0,0.0,0.0,0.0,0.0,0.0,0.0,0.0,0.0,0.0,0.0,0.0,0.0,0.0,0.0,0.0,0.0,0.0,0.0,0.0,0.0,0.0,0.0,0.0,0.0,0.0,0.0,0.0,0.0,0.0,0.0,0.0,0.0,0.0,0.0,0.0,0.0,0.0,0.0,0.0,0.0,0.0,0.0,0.0,0.0,0.0,0.0,0.0,0.0,0.0,0.0,0.0,0.0,0.0,0.0,0.0,0.0,0.0,0.0,0.0,0.0,0.0,0.0,0.0,0.0,0.0,0.0,-2.2186,-2.2846,0.0,-2.3124,-2.3738,-2.4133,-2.4237,-2.4557,-2.4885,-2.5192,-2.5282,-2.5526,-2.6067,-2.6615,-2.7181,-2.7698,-2.8238,-2.8595,-2.8764,-2.88,-2.8871,-2.8988,-2.8998,-2.911,-2.9279,-2.932,-2.941,-2.9517,-2.9509,-2.8907,-2.7997,-2.7959,-2.8004,-2.8051,-2.8067,-2.8083,-2.8094,0.0,0.0,0.0,0.0,0.0,0.0,0.0,0.0,0.0,0.0,0.0,0.0,0.0,0.0,0.0,0.0,0.0,0.0,0.0,0.0,0.0,0.0,0.0,0.0,0.0,0.0,0.0,0.0,0.0,0.0,0.0,0.0,0.0,0.0,0.0,0.0,0.0,0.0,0.0,0.0,0.0,0.0,-1.9574,0.0,0.0,0.0,0.0,0.0,0.0,0.0,0.0,0.0,0.0,0.0,0.0,0.0,0.0,0.0,0.0,0.0,0.0,0.0,0.0,0.0,0.0,0.0,0.0,0.0,0.0,0.0,0.0,0.0,0.0,0.0,0.0,0.0,0.0,0.0,-2.2771,-2.2507,-2.3431,-2.4053,-2.392,-2.4615,-2.5057,-2.5033,-2.5432,-2.5771,-2.5865,-2.5953,-2.6174,-2.6558,-2.7171,-2.7786,-2.8329,-2.891,-2.9314,-2.9569,-2.9626,-2.9719,-2.9808,-2.9874,-2.9972,-3.0102,-3.0176,-3.0286,-3.0398,-3.0398,-2.9803,-2.8885,-2.8874,-2.8916,-2.8981,-2.8987,-2.8984,-2.9018,0.0,0.0,0.0,0.0,0.0,0.0,0.0,0.0,0.0,0.0,0.0,0.0,0.0,0.0,0.0,0.0,0.0,0.0,0.0,0.0,0.0,0.0,0.0,0.0,0.0,0.0,0.0,0.0,0.0,0.0,0.0,0.0,0.0,0.0,0.0,0.0,0.0,0.0,0.0,0.0,0.0,0.0,-1.9574,0.0,0.0,0.0,0.0,0.0,0.0,0.0,0.0,0.0,0.0,0.0,0.0,0.0,0.0,0.0,0.0,0.0,0.0,0.0,0.0,0.0,0.0,0.0,0.0,0.0,0.0,0.0,0.0,0.0,0.0,0.0,0.0,0.0,-2.1963,-2.2538,-2.3031,-2.2876,-2.3869,-2.4447,-2.4193,-2.4842,-2.5391,-2.5734,-2.6365,-2.69,-2.7369,-2.7526,-2.763,-2.7683,-2.7713,-2.7943,-2.8396,-2.8565,-2.886,-2.9314,-2.9511,-2.9664,-2.9808,-2.9874,-2.9972,-3.0102,-3.0176,-3.0266,-3.0398,-3.0398,-3.0477,-3.0598,-3.0598,-3.0645,-3.0703,-3.0703,-3.0749,-3.0797,0.0,0.0,0.0,0.0,0.0,0.0,0.0,0.0,0.0,0.0,0.0,0.0,0.0,0.0,0.0,0.0,0.0,0.0,0.0,0.0,0.0,0.0,0.0,0.0,0.0,0.0,0.0,0.0,0.0,0.0,0.0,0.0,0.0,0.0,0.0,0.0,0.0,0.0,0.0,0.0,0.0,0.0,-1.9654,0.0,0.0,0.0,0.0,0.0,0.0,0.0,0.0,0.0,0.0,0.0,0.0,0.0,0.0,0.0,0.0,0.0,0.0,0.0,0.0,0.0,0.0,0.0,0.0,0.0,0.0,0.0,0.0,0.0,0.0,0.0,0.0,-2.4022,-2.3684,-2.4245,-2.4615,-2.4435,-2.5064,-2.5586,-2.5819,-2.6189,-2.6539,-2.6837,-2.6947,-2.7037,-2.7181,-2.7386,-2.763,-2.784,-2.7954,-2.821,-2.8688,-2.886,-2.9104,-2.9373,-2.9588,-2.9683,-2.9738,-2.9841,-2.9924,-2.9956,-3.0128,-3.0253,-3.0336,-3.0336,-3.0414,-3.053,-3.0588,-3.0645,-3.0703,-3.0703,-3.0749,-3.0798,0.0,0.0,0.0,0.0,0.0,0.0,0.0,0.0,0.0,0.0,0.0,0.0,0.0,0.0,0.0,0.0,0.0,0.0,0.0,0.0,0.0,0.0,0.0,0.0,0.0,0.0,0.0,0.0,0.0,0.0,0.0,0.0,0.0,0.0,0.0,0.0,0.0,0.0,0.0,0.0,0.0,0.0,-1.969,-1.9487,-1.9501,-1.9574,-1.9465,-1.9501,-1.9611,-1.9705,0.0,0.0,0.0,0.0,0.0,0.0,0.0,0.0,0.0,0.0,0.0,0.0,0.0,0.0,0.0,0.0,0.0,0.0,0.0,0.0,0.0,0.0,0.0,0.0,-2.5057,-2.5251,-2.5624,-2.5614,-2.5611,-2.5656,-2.6224,-2.668,-2.6889,-2.717,-2.7338,-2.7382,-2.7338,-2.7293,-2.7261,-2.7448,-2.7659,-2.7933,-2.8,-2.8281,-2.8737,-2.8883,-2.9126,-2.9412,-2.9588,-2.9683,-2.9756,-2.9857,-2.994,-2.9988,-3.0142,-3.0234,-3.0304,-3.0304,-3.0383,0.0,0.0,0.0,0.0,0.0,-3.0761,-3.0788,0.0,0.0,0.0,0.0,0.0,0.0,0.0,0.0,0.0,0.0,0.0,0.0,0.0,0.0,0.0,0.0,0.0,0.0,0.0,0.0,0.0,0.0,0.0,0.0,0.0,0.0,0.0,0.0,0.0,0.0,0.0,0.0,0.0,0.0,0.0,0.0,0.0,0.0,0.0,0.0,0.0,0.0,-1.9654,-1.925,-1.9302,-1.9574,-1.9213,-1.9339,-1.9611,-1.969,0.0,0.0,0.0,0.0,0.0,0.0,0.0,0.0,0.0,0.0,0.0,0.0,0.0,0.0,0.0,0.0,0.0,0.0,0.0,0.0,0.0,0.0,0.0,0.0,-2.6212,-2.6545,-2.7348,-2.674,-2.6303,-2.6651,-2.7238,-2.7619,-2.7569,-2.7771,-2.78,-2.76,-2.7569,-2.7557,-2.7496,0.0,0.0,0.0,0.0,-2.8282,-2.8718,-2.8808,-2.9038,-2.9412,-2.955,-2.9682,-2.9808,-2.9891,-2.9991,-3.0102,-3.0157,-3.0234,-3.0304,-3.0304,-3.0375,-3.051,-3.053,-3.0605,-3.0719,-3.0778,-3.0807,-3.0798,0.0,0.0,0.0,0.0,0.0,0.0,0.0,0.0,0.0,0.0,0.0,0.0,0.0,0.0,0.0,0.0,0.0,0.0,0.0,0.0,0.0,0.0,0.0,0.0,0.0,0.0,0.0,0.0,0.0,0.0,0.0,0.0,0.0,0.0,0.0,0.0,0.0,0.0,0.0,0.0,0.0,0.0,-1.9654,-1.925,-1.9362,-1.9617,-1.925,-1.9362,-1.969,-1.969,-1.969,-1.969,-1.969,0.0,0.0,0.0,0.0,0.0,0.0,0.0,0.0,0.0,0.0,0.0,0.0,0.0,0.0,0.0,0.0,0.0,0.0,0.0,0.0,-2.6971,-2.7099,-2.7395,-2.7811,-2.7549,-2.727,-2.7252,-2.7549,-2.7823,-2.7964,-2.788,-2.7897,-2.8065,-2.7789,-2.7557,-2.7496,-2.7829,-2.8037,-2.8093,-2.8342,-2.8597,-2.886,-2.9038,-2.9209,-2.9412,0.0,0.0,-2.9808,-2.9975,-3.0087,-3.0102,-3.0166,-3.0234,-3.0305,-3.0292,-3.0411,-3.0579,-3.0639,-3.0682,-3.0716,-3.0779,-3.0791,-3.0798,0.0,0.0,0.0,0.0,0.0,0.0,0.0,0.0,0.0,0.0,0.0,0.0,0.0,0.0,0.0,0.0,0.0,0.0,0.0,0.0,0.0,0.0,0.0,0.0,0.0,0.0,0.0,0.0,0.0,0.0,0.0,0.0,0.0,0.0,0.0,0.0,0.0,0.0,0.0,0.0,0.0,0.0,-1.969,-1.9288,-1.9362,-1.9639,-1.9273,-1.942,-1.9762,-1.9848,-2.0059,-2.033,-2.033,-2.0645,-2.1105,0.0,0.0,0.0,0.0,0.0,0.0,0.0,0.0,0.0,0.0,0.0,0.0,0.0,0.0,-2.6826,0.0,0.0,-2.74,-2.7355,-2.7448,-2.76,-2.7789,-2.7829,-2.7886,-2.7936,-2.7936,-2.8075,-2.8412,-2.8093,-2.7992,-2.8368,-2.801,-2.78,-2.7926,-2.8192,-2.8376,-2.8453,-2.8652,-2.8883,-2.9148,-2.9251,-2.9373,-2.955,-2.9719,-2.9825,-2.9857,-3.0022,-3.0117,-3.0161,-3.018,-3.0234,-3.0312,-3.0359,-3.0452,-3.0556,-3.0658,-3.0726,-3.0747,-3.0796,-3.0791,-3.0798,0.0,0.0,0.0,0.0,0.0,0.0,0.0,0.0,0.0,0.0,0.0,0.0,0.0,0.0,0.0,0.0,0.0,0.0,0.0,0.0,0.0,0.0,0.0,0.0,0.0,0.0,0.0,0.0,0.0,0.0,0.0,0.0,0.0,0.0,0.0,0.0,0.0,0.0,0.0,0.0,0.0,0.0,-1.9726,-1.9273,-1.9347,-1.969,-1.9332,-1.9442,-1.9797,-1.9955,-2.0446,-2.0992,-2.0992,-2.1538,-2.2233,-2.2455,-2.2638,0.0,0.0,0.0,0.0,0.0,0.0,0.0,0.0,0.0,-2.6791,-2.7053,-2.7213,-2.7324,-2.7434,-2.7355,-2.7355,-2.7465,-2.76,-2.7689,-2.7689,-2.7982,-2.8272,-2.8554,-2.842,-2.842,-2.8797,-2.8386,-2.8264,-2.8646,-2.829,-2.8156,-2.8402,-2.8603,-2.8748,-2.886,-2.8975,-2.9169,-2.9454,-2.9492,-2.9569,-2.9738,-2.9825,-2.9893,-2.994,-3.0068,-3.0142,-3.0199,-3.0221,-3.026,-3.0343,-3.0469,-3.0528,-3.0554,-3.0665,-3.0732,-3.0801,-3.0808,-3.0791,-3.0794,0.0,0.0,0.0,0.0,0.0,0.0,0.0,0.0,0.0,0.0,0.0,0.0,0.0,0.0,0.0,0.0,0.0,0.0,0.0,0.0,0.0,0.0,0.0,0.0,0.0,0.0,0.0,0.0,0.0,0.0,0.0,0.0,0.0,0.0,0.0,0.0,0.0,0.0,0.0,0.0,0.0,0.0,-1.969,-1.9332,-1.9457,-1.9726,-1.9332,-1.9442,-1.9797,-1.9955,-2.0446,-2.0992,-2.0992,-2.1538,-2.2363,-2.3157,0.0,-2.367,-2.4516,-2.4768,-2.4862,-2.5368,-2.5465,-2.5605,0.0,0.0,-2.6418,-2.6691,-2.7164,-2.743,-2.704,-2.7526,-2.7853,-2.7465,-2.7771,-2.8047,-2.8047,-2.8272,-2.8597,-2.8915,-2.8915,-2.8915,-2.898,-2.8934,-2.8892,-2.8938,-2.8688,-2.8529,-2.8597,-2.8865,-2.9082,-2.9148,-2.9373,-2.9608,-2.9736,-2.9773,-2.9789,-2.9891,-3.0007,-3.0072,-3.0087,-3.0152,-3.0194,-3.0207,-3.0267,-3.0371,-3.0469,-3.0491,-3.0568,-3.0673,-3.0689,-3.0742,-3.0806,-3.0796,-3.0807,-3.0794,0.0,0.0,0.0,0.0,0.0,0.0,0.0,0.0,0.0,0.0,0.0,0.0,0.0,0.0,0.0,0.0,0.0,0.0,0.0,0.0,0.0,0.0,0.0,0.0,0.0,0.0,0.0,0.0,0.0,0.0,0.0,0.0,0.0,0.0,0.0,0.0,0.0,0.0,0.0,0.0,0.0,0.0,-1.9726,-1.9603,-1.969,-1.9884,-1.9726,-2.0038,0.0,0.0,-2.1146,-2.2279,-2.1881,-2.2609,-2.3652,-2.3986,-2.4224,0.0,-2.5059,-2.5162,0.0,0.0,-2.5626,-2.5738,-2.6312,-2.6521,-2.6674,-2.6956,-2.7181,-2.7369,-2.7355,-2.7478,-2.7569,0.0,-2.7869,-2.8102,-2.8102,-2.8496,-2.885,-2.898,-2.9138,-2.9225,-2.9222,-2.892,-2.885,-2.92,-2.8989,-2.8906,-2.906,-2.9272,-2.9394,-2.9433,-2.9626,-2.9737,-2.9808,-2.9841,-2.9874,-2.9888,-3.0038,-3.0102,-3.0113,-3.018,-3.0247,-3.033,-3.04,-3.0463,-3.0565,-3.0601,-3.0646,-3.0708,-3.0739,-3.0779,-3.0796,-3.0794,-3.0801,-3.0793,0.0,0.0,0.0,0.0,0.0,0.0,0.0,0.0,0.0,0.0,0.0,0.0,0.0,0.0,0.0,0.0,0.0,0.0,0.0,0.0,0.0,0.0,0.0,0.0,0.0,0.0,0.0,0.0,0.0,0.0,0.0,0.0,0.0,0.0,0.0,0.0,0.0,0.0,0.0,0.0,0.0,0.0,-1.9762,-1.969,-1.9812,-2.0005,-2.0005,-2.0487,0.0,0.0,-2.1778,-2.3209,-2.2771,-2.3537,-2.4564,-2.458,-2.4782,-2.5045,-2.5256,0.0,0.0,-2.568,-2.5775,-2.5885,-2.626,-2.6556,-2.6808,-2.7021,-2.7103,-2.723,-2.7461,-2.7369,-2.7369,-2.763,-2.7964,-2.8219,-2.8219,-2.8713,-2.9093,-2.9115,-2.9289,-2.9411,-2.9429,-2.9016,-2.8948,-2.9368,-2.9228,-2.923,-2.9433,-2.9589,-2.9664,-2.9664,-2.9773,-2.9859,-2.9876,-2.9924,-2.9972,-2.9988,-3.0083,-3.0128,-3.0138,-3.0221,-3.0311,-3.0425,-3.051,-3.0568,-3.0639,-3.0685,-3.071,-3.0721,-3.0781,-3.0808,-3.0801,-3.0778,-3.0763,-3.075,0.0,0.0,0.0,0.0,0.0,0.0,0.0,0.0,0.0,0.0,0.0,0.0,0.0,0.0,0.0,0.0,0.0,0.0,0.0,0.0,0.0,0.0,0.0,0.0,0.0,0.0,0.0,0.0,0.0,0.0,0.0,0.0,0.0,0.0,0.0,0.0,0.0,0.0,0.0,0.0,0.0,0.0,-1.969,-1.9487,-1.9669,-2.0005,-2.0005,0.0,0.0,0.0,-2.2163,-2.3341,-2.342,-2.394,0.0,-2.4742,-2.4902,0.0,0.0,0.0,-2.541,-2.577,-2.5954,-2.6099,-2.6415,-2.6554,-2.664,-2.6708,-2.6859,-2.7007,-2.7007,-2.7279,-2.7496,-2.7496,-2.8075,-2.8504,-2.8504,-2.9007,-2.9388,-2.9392,-2.9392,-2.9433,0.0,-2.9433,-2.9392,-2.9392,-2.9453,-2.9531,-2.9588,-2.9719,-2.979,-2.979,-2.9857,-2.9956,-3.0087,-3.0087,-3.0132,-3.0185,-3.0194,-3.0207,-3.0188,-3.033,-3.0425,-3.0501,-3.0563,-3.0632,-3.0709,-3.0701,-3.0741,-3.0799,-3.0804,-3.0798,-3.0779,-3.073,-3.0711,-3.0695,0.0,0.0,0.0,0.0,0.0,0.0,0.0,0.0,0.0,0.0,0.0,0.0,0.0,0.0,0.0,0.0,0.0,0.0,0.0,0.0,0.0,0.0,0.0,0.0,0.0,0.0,0.0,0.0,0.0,0.0,0.0,0.0,0.0,0.0,0.0,0.0,0.0,0.0,0.0,0.0,0.0,0.0,-1.969,-1.9654,-1.9812,-2.0005,0.0,0.0,0.0,0.0,0.0,0.0,-2.3491,0.0,0.0,-2.4902,-2.4966,-2.5084,0.0,0.0,-2.56,-2.6046,-2.6189,-2.626,-2.645,-2.6554,-2.6606,-2.6623,-2.6809,-2.6942,-2.7055,-2.7413,-2.7672,-2.7569,-2.8281,-2.8761,-2.8578,-2.9056,-2.9431,-2.9453,-2.9511,0.0,0.0,0.0,0.0,-2.9472,-2.9531,-2.9588,-2.9607,-2.9719,-2.9808,-2.9808,-2.9959,-3.0053,-3.0102,-3.0147,-3.0171,-3.0194,-3.0292,-3.0323,-3.0328,-3.0428,-3.0501,-3.0568,-3.0645,-3.0708,-3.0765,-3.0761,-3.1122,-3.166,-3.1613,-3.1958,-3.2453,-3.2389,-3.2334,-3.2205,0.0,0.0,0.0,0.0,0.0,0.0,0.0,0.0,0.0,0.0,0.0,0.0,0.0,0.0,0.0,0.0,0.0,0.0,0.0,0.0,0.0,0.0,0.0,0.0,0.0,0.0,0.0,0.0,0.0,0.0,0.0,0.0,0.0,0.0,0.0,0.0,0.0,0.0,0.0,0.0,0.0,0.0,-1.9797,-1.9848,-1.9955,0.0,0.0,0.0,0.0,0.0,0.0,0.0,0.0,-2.4139,-2.4902,-2.4966,-2.5005,-2.5084,-2.5492,-2.5584,-2.5712,-2.617,-2.6277,-2.6329,-2.645,-2.652,-2.6606,-2.6792,-2.6876,-2.6975,-2.7244,-2.7577,-2.7754,-2.7659,-2.8308,-2.8761,-2.8621,-2.8993,-2.9332,-2.9492,-2.9569,-2.9588,0.0,0.0,0.0,-2.955,-2.9608,-2.9645,-2.9664,-2.9825,-2.991,-2.991,-3.0072,-3.0147,-3.0128,-3.0185,-3.0207,-3.0292,-3.0667,-3.0736,-3.0479,-3.0839,-3.0878,-3.0671,-3.1032,-3.1223,-3.1289,-3.1606,-3.2053,-3.2522,-3.2479,-3.2797,-3.3257,-3.3203,-3.3084,-3.2924,0.0,0.0,0.0,0.0,0.0,0.0,0.0,0.0,0.0,0.0,0.0,0.0,0.0,0.0,0.0,0.0,0.0,0.0,0.0,0.0,0.0,0.0,0.0,0.0,0.0,0.0,0.0,0.0,0.0,0.0,0.0,0.0,0.0,0.0,0.0,0.0,0.0,0.0,0.0,0.0,0.0,0.0,-2.0005,-2.0005,0.0,0.0,0.0,0.0,0.0,0.0,0.0,0.0,0.0,-2.4241,-2.5005,-2.5005,-2.5005,-2.5084,-2.5492,-2.5605,-2.5733,-2.6096,-2.622,-2.6239,-2.645,-2.6485,-2.664,-2.7085,-2.7023,-2.7055,0.0,0.0,-2.7811,-2.7742,-2.8192,-2.8578,-2.8603,-2.886,-2.9188,0.0,0.0,0.0,0.0,0.0,0.0,-2.9626,0.0,-2.9735,-2.9808,-2.9991,-3.0102,-3.0102,-3.0176,-3.0232,-3.0265,-3.0316,-3.0407,-3.0544,-3.1383,-3.1409,-3.0771,-3.1596,-3.1559,-3.0877,-3.1788,-3.2168,-3.2222,-3.3041,-3.3375,-3.3362,-3.3362,-3.3347,-3.3315,-3.3248,-3.3103,-3.2954,0.0,0.0,0.0,0.0,0.0,0.0,0.0,0.0,0.0,0.0,0.0,0.0,0.0,0.0,0.0,0.0,0.0,0.0,0.0,0.0,0.0,0.0,0.0,0.0,0.0,0.0,0.0,0.0,0.0,0.0,0.0,0.0,0.0,0.0,0.0,0.0,0.0,0.0,0.0,0.0,0.0,0.0,-1.9762,0.0,0.0,0.0,0.0,0.0,0.0,0.0,0.0,0.0,0.0,-2.4358,-2.5005,-2.5005,-2.51,-2.5278,-2.553,-2.5733,-2.5881,-2.6132,-2.622,-2.6239,-2.6312,-2.6434,-2.6572,-2.6758,-2.6892,-2.704,0.0,0.0,0.0,-2.802,-2.87,0.0,-2.906,-2.9291,0.0,-2.9645,0.0,-2.9701,-2.9755,-2.979,0.0,0.0,-2.9839,-2.9855,-2.9855,-3.0022,-3.0102,-3.0102,-3.0199,-3.0592,-3.1238,-3.1948,-3.2328,-3.2411,-3.2638,-3.2665,-3.2545,-3.283,-3.2834,-3.2648,-3.2949,-3.3037,-3.3002,-3.3229,-3.3679,-3.4178,-3.4132,-3.4516,-3.5049,-3.4988,-3.4796,-3.4615,0.0,0.0,0.0,0.0,0.0,0.0,0.0,0.0,0.0,0.0,0.0,0.0,0.0,0.0,0.0,0.0,0.0,0.0,0.0,0.0,0.0,0.0,0.0,0.0,0.0,0.0,0.0,0.0,0.0,0.0,0.0,0.0,0.0,0.0,0.0,0.0,0.0,0.0,0.0,0.0,0.0,0.0,0.0,0.0,0.0,0.0,0.0,0.0,0.0,0.0,0.0,-2.3248,-2.3714,-2.4374,-2.5005,-2.5005,0.0,-2.5333,-2.5546,-2.5828,-2.6134,-2.6345,-2.6503,-2.6607,-2.6521,-2.664,-2.6792,-2.6939,-2.7006,0.0,0.0,0.0,0.0,0.0,0.0,0.0,-2.9209,-2.9332,-2.9472,0.0,-2.9719,0.0,-2.9808,-2.9876,-2.9943,0.0,-2.9991,-2.9988,-3.0034,-3.0128,-3.039,-3.0795,-3.0881,-3.1335,-3.2212,-3.2775,-3.3073,-3.3151,-3.3541,-3.3557,-3.3262,-3.3679,-3.3664,-3.332,0.0,-3.3903,-3.3896,-3.4257,-3.4656,-3.5027,-3.4982,-3.5252,-3.5643,-3.5477,-3.5273,-3.5066,0.0,0.0,0.0,0.0,0.0,0.0,0.0,0.0,0.0,0.0,0.0,0.0,0.0,0.0,0.0,0.0,0.0,0.0,0.0,0.0,0.0,0.0,0.0,0.0,0.0,0.0,0.0,0.0,0.0,0.0,0.0,0.0,0.0,0.0,0.0,0.0,0.0,0.0,0.0,0.0,0.0,0.0,0.0,0.0,0.0,0.0,0.0,0.0,0.0,0.0,-2.1259,-2.2571,-2.3387,-2.4193,-2.4855,-2.4934,-2.5123,-2.5333,-2.5508,-2.5901,-2.6295,-2.6468,-2.6842,-2.7085,-2.6825,-2.6956,-2.7117,-2.7241,0.0,-2.7258,-2.7701,-2.821,-2.8504,-2.8316,0.0,-2.9191,-2.9251,-2.927,-2.9373,-2.9683,-2.9755,-2.9808,-2.9842,-2.9991,-3.0117,-3.0132,-3.0132,-3.0142,-3.0218,-3.0381,-3.0919,-3.1838,-3.1985,-3.2432,-3.3191,-3.3374,-3.3497,-3.355,-3.4314,-3.4328,-3.3665,-3.4434,-3.4351,-3.3695,-3.4447,0.0,-3.4795,-3.55,-3.5745,-3.5678,-3.5657,-3.562,-3.5522,-3.5247,-3.503,-3.4813,0.0,0.0,0.0,0.0,0.0,0.0,0.0,0.0,0.0,0.0,-1.1155,-1.1961,0.0,0.0,0.0,0.0,0.0,0.0,0.0,0.0,0.0,0.0,0.0,0.0,0.0,0.0,0.0,0.0,0.0,0.0,0.0,0.0,0.0,0.0,0.0,0.0,0.0,0.0,0.0,0.0,0.0,0.0,0.0,0.0,0.0,0.0,0.0,0.0,0.0,0.0,-2.0579,-2.1688,-2.2555,-2.328,-2.3975,-2.4649,-2.4966,-2.5146,-2.5317,-2.568,-2.6046,-2.6099,-2.6539,-2.6889,-2.6691,-2.6892,0.0,0.0,0.0,-2.747,-2.76,-2.8272,-2.8795,-2.8652,0.0,0.0,0.0,0.0,-2.9664,0.0,0.0,0.0,0.0,0.0,0.0,0.0,0.0,-3.0273,-3.0279,-3.1034,-3.1857,-3.2744,-3.3462,-3.3973,-3.4237,-3.4963,-3.5332,-3.535,-3.5561,-3.558,-3.5448,-3.5602,-3.5586,-3.5456,-3.5611,0.0,-3.553,-3.566,-3.5678,-3.5601,-3.5424,-3.5326,-3.5247,-3.503,-3.4813,-3.4647,0.0,0.0,0.0,0.0,0.0,0.0,0.0,0.0,-1.0424,-1.0498,-1.0977,-1.1439,-1.1718,-1.2216,0.0,0.0,0.0,0.0,0.0,0.0,0.0,0.0,0.0,0.0,0.0,0.0,0.0,0.0,0.0,0.0,0.0,0.0,0.0,0.0,0.0,0.0,0.0,0.0,0.0,0.0,0.0,0.0,0.0,0.0,0.0,0.0,0.0,0.0,0.0,0.0,-2.0223,-2.0839,-2.2075,-2.2978,-2.3741,-2.4578,-2.5084,-2.5378,-2.5492,-2.5957,-2.6418,-2.6418,-2.6937,-2.7317,-2.694,0.0,0.0,0.0,-2.7307,-2.7474,-2.7557,0.0,0.0,0.0,0.0,0.0,0.0,0.0,0.0,0.0,0.0,0.0,0.0,0.0,0.0,0.0,0.0,-3.0371,-3.039,-3.1692,-3.2828,-3.3701,-3.4565,-3.5075,-3.5184,-3.5582,-3.5825,-3.5854,-3.5877,-3.5896,-3.591,-3.59,-3.5895,-3.5905,-3.5823,0.0,-3.5699,-3.5657,-3.5553,-3.5378,-3.5296,-3.5152,-3.4962,-3.4754,-3.4591,-3.4416,0.0,0.0,0.0,0.0,0.0,0.0,0.0,-1.0122,-1.0311,-1.0422,-1.0619,-1.0753,-1.0777,-1.1472,-1.1996,0.0,0.0,0.0,0.0,0.0,0.0,0.0,0.0,0.0,0.0,0.0,0.0,0.0,0.0,0.0,0.0,0.0,0.0,0.0,0.0,0.0,0.0,0.0,0.0,0.0,0.0,0.0,0.0,0.0,0.0,0.0,0.0,0.0,0.0,0.0,-2.001,-2.0309,-2.1612,-2.2647,-2.3553,-2.4611,-2.5185,-2.5589,-2.5721,-2.628,-2.6841,-2.6841,-2.7409,-2.784,-2.7382,-2.7577,0.0,0.0,-2.7444,-2.7642,-2.7672,0.0,0.0,0.0,0.0,0.0,0.0,0.0,0.0,0.0,0.0,0.0,0.0,0.0,0.0,0.0,0.0,0.0,-3.1051,-3.2387,-3.3616,-3.4671,-3.5383,-3.5768,-3.5816,-3.5809,-3.5856,-3.5895,-3.5908,-3.5884,-3.5869,-3.5859,-3.5852,-3.5823,-3.5728,0.0,0.0,-3.5572,-3.5369,-3.5165,-3.5083,-3.4888,-3.4653,-3.4476,-3.4321,-3.4213,0.0,0.0,0.0,0.0,0.0,0.0,0.0,-0.9712,-0.9802,-0.9621,-0.979,-1.0034,-1.0399,-1.1,-1.1669,0.0,0.0,0.0,0.0,0.0,0.0,0.0,0.0,0.0,0.0,0.0,0.0,0.0,0.0,0.0,0.0,0.0,0.0,0.0,0.0,0.0,0.0,0.0,0.0,0.0,0.0,0.0,0.0,0.0,0.0,0.0,0.0,0.0,0.0,0.0,0.0,-2.0358,-2.1008,-2.184,-2.2961,-2.4655,0.0,0.0,-2.5961,-2.6471,-2.6905,-2.697,-2.7584,-2.8102,-2.7869,0.0,0.0,-2.7954,-2.8129,-2.8316,-2.8316,-2.8658,0.0,0.0,0.0,0.0,0.0,0.0,0.0,0.0,0.0,0.0,0.0,0.0,0.0,0.0,0.0,0.0,-3.288,-3.3103,-3.3944,-3.5619,-3.5807,-3.5876,-3.5897,-3.5898,-3.589,-3.5899,-3.5894,-3.5866,-3.5806,-3.576,-3.5679,-3.5629,-3.5618,0.0,0.0,-3.534,-3.5181,-3.5081,-3.4713,-3.4461,-3.4311,-3.413,-3.4049,-3.4023,0.0,0.0,0.0,0.0,0.0,0.0,-0.9251,-0.9316,-0.9475,-0.9712,-0.9816,-1.0072,-1.0632,-1.0777,-1.0945,0.0,0.0,0.0,0.0,0.0,0.0,0.0,0.0,0.0,0.0,0.0,0.0,0.0,0.0,0.0,0.0,0.0,0.0,0.0,0.0,0.0,0.0,0.0,0.0,0.0,0.0,0.0,0.0,0.0,0.0,0.0,0.0,0.0,0.0,0.0,0.0,0.0,-2.091,-2.1858,0.0,0.0,-2.5067,-2.5911,-2.616,-2.6773,-2.7396,-2.7426,-2.7823,-2.8156,-2.8047,0.0,0.0,-2.8324,-2.8402,-2.8504,-2.8504,-2.8819,-2.9089,0.0,0.0,0.0,0.0,0.0,0.0,0.0,0.0,0.0,0.0,0.0,0.0,0.0,0.0,0.0,-3.2411,-3.2933,-3.3996,-3.5743,-3.5862,-3.5878,-3.5831,-3.5887,-3.5885,-3.584,-3.5791,-3.576,-3.5735,-3.566,-3.5639,-3.5577,-3.5425,0.0,0.0,-3.5086,-3.487,-3.4714,-3.4464,-3.4255,-3.4037,-3.3972,-3.3895,-3.3834,0.0,0.0,0.0,0.0,0.0,-0.8887,-0.8981,-0.9089,-0.9224,-0.9528,-0.9712,-1.0021,-1.0559,-1.0436,-1.0336,-1.0386,0.0,0.0,0.0,0.0,0.0,0.0,0.0,0.0,0.0,0.0,0.0,-1.4,-1.4144,-1.4222,0.0,0.0,0.0,0.0,0.0,0.0,0.0,0.0,0.0,0.0,0.0,0.0,0.0,0.0,0.0,0.0,0.0,0.0,0.0,0.0,0.0,0.0,0.0,0.0,0.0,0.0,-2.5118,-2.6318,-2.6607,-2.7238,-2.7876,-2.7886,-2.8174,-2.8394,0.0,0.0,0.0,-2.867,-2.8772,-2.887,-2.8897,-2.9079,-2.9304,0.0,0.0,-2.9912,0.0,0.0,0.0,0.0,0.0,0.0,0.0,0.0,0.0,0.0,0.0,0.0,-3.191,-3.2522,-3.3632,-3.5385,-3.5741,-3.5862,-3.581,-3.5858,-3.5838,-3.5763,-3.5708,-3.5679,-3.5669,-3.5596,-3.5538,-3.5438,-3.5243,0.0,0.0,-3.4755,-3.4548,-3.439,-3.4237,-3.4037,-3.3842,-3.3842,-3.378,-3.3643,0.0,0.0,0.0,0.0,0.0,0.0,0.0,-0.9035,-0.9104,-0.8844,-0.9277,-0.9673,-0.9905,-0.9905,-0.9944,-1.0097,0.0,0.0,0.0,0.0,0.0,0.0,0.0,0.0,0.0,0.0,0.0,-1.4,-1.4,-1.4,-1.4,-1.4,-1.4032,-1.4032,0.0,0.0,0.0,0.0,0.0,0.0,0.0,0.0,0.0,0.0,0.0,0.0,0.0,0.0,0.0,0.0,0.0,0.0,0.0,0.0,0.0,0.0,-2.5491,-2.664,-2.7324,-2.7893,-2.8327,-2.8388,-2.87,-2.8957,0.0,0.0,-2.923,-2.9048,-2.9254,-2.9514,-2.9587,-2.9584,-2.967,-2.9861,0.0,0.0,0.0,0.0,0.0,0.0,0.0,0.0,0.0,0.0,0.0,0.0,0.0,0.0,-3.1848,-3.1975,-3.2817,-3.4569,-3.5451,-3.5872,-3.5799,-3.5788,-3.5763,-3.5706,-3.563,-3.5596,-3.5601,-3.5521,-3.5355,0.0,0.0,0.0,0.0,-3.4423,-3.4246,-3.4176,-3.3979,-3.3815,-3.3698,-3.3698,-3.3643,-3.3559,0.0,0.0,0.0,0.0,0.0,0.0,0.0,-0.8871,-0.8981,-0.9128,-0.9289,-0.9528,-0.9919,-0.997,-1.0034,-1.0211,0.0,0.0,0.0,0.0,0.0,0.0,0.0,0.0,0.0,0.0,-1.4019,-1.3735,-1.3735,-1.3648,-1.3459,-1.3459,-1.3459,-1.3459,-1.3615,0.0,0.0,0.0,0.0,0.0,0.0,0.0,0.0,0.0,0.0,0.0,0.0,0.0,0.0,0.0,0.0,0.0,0.0,0.0,0.0,0.0,0.0,0.0,-2.7068,-2.7718,-2.8273,-2.8626,-2.8863,-2.9048,-2.9181,0.0,-2.957,-2.9626,-2.9765,-2.9908,-2.9939,-3.0028,-3.0098,-3.0163,-3.0248,0.0,0.0,0.0,0.0,0.0,0.0,0.0,0.0,0.0,0.0,0.0,0.0,0.0,-3.1076,-3.1623,-3.2739,-3.4489,-3.4802,-3.5201,-3.5718,-3.5728,-3.5688,-3.5562,-3.5526,-3.554,-3.5509,-3.5315,-3.5187,0.0,0.0,0.0,0.0,-3.4136,-3.4005,-3.3928,-3.3815,-3.3698,-3.3633,-3.3633,-3.3444,-3.316,0.0,0.0,0.0,0.0,0.0,0.0,0.0,-0.8761,-0.8992,-0.9003,-0.9301,-0.9567,-0.9686,-0.9841,-0.9982,-0.9995,0.0,0.0,0.0,0.0,0.0,0.0,0.0,0.0,0.0,-1.3847,-1.3735,-1.331,-1.3446,-1.3357,-1.306,-1.3163,-1.3198,-1.3198,-1.3323,0.0,0.0,0.0,0.0,0.0,0.0,0.0,-1.377,0.0,0.0,0.0,0.0,0.0,0.0,0.0,0.0,0.0,0.0,0.0,0.0,0.0,-2.2419,0.0,0.0,-2.7652,-2.8376,-2.885,-2.9052,0.0,0.0,0.0,-2.9815,-2.9877,-3.0056,-3.0209,-3.0209,-3.0314,-3.0411,-3.0452,-3.0511,0.0,0.0,0.0,0.0,0.0,0.0,0.0,0.0,0.0,0.0,0.0,0.0,0.0,-3.0618,-3.1103,-3.2006,-3.3401,-3.4078,-3.4652,-3.5121,-3.5446,-3.5553,-3.5463,-3.5355,-3.5311,-3.5304,-3.507,-3.4889,0.0,0.0,0.0,0.0,-3.3902,-3.3807,-3.3753,-3.3698,-3.353,-3.3386,-3.3309,-3.305,-3.2651,0.0,0.0,0.0,0.0,0.0,0.0,0.0,0.0,-0.9085,-0.8583,-0.9289,-0.9672,-0.9232,-0.9593,-0.975,-0.9523,0.0,0.0,0.0,0.0,0.0,0.0,0.0,0.0,0.0,-1.3435,-1.3467,-1.2768,-1.3151,-1.3151,-1.2733,-1.3012,-1.3129,-1.3094,-1.3094,-1.306,-1.299,-1.2908,-1.2685,-1.2437,-1.2401,-1.252,0.0,0.0,0.0,0.0,0.0,0.0,0.0,0.0,0.0,0.0,0.0,0.0,0.0,0.0,0.0,0.0,0.0,0.0,0.0,0.0,0.0,0.0,0.0,0.0,0.0,-2.9932,-3.0182,-3.0423,-3.0423,-3.0519,-3.0642,-3.0691,0.0,0.0,0.0,0.0,0.0,0.0,0.0,0.0,0.0,0.0,0.0,0.0,0.0,0.0,-3.0499,-3.049,-3.0835,-3.1576,-3.3207,-3.4087,-3.4115,-3.4903,-3.5302,-3.5288,-3.51,-3.498,-3.4962,-3.4754,-3.4489,0.0,0.0,0.0,0.0,-3.3726,-3.3698,-3.3671,-3.3587,-3.3327,-3.2975,-3.2813,-3.2451,-3.1986,0.0,0.0,0.0,0.0,0.0,0.0,0.0,0.0,0.0,0.0,-0.9015,-0.9271,-0.9217,-0.9286,-0.9393,0.0,0.0,0.0,0.0,0.0,0.0,0.0,0.0,0.0,0.0,-1.2531,-1.2707,-1.2354,-1.2756,-1.2615,-1.2029,-1.2401,-1.2437,-1.2138,-1.2138,-1.2138,-1.221,-1.2246,-1.2138,-1.1993,-1.2294,-1.215,0.0,0.0,0.0,0.0,-1.2858,-1.3738,0.0,0.0,0.0,0.0,0.0,0.0,0.0,0.0,-1.8187,-1.9251,-2.125,0.0,-2.61,-2.8866,-2.9588,0.0,0.0,0.0,0.0,0.0,0.0,0.0,-3.063,-3.0665,0.0,0.0,0.0,0.0,0.0,0.0,0.0,0.0,0.0,0.0,0.0,0.0,0.0,0.0,0.0,-3.0444,-3.0433,-3.0371,-3.0436,-3.0605,-3.147,-3.2345,-3.3205,-3.4005,-3.4304,-3.4094,-3.471,-3.4925,-3.4754,-3.4445,-3.4269,0.0,0.0,0.0,-3.3726,-3.3643,-3.3605,-3.352,-3.3268,-3.3006,-3.2734,-3.2384,-3.1968,-3.1531,0.0,0.0,0.0,0.0,0.0,0.0,0.0,0.0,0.0,0.0,0.0,0.0,0.0,0.0,0.0,0.0,0.0,0.0,0.0,0.0,0.0,0.0,0.0,0.0,-1.0809,-1.1734,-1.2043,-1.1653,-1.2126,-1.2066,-1.1431,-1.1836,-1.192,-1.1664,-1.1664,-1.1579,-1.1494,-1.1847,-1.1847,-1.1737,-1.2066,0.0,0.0,0.0,0.0,0.0,-1.2224,-1.3084,0.0,-1.4834,-1.4879,-1.4699,0.0,0.0,0.0,0.0,-1.7859,-1.9629,-2.1044,-2.3076,-2.5322,-2.7571,-2.9007,-2.9955,0.0,0.0,0.0,0.0,0.0,0.0,0.0,0.0,0.0,0.0,0.0,0.0,0.0,0.0,0.0,0.0,0.0,0.0,0.0,0.0,0.0,0.0,0.0,-3.0386,-3.0362,-3.0323,-3.0235,-3.0114,-3.043,-3.1077,-3.2106,-3.2816,-3.3291,-3.3526,-3.3902,-3.4214,-3.4461,-3.4117,-3.3968,0.0,0.0,0.0,-3.3643,-3.3415,-3.325,-3.3142,-3.2749,-3.2401,-3.2092,-3.1842,-3.1452,-3.1083,0.0,0.0,0.0,0.0,0.0,0.0,0.0,0.0,0.0,0.0,0.0,0.0,0.0,0.0,0.0,0.0,0.0,0.0,0.0,0.0,0.0,0.0,0.0,-0.9679,-0.9874,-1.0981,-1.1328,-1.0943,-1.1494,-1.1505,-1.0943,-1.1356,-1.1505,-1.1442,-1.1404,-1.1282,-1.1084,-1.1516,-1.1627,-1.1457,-1.1726,0.0,0.0,0.0,0.0,0.0,0.0,0.0,0.0,-1.5589,-1.4947,-1.397,-1.4955,0.0,0.0,0.0,0.0,0.0,-2.1979,-2.3658,-2.5263,-2.6395,-2.8426,-3.0209,0.0,0.0,0.0,0.0,0.0,0.0,0.0,0.0,0.0,0.0,0.0,0.0,0.0,0.0,0.0,0.0,0.0,0.0,0.0,0.0,0.0,0.0,0.0,-3.0318,-3.024,-3.0228,-3.0114,-2.9855,-2.9799,-3.012,-3.0858,-3.1563,-3.2274,-3.3037,-3.2989,-3.3369,-3.4099,-3.3815,-3.3671,-3.3671,0.0,0.0,-3.3444,-3.3099,-3.2862,-3.2634,-3.2161,-3.1752,-3.1376,-3.124,-3.0998,-3.0651,0.0,0.0,0.0,0.0,0.0,0.0,0.0,0.0,0.0,0.0,0.0,0.0,0.0,0.0,0.0,0.0,0.0,0.0,0.0,0.0,0.0,0.0,-0.8955,-0.9203,-0.9389,-0.998,-1.0395,-1.0649,-1.1105,-1.1105,-1.0659,-1.1067,-1.1207,-1.1057,-1.1029,-1.1094,-1.1282,-1.1276,-1.1126,-1.0867,-1.1234,0.0,0.0,0.0,0.0,0.0,0.0,0.0,0.0,-1.7157,-1.7373,-1.7603,-1.785,0.0,0.0,0.0,0.0,0.0,-1.977,-2.222,-2.5215,-2.7791,-2.9389,-3.038,0.0,0.0,0.0,0.0,0.0,0.0,0.0,0.0,0.0,0.0,0.0,0.0,0.0,0.0,0.0,0.0,0.0,0.0,0.0,0.0,0.0,0.0,0.0,-3.0157,-2.9969,-2.9918,-2.9782,-2.957,-2.9339,-2.9291,-2.9421,-3.0485,-3.1287,-3.1867,-3.2519,-3.3128,-3.3698,-3.3643,-3.3633,-3.3605,0.0,-3.328,-3.289,-3.2781,-3.2486,-3.2092,-3.166,-3.1414,-3.1278,-3.0918,-3.0692,-3.0526,0.0,0.0,0.0,0.0,0.0,0.0,0.0,0.0,0.0,0.0,0.0,0.0,0.0,0.0,0.0,0.0,0.0,0.0,0.0,0.0,0.0,-0.8449,-0.8671,-0.8908,-0.913,-0.9637,-1.0076,-1.0438,-1.0725,-1.0736,-1.0438,-1.0621,-1.0687,-1.0677,-1.0649,-1.0764,-1.0981,-1.0954,-1.0964,-1.0992,0.0,0.0,0.0,0.0,0.0,0.0,0.0,0.0,0.0,0.0,-1.8144,-1.8412,-1.8439,0.0,0.0,0.0,0.0,0.0,-2.2128,-2.4124,-2.6408,-2.7619,-2.9071,-3.0203,-3.0253,0.0,0.0,0.0,0.0,0.0,0.0,0.0,0.0,0.0,0.0,0.0,0.0,0.0,0.0,0.0,0.0,0.0,0.0,0.0,0.0,0.0,0.0,0.0,-2.9644,-2.9607,-2.9476,-2.9297,-2.9172,-2.9038,-2.8938,-2.9425,-3.0014,-3.0766,-3.1549,-3.2279,-3.2967,-3.3377,-3.3415,-3.3172,0.0,-3.2781,-3.2368,-3.2092,-3.1842,-3.1565,-3.1162,-3.0982,-3.0838,-3.0634,-3.0568,-3.0468,0.0,0.0,0.0,0.0,0.0,0.0,0.0,0.0,0.0,0.0,0.0,0.0,0.0,0.0,0.0,0.0,0.0,0.0,0.0,0.0,-0.8639,-0.8336,-0.8511,-0.8674,-0.8882,-0.9388,-0.9779,-1.0079,-1.039,-1.039,-1.0166,-1.0283,-1.0312,-1.0293,-1.0457,-1.0611,-1.0715,-1.0764,-1.0916,-1.1067,0.0,0.0,0.0,0.0,0.0,0.0,0.0,0.0,0.0,0.0,0.0,0.0,0.0,0.0,0.0,-2.2097,-2.3228,-2.4442,-2.458,-2.5973,-2.7327,-2.7194,0.0,-2.9999,-2.9984,0.0,0.0,0.0,0.0,0.0,0.0,0.0,0.0,0.0,0.0,0.0,0.0,0.0,0.0,0.0,0.0,0.0,0.0,0.0,0.0,0.0,0.0,0.0,-2.9339,-2.9299,-2.9196,-2.9016,-2.8993,-2.8897,-2.8761,-2.8712,-2.9094,-2.9988,-3.0763,-3.1564,-3.2365,-3.3024,-3.3129,-3.2781,-3.2619,-3.2283,-3.1823,-3.149,-3.1261,-3.1061,-3.0757,-3.0609,-3.0526,-3.0526,-3.0426,-3.03,0.0,0.0,0.0,0.0,0.0,0.0,0.0,0.0,0.0,0.0,0.0,0.0,0.0,0.0,0.0,0.0,0.0,0.0,0.0,0.0,-0.8244,-0.8382,-0.8541,-0.8577,-0.8555,-0.8993,-0.9299,-0.9359,-1.0,-1.0166,-0.9862,-1.0235,-1.0215,-0.9962,-1.0601,-1.0802,-1.0715,-1.0964,-1.0926,-1.0621,-1.0495,0.0,0.0,0.0,0.0,0.0,0.0,0.0,0.0,0.0,0.0,0.0,0.0,0.0,-2.4111,-2.4246,-2.4381,-2.4515,-2.466,-2.5792,-2.6954,-2.699,0.0,0.0,-2.9908,-2.9954,0.0,0.0,0.0,0.0,0.0,0.0,0.0,0.0,0.0,0.0,0.0,0.0,0.0,0.0,0.0,0.0,0.0,0.0,0.0,0.0,0.0,0.0,-2.9129,-2.9064,-2.8925,-2.8743,-2.8687,-2.8637,-2.8612,-2.8612,-2.9036,-2.9911,-3.0658,-3.1447,-3.2216,-3.2585,-3.2734,-3.2702,-3.2231,-3.1787,-3.1372,-3.1334,-3.1021,-3.0551,-3.0526,-3.0526,-3.0526,-3.0526,-3.0199,-2.9853,0.0,0.0,0.0,0.0,0.0,0.0,0.0,0.0,0.0,0.0,0.0,0.0,0.0,0.0,0.0,0.0,0.0,0.0,0.0,0.0,-0.8282,-0.8559,-0.8752,-0.8791,-0.8685,-0.9078,-0.929,-0.9319,-0.9558,-0.9607,-0.9487,-0.9922,-1.0118,-1.0021,-1.0495,-1.0764,-1.084,-1.0687,-1.0572,-1.0457,-1.0273,-1.1011,0.0,0.0,0.0,0.0,0.0,0.0,0.0,0.0,-2.3831,-2.3896,0.0,-2.4036,-2.4134,-2.4266,-2.4339,-2.4411,-2.4495,-2.5651,-2.6822,-2.6763,0.0,0.0,0.0,0.0,0.0,0.0,0.0,0.0,0.0,0.0,0.0,0.0,0.0,0.0,0.0,0.0,0.0,0.0,0.0,0.0,0.0,0.0,0.0,0.0,0.0,0.0,-2.8797,-2.8773,-2.87,-2.8569,-2.8543,-2.851,-2.8476,-2.8264,-2.8335,-2.8667,-2.9482,-3.0259,-3.0975,-3.1376,-3.1672,-3.1823,-3.164,-3.1278,-3.0781,-3.0781,-3.0675,-3.0526,-3.0526,-3.0526,-3.0468,-3.0156,-2.9941,-2.9705,0.0,0.0,0.0,0.0,0.0,0.0,0.0,0.0,0.0,0.0,0.0,0.0,0.0,0.0,0.0,0.0,0.0,0.0,0.0,-0.8364,-0.853,-0.8941,-0.9224,-0.9211,-0.88,-0.9198,-0.9256,-0.9007,-0.9088,-0.9119,-0.9168,-0.9774,-0.9932,-0.9765,-1.039,-1.0659,-1.0621,-1.0457,-1.038,-1.0302,-1.0127,-1.0968,0.0,0.0,0.0,0.0,0.0,0.0,0.0,0.0,0.0,0.0,0.0,0.0,0.0,0.0,-2.4134,-2.419,-2.4635,-2.5671,-2.6682,0.0,0.0,0.0,0.0,0.0,0.0,0.0,0.0,0.0,0.0,0.0,0.0,0.0,0.0,0.0,0.0,0.0,0.0,0.0,0.0,0.0,0.0,0.0,0.0,0.0,0.0,0.0,0.0,-2.8536,-2.851,-2.8484,-2.8362,-2.8291,-2.8255,-2.7897,-2.7725,-2.7725,-2.8205,-2.8873,-2.9712,-3.0385,-3.0797,-3.0955,-3.1038,-3.0838,-3.0526,-3.0526,-3.0426,-3.0284,-3.0258,-3.0156,-3.0027,-2.9705,-2.9467,-2.9225,0.0,0.0,0.0,0.0,0.0,0.0,0.0,0.0,0.0,0.0,0.0,0.0,0.0,0.0,0.0,0.0,0.0,0.0,-0.8674,-0.8705,-0.8951,-0.9499,-0.9953,-0.9748,-0.8846,-0.934,-0.9191,-0.8414,-0.8659,-0.8773,-0.8814,-0.9686,-0.9686,-0.9056,-1.0273,-1.0515,-1.0019,-1.0273,-1.0273,-1.0088,-1.0019,-1.1102,-1.2968,0.0,0.0,0.0,0.0,0.0,0.0,0.0,-2.3891,0.0,0.0,0.0,0.0,0.0,-2.3917,-2.3979,-2.5167,-2.5889,-2.6495,0.0,0.0,0.0,0.0,0.0,0.0,0.0,0.0,0.0,0.0,0.0,0.0,0.0,0.0,0.0,0.0,0.0,0.0,0.0,0.0,0.0,0.0,0.0,0.0,0.0,0.0,0.0,0.0,-2.8398,-2.838,-2.838,-2.8055,-2.7897,-2.7897,-2.756,-2.7348,-2.7303,-2.6954,-2.7446,-2.8624,-2.9693,-3.0194,-3.0207,-3.0423,-3.0526,-3.0526,-3.0485,-3.0199,-2.981,-2.9677,-2.9393,-2.9074,-2.9074,-2.8732,-2.8304,0.0,0.0,0.0,0.0,0.0,0.0,0.0,0.0,0.0,0.0,0.0,0.0,0.0,0.0,0.0,0.0,0.0,0.0,-0.8612,-0.885,-0.9221,-0.9768,-0.9919,-0.9886,-0.9666,-0.9464,-0.9079,-0.8414,-0.8275,-0.8275,-0.8414,-0.9168,-0.9408,-0.9248,-1.0108,-1.0428,-1.0273,-1.0235,-1.0127,-1.0039,-1.0212,-1.0577,-1.13,0.0,0.0,0.0,0.0,0.0,0.0,0.0,0.0,0.0,0.0,0.0,0.0,-2.4113,-2.4036,-2.416,-2.4983,-2.5543,0.0,0.0,0.0,0.0,0.0,0.0,0.0,0.0,0.0,0.0,0.0,0.0,0.0,0.0,0.0,0.0,0.0,0.0,0.0,0.0,0.0,0.0,0.0,0.0,0.0,0.0,0.0,0.0,0.0,-2.8183,-2.8045,-2.7961,-2.7636,-2.7457,-2.7413,-2.7068,-2.6906,-2.6873,-2.6538,-2.696,-2.8066,-2.8676,-2.917,-2.9688,-3.0236,-3.0526,-3.0468,-3.0156,-2.9941,-2.975,-2.9393,-2.9182,-2.9028,-2.8685,-2.84,-2.8125,0.0,0.0,0.0,0.0,0.0,0.0,0.0,0.0,0.0,0.0,0.0,0.0,0.0,0.0,0.0,0.0,0.0,0.0,0.0,0.0,-0.9611,-1.016,-1.018,-1.0085,-0.9932,-0.9368,-0.8926,-0.8659,-0.8398,-0.8316,-0.8406,-0.8999,-0.9319,-0.9319,-1.0069,-1.038,-1.0361,-1.0331,-1.0248,-1.0183,-1.0503,-1.1156,-1.2164,0.0,0.0,0.0,0.0,0.0,0.0,0.0,0.0,0.0,0.0,0.0,0.0,-2.3813,-2.3902,-2.4226,-2.501,0.0,0.0,0.0,0.0,0.0,0.0,0.0,0.0,0.0,0.0,0.0,0.0,0.0,0.0,0.0,0.0,0.0,0.0,0.0,0.0,0.0,0.0,0.0,0.0,0.0,0.0,0.0,0.0,0.0,0.0,-2.7915,-2.7742,-2.7582,-2.7258,-2.7036,-2.6989,-2.6674,-2.6521,-2.6521,-2.631,-2.6543,-2.7173,-2.7707,-2.8323,-2.9069,-2.9798,-3.014,-3.0097,-2.9556,-2.9287,-2.9104,-2.8858,-2.8622,-2.8463,-2.8076,-2.7894,-2.7745,0.0,0.0,0.0,0.0,0.0,0.0,0.0,0.0,0.0,0.0,0.0,0.0,0.0,0.0,0.0,0.0,0.0,0.0,0.0,0.0,-1.0059,-1.0524,-1.0544,-1.0322,-0.9823,-0.9168,-0.8886,-0.9096,-0.8846,-0.8675,-0.8675,-0.9119,-0.9279,-0.9279,-1.003,-1.0332,-1.0332,-1.0579,-1.0605,-1.0503,-1.1056,-1.2516,-1.4564,-1.6833,0.0,0.0,0.0,0.0,0.0,0.0,0.0,0.0,0.0,0.0,-2.3432,-2.3324,-2.3653,-2.4243,-2.5137,0.0,0.0,0.0,0.0,0.0,0.0,0.0,0.0,0.0,0.0,0.0,0.0,0.0,0.0,0.0,0.0,0.0,0.0,0.0,0.0,0.0,0.0,0.0,0.0,0.0,0.0,0.0,0.0,0.0,0.0,-2.7642,-2.7474,-2.7149,-2.6825,-2.6657,-2.6657,-2.6364,-2.622,-2.622,-2.622,-2.6184,-2.6148,-2.6949,-2.7711,-2.8461,-2.9194,-2.954,-2.9496,-2.8904,-2.8448,-2.8076,-2.8122,-2.789,-2.7524,-2.7386,-2.7284,-2.7181,0.0,0.0,0.0,0.0,0.0,0.0,0.0,0.0,0.0,0.0,0.0,0.0,0.0,0.0,0.0,0.0,0.0,0.0,0.0,0.0,-1.0031,-1.0196,-1.0166,-1.0098,-0.9941,-0.9813,-0.9734,-0.9783,-0.9119,-0.8675,-0.8496,-0.9168,-0.9279,-0.8941,-0.9725,-1.024,-1.0545,-1.0465,-1.0615,-1.1046,-1.2865,-1.3891,-1.4719,-1.8531,-2.0352,0.0,0.0,0.0,0.0,0.0,0.0,0.0,-2.3792,-2.3834,-2.3795,-2.341,-2.3821,-2.4519,0.0,-2.5623,0.0,0.0,0.0,0.0,0.0,0.0,0.0,0.0,0.0,0.0,0.0,0.0,0.0,0.0,0.0,0.0,0.0,0.0,0.0,0.0,0.0,0.0,0.0,0.0,0.0,0.0,0.0,0.0,-2.7307,-2.7068,-2.6891,-2.6825,-2.6486,-2.6293,-2.6293,-2.6239,-2.622,0.0,-2.622,-2.599,-2.5701,-2.6805,-2.7728,-2.8505,-2.8891,-2.9028,-2.9028,-2.8463,-2.8174,-2.8076,-2.7725,-2.7437,-2.7233,-2.6721,-2.6457,-2.6283,0.0,0.0,0.0,0.0,0.0,0.0,0.0,0.0,0.0,0.0,0.0,0.0,0.0,0.0,0.0,0.0,0.0,0.0,0.0,0.0,0.0,-1.0049,-1.0677,-1.1002,-1.1023,-1.0946,-1.1265,-1.2006,-1.0182,0.0,0.0,0.0,0.0,-0.9079,0.0,-1.0346,-1.0531,-1.0839,-1.1602,-1.2719,-1.4046,-1.5683,-1.7569,-1.9863,-2.1367,-2.2382,-2.3474,0.0,0.0,0.0,0.0,0.0,0.0,0.0,-2.3862,-2.3868,-2.4314,-2.491,0.0,0.0,0.0,0.0,0.0,0.0,0.0,0.0,0.0,0.0,0.0,0.0,0.0,0.0,0.0,0.0,0.0,0.0,0.0,0.0,0.0,0.0,0.0,0.0,0.0,0.0,0.0,0.0,0.0,-2.7117,-2.6956,-2.6791,-2.664,-2.6452,-2.631,-2.622,-2.622,-2.622,-2.622,-2.622,-2.599,-2.561,-2.516,-2.6131,-2.6985,-2.7688,-2.7905,-2.8154,-2.8352,-2.7894,-2.7645,-2.7645,-2.7386,-2.7063,-2.6736,-2.6336,-2.596,-2.5563,0.0,0.0,0.0,0.0,0.0,0.0,0.0,0.0,0.0,0.0,0.0,0.0,0.0,0.0,0.0,0.0,0.0,0.0,0.0,0.0,0.0,-1.0694,-1.1572,-1.2192,-1.2456,-1.2096,-1.2659,-1.4201,0.0,0.0,0.0,0.0,0.0,-0.9901,0.0,-1.1606,-1.1619,-1.2272,-1.3461,-1.4973,-1.5634,-1.7773,-2.0677,-2.1121,-2.2305,-2.3725,-2.3831,-2.3732,-2.3606,-2.3753,0.0,0.0,0.0,0.0,-2.3934,-2.4342,-2.4875,-2.5409,0.0,0.0,0.0,0.0,0.0,0.0,0.0,0.0,0.0,0.0,0.0,0.0,0.0,0.0,0.0,0.0,0.0,0.0,0.0,0.0,0.0,0.0,0.0,0.0,0.0,0.0,0.0,0.0,0.0,-2.6908,-2.664,-2.6607,-2.6486,-2.6203,-2.622,-2.6168,-2.6168,-2.6096,-2.6043,-2.6007,-2.5481,-2.4989,-2.4608,-2.5103,-2.5784,-2.6486,-2.6765,-2.7149,-2.7614,-2.7312,-2.7181,-2.7181,-2.7063,-2.6683,-2.6176,-2.5837,-2.5453,-2.4894,0.0,0.0,0.0,0.0,0.0,0.0,0.0,0.0,0.0,0.0,0.0,0.0,0.0,0.0,0.0,0.0,0.0,0.0,-0.8448,0.0,0.0,-1.3569,-1.2549,-1.254,-1.3892,-1.2598,-1.2659,-1.4201,0.0,0.0,0.0,0.0,0.0,-1.2283,0.0,0.0,-1.6289,-1.6407,-1.6792,-1.7483,-1.9161,-2.018,-2.0859,-2.2588,-2.3456,-2.3774,-2.3682,-2.3616,-2.3571,-2.3435,-2.3342,0.0,0.0,0.0,-2.4528,-2.437,-2.517,-2.612,0.0,0.0,0.0,0.0,0.0,0.0,0.0,0.0,0.0,0.0,0.0,0.0,0.0,0.0,0.0,0.0,0.0,0.0,0.0,0.0,0.0,0.0,0.0,0.0,0.0,0.0,0.0,0.0,-2.6486,-2.6293,-2.6274,-2.6274,-2.6239,-2.622,-2.622,-2.6132,-2.6026,-2.5701,-2.546,-2.5307,-2.4486,-2.4131,-2.4147,-2.3814,-2.4176,-2.5209,-2.5986,-2.6352,-2.647,-2.6996,-2.713,-2.6989,-2.6457,-2.6136,-2.5825,-2.4738,-2.435,-2.4176,0.0,0.0,0.0,0.0,0.0,0.0,0.0,0.0,0.0,0.0,0.0,0.0,0.0,0.0,0.0,-0.9562,-0.9733,-0.9576,-0.8738,-0.9764,-1.081,-1.1642,-1.1808,-1.2629,-1.4169,-1.3432,-1.4242,0.0,0.0,0.0,0.0,-1.6779,-1.6016,0.0,0.0,0.0,0.0,0.0,-1.8257,-1.9434,-2.0299,-2.1261,-2.2253,-2.319,-2.3522,-2.3463,-2.3463,-2.3435,-2.3437,-2.3886,-2.3998,-2.4056,-2.4562,0.0,0.0,0.0,-2.6061,0.0,0.0,0.0,0.0,0.0,0.0,0.0,0.0,0.0,0.0,0.0,0.0,0.0,0.0,0.0,0.0,0.0,0.0,0.0,0.0,0.0,0.0,0.0,0.0,0.0,0.0,0.0,0.0,0.0,-2.6258,-2.622,-2.622,-2.6115,-2.6079,-2.6079,-2.5791,-2.5589,-2.5551,-2.5137,-2.4823,-2.4599,-2.4131,-2.3809,-2.3653,-2.3319,-2.3674,-2.4537,-2.5316,-2.5806,-2.6103,-2.6474,-2.6578,-2.6418,-2.5742,-2.5245,-2.4808,-2.4305,-2.3826,-2.3484,0.0,0.0,0.0,0.0,0.0,0.0,0.0,0.0,0.0,0.0,0.0,0.0,0.0,0.0,0.0,0.0,-0.989,-0.9959,-0.9427,-0.9724,-1.0349,-1.1369,-1.2115,-1.3387,-1.5322,-1.497,0.0,0.0,0.0,0.0,-1.8488,-1.9852,-1.9265,0.0,-1.8297,0.0,0.0,0.0,0.0,0.0,0.0,-2.2208,0.0,-2.3471,-2.336,-2.3283,-2.3596,-2.362,-2.3629,-2.4555,-2.4864,-2.4946,-2.5597,-2.5943,0.0,0.0,0.0,0.0,0.0,0.0,0.0,0.0,0.0,0.0,0.0,0.0,0.0,0.0,0.0,0.0,0.0,0.0,0.0,0.0,0.0,0.0,0.0,0.0,0.0,0.0,0.0,0.0,0.0,0.0,0.0,0.0,-2.6168,-2.6079,-2.6007,-2.5864,-2.5738,-2.5663,-2.5269,-2.502,-2.502,-2.4583,-2.4173,-2.3782,-2.3724,-2.3465,-2.3038,-2.2963,-2.312,-2.3598,-2.4553,-2.5179,-2.5539,-2.5795,-2.5837,-2.5728,-2.5063,-2.4509,-2.4073,-2.3897,-2.3543,-2.3078,0.0,0.0,0.0,0.0,0.0,0.0,0.0,0.0,0.0,0.0,0.0,0.0,-1.2014,-1.1234,-1.0132,-0.8523,-0.7595,-0.8052,-1.0281,-1.0456,-1.2173,-1.5974,-1.4832,0.0,-1.8491,-1.7615,0.0,0.0,0.0,0.0,-2.0555,-2.1406,-2.1759,-2.1693,-2.2722,-2.3247,-2.3369,0.0,0.0,0.0,0.0,0.0,0.0,0.0,0.0,0.0,0.0,-2.4417,-2.4406,-2.5331,-2.5681,-2.5722,-2.58,-2.6387,-2.6994,0.0,0.0,0.0,0.0,0.0,0.0,0.0,0.0,0.0,0.0,0.0,0.0,0.0,0.0,0.0,0.0,0.0,0.0,0.0,0.0,0.0,0.0,0.0,0.0,0.0,0.0,0.0,0.0,0.0,0.0,0.0,-2.6079,-2.5848,-2.546,-2.5307,-2.5075,-2.4664,-2.4664,-2.4567,-2.443,-2.4063,-2.3538,-2.2978,-2.3082,-2.2873,-2.236,-2.2314,-2.2109,-2.1815,-2.3526,-2.4212,-2.4261,-2.4955,-2.5175,-2.5007,-2.4408,-2.4118,-2.4002,-2.3365,-2.3138,-2.3078,0.0,0.0,0.0,0.0,0.0,0.0,0.0,0.0,0.0,0.0,0.0,0.0,0.0,-1.4563,-1.3629,-1.1749,-0.947,-0.9151,-1.1625,-1.2021,-1.3474,-1.644,-1.6048,-1.6717,-1.8818,-1.8164,0.0,0.0,0.0,-2.1034,-2.1481,-2.2167,-2.2491,-2.2614,-2.3282,-2.3611,-2.37,-2.3656,0.0,0.0,0.0,0.0,0.0,0.0,0.0,0.0,0.0,0.0,-2.496,-2.5948,-2.6428,-2.6734,-2.7279,-2.754,-2.7536,-2.7091,0.0,0.0,0.0,0.0,0.0,0.0,0.0,0.0,0.0,0.0,0.0,0.0,0.0,0.0,0.0,0.0,0.0,0.0,0.0,0.0,0.0,0.0,0.0,0.0,0.0,0.0,0.0,0.0,0.0,0.0,0.0,-2.5059,-2.4902,-2.4768,-2.4608,-2.4486,-2.4214,-2.3909,-2.3566,-2.3407,-2.3246,-2.3037,-2.2737,-2.248,-2.2267,-2.1988,-2.1704,-2.152,-2.2136,-2.2807,-2.354,-2.3823,-2.4106,-2.435,-2.3708,-2.3484,-2.3424,-2.3198,-2.3078,-2.3065,0.0,0.0,0.0,0.0,0.0,0.0,0.0,0.0,0.0,0.0,0.0,0.0,0.0,0.0,-1.4556,-1.2121,-1.0164,-1.0101,-1.2543,-1.2939,-1.4387,-1.7256,-1.7262,-1.7935,-1.9481,-1.8989,0.0,0.0,0.0,0.0,0.0,-2.2505,-2.2747,-2.2833,-2.3223,-2.3476,0.0,0.0,0.0,-2.4033,0.0,0.0,-2.4235,0.0,0.0,0.0,0.0,0.0,0.0,-2.6539,-2.7032,-2.7343,-2.7903,-2.7876,0.0,0.0,0.0,0.0,0.0,0.0,0.0,0.0,0.0,0.0,0.0,0.0,0.0,0.0,0.0,0.0,0.0,0.0,0.0,0.0,0.0,0.0,0.0,0.0,0.0,0.0,0.0,0.0,0.0,0.0,0.0,0.0,0.0,0.0,-2.4323,-2.4199,-2.4074,-2.3964,-2.3696,-2.3422,-2.3082,-2.2933,-2.2843,-2.2797,-2.2282,-2.1941,-2.1704,-2.1417,-2.1126,-2.0858,-2.0849,-2.1616,-2.2924,-2.2893,-2.3251,-2.3721,-2.3245,-2.3078,-2.3078,-2.3078,-2.2944,-2.2689,0.0,0.0,0.0,0.0,0.0,0.0,0.0,0.0,0.0,0.0,0.0,0.0,0.0,0.0,0.0,-0.947,-0.9577,-1.0795,-1.3129,-1.3292,-1.4996,-1.8838,-1.8709,-1.9219,-2.0727,-2.0326,-2.0585,0.0,0.0,0.0,0.0,0.0,-2.2525,-2.2598,-2.2876,-2.3193,-2.3539,0.0,-2.4145,-2.4694,0.0,-2.5127,-2.5683,0.0,0.0,0.0,-2.6276,-2.6306,0.0,-2.7095,0.0,0.0,0.0,0.0,0.0,0.0,0.0,0.0,0.0,0.0,0.0,0.0,0.0,0.0,0.0,0.0,0.0,0.0,0.0,0.0,0.0,0.0,0.0,0.0,0.0,0.0,0.0,0.0,0.0,0.0,0.0,0.0,0.0,0.0,0.0,0.0,-2.4446,-2.4142,-2.3694,-2.358,-2.3392,-2.3082,-2.3037,-2.3037,-2.3037,-2.2526,-2.2235,-2.217,-2.1766,-2.1224,-2.061,-2.056,-2.0308,-1.9798,-1.9798,-2.0756,-2.2304,-2.2287,-2.2623,-2.3078,-2.3078,-2.3078,-2.3078,-2.3078,-2.2628,-2.2039,0.0,0.0,0.0,0.0,0.0,0.0,0.0,0.0,0.0,0.0,0.0,0.0,0.0,-1.7829,-1.6639,-1.4676,-1.4594,-1.556,-1.7657,-1.7806,-1.8957,-2.1556,-2.1554,-2.171,-2.2148,-2.1875,-2.1977,0.0,0.0,0.0,0.0,0.0,0.0,0.0,-2.2632,-2.3163,-2.3824,-2.4053,0.0,0.0,-2.5159,-2.5419,0.0,0.0,0.0,0.0,0.0,-2.684,-2.6715,0.0,-2.74,-2.7522,0.0,0.0,0.0,0.0,0.0,0.0,-2.6367,0.0,0.0,0.0,0.0,0.0,0.0,0.0,0.0,0.0,0.0,0.0,0.0,0.0,0.0,0.0,0.0,0.0,0.0,0.0,0.0,0.0,0.0,0.0,0.0,0.0,0.0,0.0,-2.3653,-2.3392,-2.3275,-2.2814,-2.2388,-2.2049,-2.2002,-2.2002,-2.2002,-2.1846,-2.1752,-2.1623,-2.114,-2.0795,-2.061,-2.0207,-1.9952,-1.9798,-1.9798,-2.0545,-2.1716,-2.1713,-2.2284,-2.3078,-2.3078,-2.2811,-2.2372,-2.2372,-2.1928,-2.1313,0.0,0.0,0.0,0.0,0.0,0.0,0.0,0.0,0.0,0.0,0.0,0.0,0.0,0.0,-1.7826,-1.6923,-1.6997,-1.7929,-1.9896,-1.9908,-2.0757,-2.2778,-2.2634,-2.2527,-2.2571,-2.2021,-2.201,-2.2569,0.0,0.0,0.0,0.0,0.0,0.0,0.0,0.0,0.0,0.0,0.0,0.0,-2.5808,0.0,0.0,-2.6743,-2.6649,0.0,0.0,0.0,-2.6859,-2.6973,-2.7117,0.0,0.0,0.0,0.0,0.0,0.0,0.0,0.0,0.0,0.0,0.0,0.0,0.0,-2.5832,-2.5422,-2.5029,0.0,0.0,0.0,0.0,0.0,0.0,0.0,0.0,0.0,0.0,0.0,0.0,0.0,0.0,0.0,0.0,-2.3653,-2.3348,-2.3172,-2.2873,-2.2646,-2.2402,-2.2109,-2.1813,-2.1609,-2.1609,-2.1609,-2.1609,-2.1321,-2.1126,-2.1042,-2.0497,-2.0258,-2.0258,-1.9952,-1.9798,-1.9811,-2.0062,-2.0503,-2.1099,-2.1321,-2.1913,-2.2689,-2.2689,-2.2249,-2.1678,-2.1604,-2.1164,-2.0484,0.0,0.0,0.0,0.0,0.0,0.0,0.0,0.0,0.0,0.0,0.0,0.0,0.0,0.0,-1.7874,-1.7905,-1.8226,-1.9139,-2.0779,-2.0631,-2.1231,-2.2937,-2.2456,-2.2237,-2.2354,-2.1452,-2.1368,-2.2214,0.0,0.0,0.0,0.0,0.0,0.0,0.0,0.0,0.0,0.0,0.0,-2.6694,-2.6568,-2.6899,0.0,0.0,-2.7051,-2.6808,-2.6989,-2.6842,-2.664,-2.6674,-2.6691,0.0,0.0,0.0,0.0,0.0,-2.6367,0.0,0.0,0.0,0.0,0.0,0.0,0.0,-2.5307,-2.4958,-2.4639,-2.4467,0.0,0.0,0.0,0.0,0.0,0.0,0.0,0.0,0.0,0.0,0.0,0.0,0.0,0.0,-2.3508,-2.3098,-2.2646,-2.2217,-2.217,-2.1874,-2.1321,-2.1417,-2.1465,-2.1417,-2.1417,-2.1417,-2.1417,-2.0795,-2.051,-2.051,-2.0055,-1.9798,-1.9798,-1.9798,-1.9747,-1.9733,-2.036,-2.0539,-2.0437,-2.0997,-2.1511,-2.199,-2.199,-2.1553,-2.0933,-2.0771,-2.0257,-1.9649,-1.7515,0.0,0.0,0.0,0.0,0.0,0.0,0.0,0.0,0.0,0.0,0.0,0.0,0.0,0.0,-2.2247,-2.2333,-2.246,-2.2607,-2.2375,-2.2312,-2.2527,-2.2186,-2.1998,-2.2084,-2.1972,-2.2034,-2.2214,0.0,0.0,0.0,0.0,0.0,0.0,0.0,0.0,0.0,0.0,0.0,-2.742,-2.733,0.0,-2.7244,-2.7117,-2.6923,-2.6725,-2.6758,-2.6742,-2.6674,-2.6691,-2.6775,-2.6842,0.0,0.0,0.0,-2.5924,0.0,0.0,0.0,0.0,0.0,0.0,0.0,0.0,-2.5733,-2.5454,-2.5201,0.0,0.0,0.0,0.0,0.0,0.0,0.0,0.0,0.0,0.0,0.0,0.0,0.0,0.0,0.0,-2.3023,-2.2663,-2.2374,-2.2282,-2.1955,-2.1431,-2.0795,-2.0795,-2.0597,-2.0144,-2.0144,-2.0144,-2.0144,-2.0003,-1.9952,-1.9952,-1.985,-1.9798,-1.9798,-1.9798,-1.9552,-1.917,-1.9661,-1.9856,-1.9831,-2.028,-2.0788,-2.1313,-2.1313,-2.0869,-2.0291,-2.0096,-1.9573,-1.8998,-1.8485,0.0,0.0,0.0,0.0,0.0,0.0,0.0,0.0,0.0,0.0,0.0,0.0,0.0,0.0,0.0,-2.3494,-2.3471,-2.336,-2.2977,-2.2721,-2.2651,-2.2198,-2.2015,-2.2106,-2.2168,-2.2225,-2.231,0.0,0.0,0.0,0.0,0.0,0.0,0.0,0.0,0.0,0.0,-2.728,-2.7526,-2.7355,0.0,-2.7103,-2.6892,-2.6725,-2.6657,-2.6759,-2.6825,-2.6859,-2.6859,-2.6892,0.0,0.0,-2.6725,-2.6537,0.0,-2.5994,-2.5828,0.0,0.0,0.0,-2.577,0.0,0.0,0.0,-2.4895,-2.4492,-2.4395,-2.4032,-2.3709,0.0,0.0,0.0,0.0,0.0,0.0,0.0,0.0,0.0,0.0,0.0,0.0,-2.2156,-2.1955,-2.1752,-2.1465,-2.0979,-2.0534,-2.0207,-2.0207,-2.0055,-1.9798,-1.9798,-1.9798,-1.9798,-1.9798,-1.9798,-1.9798,-1.9798,-1.9643,-1.9396,-1.9396,-1.9081,-1.8583,-1.9315,-1.9448,-1.913,-1.9816,-2.0006,-1.9977,-2.042,-2.0096,-1.9462,-1.9264,-1.8942,-1.8617,-1.9717,0.0,0.0,0.0,0.0,0.0,0.0,0.0,0.0,0.0,0.0,0.0,0.0,0.0,0.0,0.0,0.0,-2.3614,0.0,-2.337,-2.3206,-2.325,-2.2762,-2.2509,-2.2647,-2.2647,-2.2733,-2.283,0.0,0.0,0.0,0.0,0.0,0.0,0.0,0.0,0.0,0.0,0.0,-2.7386,0.0,-2.707,-2.6973,-2.6725,-2.664,-2.6674,-2.6859,-2.6942,-2.7007,-2.7007,-2.7007,-2.6975,-2.6942,-2.6742,0.0,0.0,0.0,0.0,0.0,0.0,0.0,0.0,0.0,-2.5068,0.0,0.0,0.0,-2.3334,-2.2949,0.0,0.0,0.0,0.0,0.0,0.0,0.0,0.0,0.0,0.0,0.0,0.0,0.0,-2.1417,-2.1321,-2.1028,-2.051,-2.0055,-1.9798,-1.9798,-1.9798,-1.9798,-1.9798,-1.9798,-1.9798,-1.9798,-1.9708,-1.9708,-1.9798,-1.9592,-1.9291,-1.8987,-1.8881,-1.8541,-1.8123,-1.8975,-1.901,-1.8566,-1.9233,-1.9264,-1.8808,-1.9518,-1.9386,-1.8741,-1.8549,-1.8482,-1.8482,-2.0671,-2.1085,0.0,0.0,0.0,0.0,0.0,0.0,0.0,0.0,0.0,0.0,0.0,0.0,0.0,0.0,0.0,0.0,-2.3946,0.0,-2.4504,-2.4591,-2.4282,-2.4177,-2.4239,-2.4299,-2.4343,-2.4343,0.0,0.0,0.0,0.0,0.0,0.0,-2.6283,0.0,0.0,0.0,-2.7227,0.0,-2.7038,-2.7006,0.0,-2.6775,-2.6759,-2.6893,-2.6959,-2.6975,-2.7007,0.0,-2.7007,-2.6942,0.0,-2.6486,-2.626,-2.5828,0.0,0.0,0.0,0.0,0.0,0.0,-2.5052,0.0,0.0,0.0,-2.3879,-2.3837,0.0,0.0,0.0,0.0,0.0,0.0,0.0,0.0,0.0,0.0,0.0,0.0,0.0,0.0,0.0,-2.0993,-2.0459,-1.9952,-1.985,-1.9798,-1.9798,-1.9798,-1.9798,-1.9798,-1.9798,-1.9798,-1.9798,-1.9344,-1.9344,-1.9798,-1.8792,-1.8536,-1.8987,-1.8429,-1.8113,-1.7937,-1.8295,-1.8352,-1.8148,-1.8537,-1.8617,-1.8549,-1.8607,-1.8617,-1.8549,-1.8482,-1.8482,-1.8482,-2.2029,-2.1864,0.0,0.0,0.0,0.0,0.0,0.0,0.0,0.0,0.0,0.0,0.0,0.0,0.0,0.0,0.0,-2.555,0.0,0.0,0.0,-2.6121,-2.5939,-2.5876,-2.5892,-2.6048,-2.6203,-2.6216,-2.6402,0.0,0.0,0.0,0.0,0.0,-2.673,0.0,-2.6891,0.0,-2.7021,0.0,0.0,0.0,0.0,-2.6825,-2.6892,-2.7023,-2.7055,-2.6973,-2.6875,0.0,-2.6742,0.0,0.0,0.0,0.0,0.0,0.0,0.0,0.0,0.0,0.0,0.0,0.0,0.0,-2.4032,0.0,-2.3216,0.0,0.0,0.0,0.0,0.0,0.0,0.0,-2.2231,0.0,0.0,0.0,0.0,0.0,0.0,0.0,0.0,0.0,0.0,0.0,-1.9798,-1.9798,-1.9798,-1.95,-1.9356,-1.9356,-1.9016,-1.878,-1.878,-1.859,-1.859,-1.8792,-1.8309,-1.8038,-1.7941,-1.7835,-1.7622,-1.7294,-1.7854,-1.8025,-1.7991,-1.8292,-1.8414,-1.8482,-1.8279,-1.8347,-1.8482,-1.8405,-1.8405,-1.8482,-2.3503,0.0,0.0,0.0,0.0,0.0,0.0,0.0,0.0,0.0,0.0,0.0,-2.5409,-2.6458,0.0,0.0,-2.6602,-2.7016,0.0,0.0,-2.6882,0.0,0.0,0.0,-2.7315,-2.7365,-2.7369,-2.74,0.0,0.0,0.0,0.0,0.0,0.0,0.0,-2.7004,-2.6657,0.0,-2.6775,-2.6892,-2.6606,-2.664,-2.6808,-2.6892,-2.7023,-2.7135,-2.7053,-2.6923,-2.6774,-2.6657,-2.6521,0.0,-2.626,0.0,0.0,0.0,0.0,0.0,-2.5394,0.0,0.0,0.0,0.0,0.0,0.0,0.0,0.0,0.0,0.0,0.0,0.0,0.0,0.0,0.0,0.0,-2.1492,0.0,0.0,0.0,0.0,0.0,0.0,0.0,0.0,0.0,-1.9592,-1.9604,-1.9488,-1.9319,-1.8963,-1.8762,-1.8762,-1.8321,-1.8093,-1.8093,-1.7929,-1.7929,-1.8093,-1.7776,-1.7435,-1.7168,-1.7312,-1.7197,-1.6961,-1.7554,-1.7901,-1.8031,-1.8208,-1.8337,-1.8347,-1.8144,-1.8066,-1.8124,-1.8269,-1.8405,-1.8482,-2.5044,-2.4448,0.0,0.0,0.0,0.0,0.0,0.0,0.0,0.0,0.0,0.0,0.0,0.0,0.0,0.0,0.0,-2.7947,-2.7947,0.0,-2.8459,0.0,0.0,-2.7558,0.0,-2.7861,-2.7526,-2.7404,0.0,0.0,0.0,0.0,0.0,0.0,0.0,-2.6624,-2.633,-2.6468,-2.6554,-2.6606,-2.6606,-2.6742,-2.7007,0.0,-2.7184,-2.725,-2.694,0.0,0.0,-2.6487,-2.6349,0.0,0.0,0.0,0.0,0.0,0.0,0.0,0.0,0.0,0.0,-2.3909,0.0,0.0,0.0,0.0,-2.2417,0.0,0.0,0.0,0.0,0.0,0.0,0.0,0.0,0.0,0.0,0.0,0.0,0.0,0.0,0.0,0.0,0.0,-1.9604,-1.904,-1.904,-1.8762,-1.8201,-1.8147,-1.8147,-1.8147,-1.8093,-1.8093,-1.8093,-1.7534,-1.7534,-1.8093,-1.6976,-1.6648,-1.7022,-1.6867,-1.6982,-1.7169,-1.7491,-1.7853,-1.8317,-1.8269,-1.8212,-1.8008,-1.8202,-1.7842,-1.7217,-1.7988,-1.8405,-1.8347,0.0,0.0,0.0,0.0,0.0,0.0,0.0,-2.5296,0.0,0.0,0.0,0.0,0.0,-2.9353,-2.9589,0.0,0.0,-2.9277,-2.9025,-2.8527,0.0,0.0,0.0,-2.8949,0.0,0.0,0.0,0.0,0.0,0.0,0.0,0.0,0.0,0.0,0.0,-2.6555,0.0,0.0,0.0,0.0,0.0,-2.6808,-2.707,0.0,0.0,-2.694,-2.6858,-2.659,0.0,-2.6189,-2.601,-2.5807,-2.5749,-2.5712,-2.5637,-2.5262,-2.5036,0.0,0.0,0.0,-2.4177,-2.3681,0.0,0.0,0.0,0.0,0.0,0.0,0.0,0.0,0.0,0.0,0.0,0.0,0.0,0.0,0.0,0.0,0.0,0.0,0.0,0.0,0.0,0.0,0.0,-1.8987,-1.8655,-1.8321,-1.8093,-1.7699,-1.7479,-1.7479,-1.7179,-1.6965,-1.6965,-1.6751,-1.674,-1.6965,-1.6591,-1.6576,-1.6867,-1.6972,-1.7242,-1.7481,-1.773,-1.7996,-1.8269,-1.8269,-1.8212,-1.794,-1.7647,-1.7285,-1.7001,-1.7285,-1.7139,-1.6853,-2.4779,0.0,0.0,0.0,0.0,0.0,0.0,0.0,0.0,0.0,-2.9313,0.0,-2.9744,0.0,-3.0806,0.0,-2.9764,-2.9889,-2.9625,-2.8798,0.0,-2.9386,-2.9021,0.0,0.0,0.0,0.0,0.0,0.0,-2.7436,0.0,0.0,0.0,0.0,0.0,-2.6329,-2.645,0.0,-2.6469,0.0,0.0,-2.6657,0.0,0.0,-2.6825,-2.6791,0.0,-2.6279,-2.599,-2.5881,-2.5749,-2.5616,-2.5616,-2.5486,-2.5301,-2.4997,-2.4664,-2.4379,-2.412,-2.3967,0.0,-2.3319,-2.3201,0.0,-2.2356,0.0,0.0,0.0,0.0,0.0,0.0,0.0,0.0,0.0,0.0,0.0,0.0,-1.95,0.0,0.0,0.0,0.0,0.0,0.0,-1.859,-1.8375,-1.7984,-1.771,0.0,0.0,-1.6899,-1.6899,-1.6591,-1.6384,-1.6384,-1.6384,-1.6374,-1.6316,-1.6471,-1.6581,-1.6628,-1.7119,-1.7422,-1.7635,-1.7947,-1.8212,-1.8269,-1.8056,-1.7852,-1.7579,-1.6932,-1.6437,-1.6088,-1.6376,-1.6158,-1.5807,0.0,0.0,0.0,0.0,-2.6476,0.0,0.0,0.0,-2.9299,0.0,-3.0248,-3.0298,-3.0012,-3.0335,-3.0179,-2.9211,-2.953,-2.9737,-2.9737,-2.8862,0.0,0.0,-2.7956,-2.7331,-2.8032,0.0,0.0,0.0,0.0,0.0,0.0,0.0,0.0,0.0,-2.5647,0.0,-2.6203,-2.6241,-2.6225,-2.6206,-2.626,-2.6295,-2.633,-2.6349,-2.6521,-2.6674,-2.6173,-2.5974,-2.5954,-2.5675,-2.5578,-2.5578,-2.5578,-2.5262,-2.4863,-2.4823,-2.4256,-2.3595,-2.3551,-2.3319,-2.3037,-2.2841,0.0,0.0,0.0,0.0,-2.1841,0.0,0.0,0.0,0.0,0.0,0.0,0.0,0.0,0.0,0.0,0.0,0.0,0.0,0.0,0.0,0.0,-1.8429,-1.782,-1.7257,-1.7202,0.0,0.0,0.0,-1.6384,-1.6384,-1.6384,-1.6384,-1.6374,-1.6374,-1.6316,-1.6155,-1.6583,-1.6638,-1.6406,-1.7229,-1.7625,-1.7665,-1.8091,-1.8269,-1.8202,-1.7619,-1.7207,-1.6793,-1.6219,-1.5376,-1.4673,-1.5384,-1.5471,-1.5409,-2.7923,-2.8148,-2.8092,0.0,-2.7866,-2.8266,0.0,0.0,0.0,0.0,-2.9797,-3.0404,-2.9762,-3.0099,-3.0176,-2.9642,-2.9193,0.0,0.0,0.0,0.0,-2.7486,-2.7259,-2.7107,-2.7063,-2.6927,-2.6624,-2.6265,0.0,0.0,-2.5635,0.0,0.0,0.0,0.0,0.0,-2.6241,-2.5937,-2.5901,-2.6046,-2.6046,-2.6189,0.0,0.0,-2.5974,-2.6189,-2.6046,-2.5881,-2.5675,-2.5616,-2.5355,-2.5075,-2.5075,-2.4815,-2.4369,-2.4063,-2.3767,-2.3508,-2.3187,-2.3068,-2.3037,-2.2902,-2.2947,-2.2933,0.0,0.0,0.0,0.0,0.0,0.0,0.0,0.0,0.0,0.0,0.0,0.0,0.0,0.0,0.0,-1.8147,0.0,0.0,-1.8309,-1.782,-1.7368,-1.7202,-1.6842,0.0,0.0,0.0,0.0,-1.6384,-1.6384,-1.6316,-1.6181,-1.6181,-1.6229,-1.6387,-1.6507,-1.6838,-1.7288,-1.7506,-1.7794,-1.8111,-1.8094,-1.792,-1.7619,-1.7276,-1.6655,-1.5816,-1.5675,-1.5188,-1.4561,-1.4553,-1.4768,-1.5275,-2.8131,0.0,0.0,-2.8079,0.0,0.0,-2.7782,-2.8696,0.0,-2.8575,-2.9541,0.0,-2.9177,-2.9495,-2.9497,-2.8734,-2.8394,0.0,-2.8011,0.0,0.0,-2.6758,-2.6791,-2.6742,-2.6623,-2.6623,0.0,-2.6106,0.0,0.0,-2.5237,0.0,0.0,0.0,0.0,-2.5307,0.0,-2.5696,-2.5696,-2.5824,-2.5824,0.0,0.0,-2.5712,-2.5675,-2.5807,-2.5589,-2.5567,-2.5616,-2.5616,-2.5301,-2.4902,-2.4902,-2.4477,-2.3952,-2.3681,-2.3436,-2.3231,-2.2978,-2.2992,-2.3082,-2.2947,-2.2992,-2.2947,-2.2324,-2.203,-2.1684,0.0,0.0,0.0,0.0,0.0,0.0,0.0,0.0,0.0,0.0,0.0,0.0,0.0,-1.7067,0.0,-1.7346,-1.7067,-1.6842,-1.6842,-1.6591,0.0,0.0,0.0,0.0,-1.6249,-1.6249,-1.6192,-1.6009,-1.6181,-1.6348,-1.6558,-1.6698,-1.7149,-1.7745,-1.7879,-1.7965,-1.8134,-1.7852,-1.7491,-1.7001,-1.6376,-1.5816,-1.533,-1.5188,-1.4982,-1.4848,-1.4633,-1.484,-1.5204,-2.764,0.0,0.0,0.0,0.0,0.0,0.0,-2.8112,0.0,-2.8723,0.0,-2.9358,-2.8464,-2.8689,-2.8469,-2.7359,0.0,-2.7444,-2.7181,-2.6858,-2.6691,-2.6758,-2.6504,-2.6382,-2.6485,-2.6485,-2.6399,0.0,0.0,0.0,0.0,0.0,0.0,0.0,0.0,0.0,0.0,-2.5524,-2.5616,-2.5616,-2.5616,-2.5616,-2.5578,-2.5524,-2.5524,-2.5486,-2.4997,-2.5185,-2.5578,-2.5486,-2.5185,-2.4823,-2.4784,-2.4214,-2.3566,-2.3566,-2.3231,-2.2947,-2.2888,-2.2992,-2.3082,-2.2947,-2.2947,-2.2737,-2.1718,-2.1417,-2.1028,-2.0105,-1.985,-1.9798,0.0,0.0,0.0,0.0,0.0,0.0,0.0,0.0,0.0,0.0,0.0,0.0,-1.6384,-1.6384,-1.6384,-1.6384,0.0,0.0,0.0,0.0,0.0,-1.6114,-1.6114,-1.6009,-1.5856,0.0,-1.6509,-1.6578,-1.7039,-1.747,-1.776,-1.8024,-1.7998,-1.7794,-1.7345,-1.6862,-1.6324,-1.533,-1.5054,-1.5204,-1.4848,-1.4919,-1.5275,-1.5275,-1.5275,-1.5355,0.0,0.0,0.0,0.0,0.0,-2.6688,-2.6307,-2.7885,-2.868,-2.7603,-2.8481,-2.8941,-2.8135,-2.8018,-2.7841,-2.7612,-2.7195,0.0,0.0,0.0,0.0,-2.6537,-2.652,-2.6434,-2.6347,-2.6434,-2.6241,0.0,0.0,0.0,0.0,0.0,0.0,0.0,0.0,0.0,-2.5084,-2.5448,0.0,-2.5616,-2.5616,-2.5616,-2.5578,-2.5169,-2.5091,-2.5107,-2.4574,-2.491,-2.5486,-2.4815,-2.4558,-2.4436,-2.4219,-2.3797,-2.3319,-2.3201,-2.3127,-2.3037,-2.2947,-2.2992,-2.3082,-2.2947,-2.2678,-2.2388,-2.2123,-2.1396,-2.0709,-2.051,-2.0105,-1.9798,-1.9798,0.0,0.0,0.0,0.0,0.0,0.0,0.0,0.0,0.0,0.0,-1.6384,0.0,-1.6384,0.0,0.0,0.0,0.0,0.0,0.0,0.0,0.0,-1.6114,0.0,0.0,0.0,-1.6608,-1.6306,-1.7288,-1.7517,-1.7064,-1.7267,-1.7157,-1.6811,-1.6237,-1.5675,-1.5188,-1.5196,-1.5196,-1.5196,-1.5133,-1.5355,-1.5655,-1.5655,-1.5655,-1.5726,0.0,0.0,0.0,0.0,0.0,0.0,0.0,-2.6933,-2.7521,-2.6776,-2.7459,-2.7799,-2.723,-2.7321,-2.7289,-2.6956,-2.6825,-2.6691,-2.6556,-2.6434,-2.6415,-2.6554,-2.652,-2.6503,-2.6504,-2.6572,-2.633,-2.5758,0.0,0.0,0.0,0.0,0.0,0.0,0.0,-2.4926,0.0,0.0,0.0,-2.5578,-2.5123,-2.5068,-2.5185,-2.4759,-2.4614,-2.4614,-2.412,-2.4369,-2.4886,-2.4492,-2.4204,-2.3979,-2.3824,-2.3494,-2.3068,-2.3037,-2.2992,-2.2992,-2.2947,-2.2752,-2.2615,-2.2555,-2.2203,-2.1752,-2.1431,-2.0957,-2.051,-2.0258,-2.0003,-1.9798,-1.9798,-1.9552,0.0,0.0,0.0,0.0,0.0,0.0,0.0,0.0,0.0,0.0,0.0,0.0,0.0,0.0,0.0,0.0,0.0,0.0,0.0,0.0,0.0,0.0,0.0,0.0,0.0,-1.6337,-1.691,-1.7092,-1.689,-1.6881,-1.6524,-1.6035,-1.5463,-1.5046,-1.4768,-1.5062,-1.5204,-1.5204,-1.5426,-1.5655,-1.5805,-1.5805,-1.5805,-1.5805,0.0,-2.6075,0.0,0.0,-2.5754,0.0,-2.5717,-2.6085,-2.6385,-2.64,-2.6758,-2.6923,-2.6607,-2.6891,-2.6875,-2.6364,-2.6521,-2.6538,-2.633,-2.6293,-2.638,-2.6606,-2.6572,-2.6606,-2.6674,-2.6624,-2.6383,0.0,0.0,0.0,0.0,0.0,0.0,0.0,0.0,0.0,0.0,0.0,-2.4974,-2.5256,-2.4704,-2.4694,-2.4939,-2.4656,-2.4548,-2.4506,-2.4014,-2.4116,-2.4435,-2.4435,-2.4066,-2.3638,-2.3566,-2.326,-2.2978,-2.2933,-2.2947,-2.2947,-2.2902,-2.2555,-2.2184,-2.2184,-2.1732,-2.114,-2.0709,-2.051,-2.0308,-1.9901,-1.9798,-1.9747,-1.9643,-1.9291,0.0,0.0,0.0,0.0,0.0,0.0,0.0,0.0,0.0,0.0,-1.6384,0.0,0.0,0.0,0.0,0.0,0.0,0.0,0.0,0.0,0.0,-1.4995,-1.5515,0.0,-1.5899,-1.6209,-1.6425,-1.6501,-1.6376,-1.6315,-1.5824,-1.518,-1.4903,-1.4697,-1.4776,-1.5062,-1.5275,-1.5355,-1.5655,-1.5805,-1.5805,-1.5805,-1.5805,-1.5805,0.0,0.0,0.0,0.0,0.0,0.0,-2.5937,-2.601,-2.6189,-2.659,-2.6956,-2.7181,-2.7117,-2.6891,-2.6725,-2.6657,-2.6469,-2.6382,-2.6468,-2.6554,-2.6589,-2.6708,-2.6691,-2.664,-2.6606,-2.6297,-2.6085,0.0,0.0,-2.5234,0.0,0.0,0.0,0.0,0.0,0.0,0.0,-2.4451,-2.4385,-2.4472,-2.4933,-2.5121,-2.5182,-2.5319,-2.5468,-2.5483,-2.4886,-2.4805,-2.4901,-2.479,-2.4325,-2.3739,-2.3407,-2.3319,-2.3231,-2.3127,-2.3082,-2.3037,-2.2947,-2.2555,-2.2184,-2.2184,-2.1444,-2.066,-2.061,-2.0207,-1.985,-1.9798,-1.9798,-1.9643,-1.9146,-1.904,-1.8655,0.0,0.0,0.0,0.0,0.0,-1.6384,-1.6384,0.0,0.0,0.0,-1.571,0.0,0.0,-1.5313,0.0,0.0,0.0,0.0,-1.4392,0.0,-1.479,-1.4702,-1.6011,-1.6211,-1.5265,-1.636,-1.6131,-1.4848,-1.4974,-1.476,-1.4201,-1.4201,-1.4561,-1.5133,-1.5204,-1.5426,-1.5726,-1.5797,-1.5805,-1.5805,-1.5805,-1.5805,-1.5805,0.0,0.0,0.0,0.0,0.0,0.0,0.0,-2.6722,-2.7018,-2.7651,-2.7075,-2.6758,-2.7213,-2.714,-2.7253,-2.7668,-2.7664,-2.7627,-2.7681,-2.7718,-2.7827,-2.7938,-2.7919,-2.7811,-2.7627,-2.7499,-2.718,0.0,0.0,0.0,0.0,0.0,0.0,0.0,0.0,-2.5574,-2.5531,-2.518,-2.518,-2.5402,-2.5107,-2.5105,-2.5364,-2.5136,-2.511,-2.511,-2.4946,-2.4863,-2.4883,-2.4834,-2.4644,-2.4423,-2.4268,-2.4206,-2.4221,-2.4203,-2.3889,-2.3544,-2.3496,-2.263,-2.1726,-2.1726,-2.0908,-2.0105,-2.0105,-1.9952,-1.9798,-1.9798,-1.954,-1.9239,-1.904,-1.8429,-1.7765,0.0,0.0,0.0,0.0,0.0,0.0,-1.6384,0.0,-1.6384,0.0,0.0,0.0,0.0,0.0,0.0,0.0,0.0,0.0,-1.4085,0.0,-1.4512,-1.4804,-1.5283,-1.5386,-1.5191,-1.5404,-1.5125,-1.4281,-1.4561,-1.4633,-1.4418,-1.4633,-1.4911,-1.5204,-1.5426,-1.5655,-1.5805,-1.5805,-1.5805,-1.5805,-1.5805,-1.5805,-1.5726,-2.553,0.0,-2.5707,0.0,-2.6339,-2.6623,-2.7366,-2.7557,-2.7815,-2.8307,-2.7479,-2.7048,-2.7582,-2.7632,-2.7848,-2.8362,-2.845,-2.851,-2.8565,-2.8586,-2.8661,-2.8848,-2.8678,0.0,-2.8301,-2.8066,-2.7688,-2.7232,-2.6848,0.0,0.0,0.0,0.0,0.0,-2.6153,-2.5986,-2.5986,-2.5508,-2.5476,-2.5801,-2.5282,-2.5292,-2.5583,-2.5427,-2.5415,-2.5415,-2.5444,-2.5429,-2.5415,-2.5415,-2.5315,-2.5171,-2.4867,-2.4673,-2.4511,-2.4589,-2.4162,-2.365,-2.365,-2.2692,-2.1668,-2.1668,-2.0949,-2.0263,-2.0087,-2.0049,-1.996,-1.9629,-1.9121,-1.8655,-1.8483,-1.7754,-1.7157,-1.7,0.0,0.0,0.0,0.0,0.0,0.0,-1.6259,-1.6202,-1.6202,-1.5294,0.0,0.0,0.0,0.0,0.0,0.0,0.0,0.0,0.0,0.0,0.0,-1.478,-1.4808,-1.4848,-1.4561,-1.4346,-1.4129,-1.4425,-1.4641,-1.4776,-1.5062,-1.5275,-1.5426,-1.5655,-1.5805,-1.5805,-1.5805,-1.5655,-1.5426,-1.5426,-1.5284,-1.5062,-2.599,-2.5974,-2.6294,-2.7131,-2.73,-2.7549,-2.8296,-2.8412,-2.8412,-2.8412,-2.8395,-2.8395,-2.8412,-2.8412,-2.8412,-2.8412,-2.845,-2.8565,-2.8678,-2.8753,-2.8864,0.0,0.0,-2.8318,-2.8318,-2.7458,-2.6993,-2.6993,0.0,0.0,-2.7703,0.0,-2.7101,-2.6168,-2.5694,-2.5508,-2.5461,-2.5014,-2.4863,-2.4999,-2.5531,-2.5778,-2.585,-2.6518,-2.6765,-2.6765,-2.6765,-2.6765,-2.6765,-2.6765,-2.6379,-2.5762,-2.5027,-2.4397,-2.3904,-2.3904,-2.3496,-2.2989,-2.2989,-2.2644,-2.2307,-2.2307,-2.1856,-2.133,-2.0832,-2.0706,-2.0395,-1.9255,-1.8536,-1.7929,-1.7313,-1.7202,-1.7045,-1.6488,0.0,0.0,0.0,0.0,0.0,-1.6384,-1.5972,-1.574,-1.574,-1.4469,0.0,0.0,0.0,0.0,0.0,0.0,0.0,-1.3562,-1.3212,0.0,-1.4194,-1.4874,-1.484,-1.4129,-1.4129,-1.4129,-1.4129,-1.4425,-1.4848,-1.5196,-1.5204,-1.5426,-1.5797,-1.5805,-1.5805,-1.5805,-1.5805,-1.5275,-1.4601,-1.4601,-1.4171,-1.3535,-2.6632,-2.6768,-2.7036,-2.7893,-2.8063,-2.8274,-2.8986,-2.9085,-2.9268,-2.9781,-2.9928,-2.9969,-2.9969,-2.952,-2.942,0.0,-3.0112,-3.0208,0.0,-2.9976,-2.9838,-2.9879,-2.9426,-2.9087,-2.887,-2.8561,-2.8352,-2.8169,0.0,0.0,0.0,-2.7725,-2.7263,-2.7097,-2.6583,-2.6396,-2.636,-2.6206,-2.617,-2.6199,-2.6387,-2.646,-2.6489,-2.6707,-2.6779,-2.6779,-2.6779,-2.6553,-2.6179,-2.6179,-2.577,-2.5245,-2.501,-2.4818,-2.4641,-2.4641,-2.4215,-2.3725,-2.3725,-2.3054,-2.2274,-2.2274,-2.1882,-2.1443,-2.1267,-2.0884,-2.0222,-1.9127,-1.8385,-1.7822,-1.7312,-1.6888,-1.6591,-1.6441,-1.6384,0.0,0.0,0.0,0.0,-1.6384,-1.5972,-1.5672,-1.5672,-1.4469,0.0,0.0,0.0,0.0,0.0,0.0,0.0,0.0,-1.422,0.0,-1.4194,-1.4608,-1.4561,-1.4129,-1.4129,-1.4346,-1.4848,-1.4991,-1.5213,-1.5576,-1.5576,-1.5655,-1.5805,-1.5805,-1.5505,-1.4974,-1.4974,-1.4537,-1.3818,-1.3818,-1.3673,-1.339,-2.7432,-2.7602,-2.7833,-2.8638,-2.8771,-2.9003,-2.9715,-2.9871,-3.0037,-3.0502,-3.0692,-3.079,-3.079,-3.0396,0.0,-3.074,-3.0757,-3.0716,-3.0675,-3.0309,-3.0123,-3.0123,-2.9661,-2.9303,-2.912,-2.892,0.0,-2.8573,-2.8574,-2.8367,-2.8061,-2.76,-2.7312,-2.724,-2.6922,-2.6779,-2.6779,-2.6779,-2.6779,-2.6779,-2.6779,-2.6779,-2.6779,-2.6779,-2.6779,-2.6779,-2.6553,-2.6233,-2.5893,-2.566,-2.5133,-2.4681,-2.4681,-2.4509,-2.4337,-2.4567,-2.4234,-2.3721,-2.3721,-2.317,-2.2623,-2.2623,-2.2172,-2.1629,-2.1131,-2.0404,-1.9586,-1.8859,-1.8206,-1.7717,-1.7419,-1.6948,-1.6632,-1.6632,-1.6487,-1.6384,-1.6384,0.0,0.0,0.0,0.0,0.0,0.0,-1.4457,-1.3908,0.0,0.0,0.0,0.0,0.0,0.0,-1.4053,-1.4959,0.0,-1.4393,-1.4672,-1.4633,-1.4274,-1.4418,-1.4768,-1.5204,-1.5355,-1.5576,-1.5805,-1.5505,-1.5355,-1.5355,-1.507,-1.4625,-1.4178,-1.4178,-1.3745,-1.3025,-1.3025,-1.2879,-1.2505,-2.8307,-2.8456,-2.8671,0.0,-2.9483,0.0,-3.041,-3.0609,-3.0692,-3.0692,-3.0831,-3.0912,-3.0871,-3.0935,-3.0935,-3.0831,0.0,0.0,0.0,-2.9924,-2.975,-2.975,-2.9303,-2.9044,-2.9044,-2.8621,-2.8363,-2.8348,-2.8238,-2.7815,-2.7049,-2.7327,-2.7188,-2.6779,-2.6779,-2.6779,-2.6779,-2.6779,-2.6779,-2.6779,-2.6779,-2.6779,-2.6779,-2.6727,-2.6727,-2.6674,-2.6056,-2.5839,-2.5715,-2.5133,-2.4509,-2.4002,-2.4002,-2.3603,-2.3185,-2.3839,-2.3603,-2.3078,-2.3078,-2.3078,-2.3005,-2.3005,-2.2555,-2.1735,-2.0527,-1.9449,-1.8692,-1.8588,-1.812,-1.7709,-1.774,-1.7317,-1.7028,-1.7028,-1.6746,-1.6477,-1.6477,0.0,0.0,0.0,0.0,0.0,0.0,-1.4442,-1.429,0.0,0.0,0.0,0.0,0.0,-1.4497,-1.4701,-1.5399,-1.5434,-1.4641,-1.4991,-1.4991,-1.4641,-1.4991,-1.5196,-1.5196,-1.5576,-1.5655,-1.5584,-1.4832,-1.453,-1.4458,-1.3745,-1.3462,-1.339,-1.339,-1.2952,-1.2231,-1.2231,-1.1706,-1.1111,0.0,0.0,-2.94,-3.0129,-3.0303,-3.0451,-3.0617,-3.079,-3.0871,-3.0871,-3.0935,-3.0838,-3.0477,-3.0576,-3.0477,-3.0113,-3.0309,-3.0309,-2.9924,-2.9528,-2.9257,-2.9257,-2.8826,-2.8573,-2.8573,-2.8137,-2.7925,-2.7845,-2.7494,-2.7327,-2.7378,-2.6967,-2.6736,-2.6779,-2.6779,-2.6779,-2.6779,-2.6779,-2.6779,-2.6779,-2.6779,-2.6779,-2.6727,-2.6286,-2.6111,-2.6056,-2.5425,-2.4921,-2.4523,-2.435,-2.3884,-2.3305,-2.3305,-2.3245,-2.3138,-2.3305,-2.3185,-2.3078,-2.3078,-2.275,-2.2359,-2.2359,-2.1803,-2.1152,-2.0339,-1.9973,-1.9521,-1.8607,-1.8343,-1.8123,-1.7792,-1.7585,-1.7503,-1.7503,-1.7481,-1.7409,-1.7409,-1.7032,0.0,0.0,-1.5845,-1.526,-1.5295,-1.4862,-1.4581,0.0,0.0,0.0,0.0,-1.507,-1.5206,-1.5511,-1.5384,-1.5275,-1.5062,-1.5125,-1.5125,-1.5062,-1.5125,-1.5054,-1.4752,-1.4832,-1.4617,-1.4042,-1.3818,-1.3745,-1.3745,-1.3608,-1.3171,-1.2592,-1.2592,-1.2077,-1.1409,-1.1409,-1.126,-1.1111,-2.9781,-2.9914,-3.0046,-3.0485,-3.0651,-3.0733,-3.0773,-3.0871,-3.0855,-3.0634,-3.0699,-3.0576,-3.014,-3.014,-3.0011,-2.9528,-2.9689,-2.9733,-2.9483,-2.9044,-2.8779,-2.8779,-2.8541,-2.8348,-2.8217,-2.8005,-2.7725,-2.7393,-2.7218,-2.7049,-2.7071,-2.6774,-2.6712,-2.6779,-2.6779,-2.6779,-2.6779,-2.6779,-2.6779,-2.6779,-2.6779,-2.6621,-2.634,-2.6002,-2.577,-2.5481,-2.4851,-2.4408,-2.4118,-2.378,-2.3424,-2.3078,-2.3078,-2.2884,-2.2616,-2.2616,-2.2616,-2.2616,-2.2616,-2.2175,-2.1553,-2.1227,-2.0921,-2.0484,-1.9781,-1.9649,-1.9454,-1.8874,-1.8692,-1.862,-1.8392,-1.8164,-1.803,-1.803,-1.7864,-1.7606,-1.7346,-1.7076,0.0,-1.6265,-1.5762,-1.5391,-1.5296,-1.5057,-1.5,-1.518,-1.5197,0.0,-1.5471,-1.5263,-1.5286,-1.5497,-1.5497,-1.5355,-1.5204,-1.5355,-1.5275,-1.4903,-1.4903,-1.4609,-1.4106,-1.4106,-1.389,-1.3462,-1.3098,-1.2952,-1.2952,-1.2579,-1.2144,-1.1781,-1.1781,-1.1484,-1.1111,-1.1111,-1.1111,-1.1111,-3.0435,-3.0568,-3.0609,-3.0692,-3.0733,-3.0773,-3.0814,-3.0895,-3.0757,-3.0309,-3.0293,-3.0225,-2.975,-2.9705,-2.9483,-2.9044,-2.8997,-2.8997,-2.8997,-2.8621,-2.8411,-2.8411,-2.8363,-2.8201,-2.8005,-2.7905,-2.759,-2.6893,-2.7063,-2.6959,-2.6578,-2.6712,-2.6779,-2.6779,-2.6779,-2.6779,-2.6779,-2.6674,-2.6674,-2.6674,-2.6553,-2.6218,-2.577,-2.566,-2.537,-2.4951,-2.4234,-2.4002,-2.4002,-2.3305,-2.3078,-2.3065,-2.3005,-2.2555,-2.2113,-2.199,-2.1854,-2.1791,-2.1916,-2.1491,-2.0805,-2.0107,-1.9977,-1.9781,-1.9198,-1.9075,-1.9075,-1.9075,-1.9075,-1.9075,-1.9075,-1.8744,-1.8485,-1.8485,-1.8111,-1.7612,-1.7149,0.0,-1.651,-1.5685,-1.5498,-1.5424,-1.5274,-1.53,-1.5437,-1.578,-1.5805,-1.5805,-1.5805,-1.5505,-1.5275,-1.5275,-1.5576,-1.5505,-1.5125,-1.5426,-1.5204,-1.4458,-1.4458,-1.4034,-1.3317,-1.3317,-1.3244,-1.3091,-1.2445,-1.215,-1.2077,-1.1409,-1.1111,-1.1111,-1.1111,-1.1111,-1.1111,-1.1111,-1.1111,-1.1111,-3.0797,-3.0831,-3.0814,-3.0871,-3.0912,-3.0838,-3.0435,-3.0518,-3.0393,-2.9924,-2.9881,-2.975,-2.9257,-2.9212,-2.8997,-2.8525,-2.8493,-2.8493,-2.8493,-2.8444,-2.8411,-2.8411,-2.8152,-2.8069,-2.802,-2.7539,-2.7063,-2.6563,-2.6765,-2.6832,-2.6765,-2.6779,-2.6779,-2.6779,-2.6779,-2.6779,-2.6779,-2.6286,-2.6056,-2.6002,-2.5467,-2.5245,-2.5077,-2.458,-2.435,-2.4176,-2.3484,-2.3245,-2.3245,-2.3125,-2.3078,-2.3005,-2.2433,-2.2175,-2.199,-2.1428,-2.0869,-2.0537,-2.1123,-2.0741,-2.0096,-1.9386,-1.9264,-1.9198,-1.9131,-1.9075,-1.9075,-1.9075,-1.9075,-1.9075,-1.9075,-1.9013,-1.8961,-1.8961,-1.8578,-1.8205,-1.8061,0.0,-1.656,-1.6423,-1.6026,-1.5713,-1.5703,-1.5711,-1.5737,-1.5797,-1.5805,-1.5805,-1.5805,-1.5726,-1.5726,-1.5726,-1.5426,-1.5125,-1.4681,-1.4752,-1.4394,-1.3673,-1.3673,-1.3244,-1.2519,-1.2519,-1.215,-1.1477,-1.1335,-1.126,-1.126,-1.1186,-1.1111,-1.1111,-1.1111,-1.1111,-1.1111,-1.1111,-1.1111,-1.1111,-3.0773,-3.0871,-3.0814,-3.0617,-3.0617,-3.0477,-3.0097,-3.0097,-2.9951,-2.9483,-2.9438,-2.9212,-2.8795,-2.8748,-2.8621,-2.8396,-2.8201,-2.8103,-2.8152,-2.8152,-2.8152,-2.8152,-2.7955,-2.774,-2.759,-2.7181,-2.687,-2.6645,-2.6765,-2.6779,-2.6779,-2.6779,-2.6621,-2.634,-2.634,-2.6111,-2.5811,-2.5536,-2.5425,-2.537,-2.5133,-2.4794,-2.4452,-2.4234,-2.3956,-2.3675,-2.3258,-2.3198,-2.3271,-2.3138,-2.2884,-2.2494,-2.2175,-2.1604,-2.0985,-2.0666,-2.0355,-2.0107,-2.0031,-1.9781,-1.9462,-1.9208,-1.9075,-1.9075,-1.9075,-1.9075,-1.9075,-1.9075,-1.9075,-1.9075,-1.9075,-1.9075,-1.8998,-1.8566,-1.8385,0.0,0.0,-1.7038,-1.6473,-1.6202,-1.5938,-1.5805,-1.5805,-1.5805,-1.5805,-1.5805,-1.5805,-1.5805,-1.5805,-1.5805,-1.5576,-1.5196,-1.4974,-1.4609,-1.4034,-1.4034,-1.36,-1.2879,-1.2879,-1.2445,-1.1632,-1.1632,-1.1484,-1.1111,-1.1111,-1.1111,-1.1111,-1.1111,-1.1111,-1.1111,-1.1111,-1.1111,-1.1111,-1.1111,-1.1111,-1.1111,-3.0651,-3.0716,-3.0675,-3.0267,-3.0166,-3.0054,-2.9705,-2.9617,-2.9483,-2.8997,-2.8967,-2.8779,-2.8444,-2.8314,-2.825,-2.825,-2.789,-2.769,-2.7855,-2.7806,-2.7806,-2.7905,-2.7625,-2.7372,-2.713,-2.6884,-2.6779,-2.6779,-2.6779,-2.6779,-2.6779,-2.6674,-2.634,-2.5893,-2.577,-2.5425,-2.5007,-2.4851,-2.4794,-2.4794,-2.461,-2.4279,-2.3897,-2.3897,-2.3662,-2.333,-2.3138,-2.3198,-2.3271,-2.2944,-2.2555,-2.2039,-2.1729,-2.0921,-2.0096,-1.9911,-1.9846,-1.9781,-1.9264,-1.9075,-1.9075,-1.9075,-1.9075,-1.9075,-1.9075,-1.9075,-1.9075,-1.9075,-1.9075,-1.9075,-1.9116,-1.8952,-1.8731,-1.8299,0.0,0.0,0.0,-1.6648,-1.6272,-1.5867,-1.5805,-1.5805,-1.5805,-1.5805,-1.5805,-1.5805,-1.5805,-1.5805,-1.5805,-1.5647,-1.5062,-1.4099,-1.425,-1.3962,-1.3244,-1.3244,-1.2806,-1.2003,-1.2003,-1.1706,-1.1111,-1.1111,-1.1111,-1.1111,-1.1111,-1.1111,-1.1111,-1.1111,-1.1111,-1.1111,-1.1111,-1.1111,-1.1111,-1.1111,-1.1111,-1.1111,-3.0393,-3.0435,-3.0393,-2.9924,-2.9837,-2.9661,-2.9212,-2.9166,-2.8997,-2.8525,-2.8444,-2.8444,-2.8396,-2.8054,-2.784,-2.784,-2.7408,-2.724,-2.7452,-2.7218,-2.7269,-2.7625,-2.7372,-2.7078,-2.6846,-2.6779,-2.6779,-2.6779,-2.6779,-2.6779,-2.6779,-2.6233,-2.5948,-2.5893,-2.5314,-2.5063,-2.4951,-2.4408,-2.4176,-2.4118,-2.3484,-2.3185,-2.3185,-2.3185,-2.3138,-2.3138,-2.3138,-2.3138,-2.3005,-2.2372,-2.2163,-2.1854,-2.0666,-2.0161,-1.9977,-1.933,-1.9198,-1.9131,-1.9131,-1.9075,-1.9075,-1.9075,-1.9075,-1.9075,-1.9075,-1.9075,-1.9075,-1.9075,-1.9075,-1.9106,-1.9116,-1.8522,-1.8299,-1.895,0.0,0.0,-1.7316,-1.6483,-1.5867,-1.5805,-1.5805,-1.5805,-1.5805,-1.5805,-1.5805,-1.5805,-1.5805,-1.5805,-1.5805,-1.5054,-1.4027,-1.2519,-1.3171,-1.3171,-1.2372,-1.2372,-1.2003,-1.1186,-1.1186,-1.1186,-1.1111,-1.1111,-1.1111,-1.1111,-1.1111,-1.1111,-1.1111,-1.1111,-1.1111,-1.1111,-1.1111,-1.1111,-1.1111,-1.1111,-1.1111,-1.1111,-2.9865,-2.9908,-2.9924,-2.9438,-2.9348,-2.9227,-2.8748,-2.8653,-2.8621,-2.8396,-2.8201,-2.8054,-2.8152,-2.7675,-2.7408,-2.7539,-2.7049,-2.6774,-2.6959,-2.6698,-2.675,-2.7078,-2.7041,-2.6884,-2.6779,-2.6779,-2.6779,-2.6779,-2.6779,-2.6621,-2.6233,-2.6002,-2.5495,-2.4751,-2.4523,-2.4221,-2.3813,-2.3603,-2.3484,-2.3484,-2.3198,-2.3078,-2.3078,-2.3078,-2.3078,-2.3078,-2.2616,-2.2494,-2.2372,-2.1678,-2.1175,-2.0794,-2.0291,-1.9846,-1.9462,-1.9198,-1.9075,-1.9075,-1.9075,-1.9075,-1.9075,-1.9075,-1.9075,-1.9075,-1.9075,-1.9075,-1.9096,-1.9122,-1.9075,-1.9116,-1.9066,-1.8272,-1.7501,-1.7125,0.0,-1.7,-1.6483,-1.6034,-1.5805,-1.5805,-1.5805,-1.5805,-1.5805,-1.5805,-1.5805,-1.5805,-1.5805,-1.5576,-1.5054,-1.389,-1.2879,-1.2298,-1.2144,-1.1848,-1.1558,-1.1558,-1.1409,-1.1111,-1.1111,-1.1111,-1.1111,-1.1111,-1.1111,-1.1111,-1.1111,-1.1111,-1.1111,-1.1111,-1.1111,-1.1111,-1.1111,-1.1111,-1.1111,-1.1111,-1.1111,-1.1111,-2.9377,-2.9438,-2.9438,-2.8951,-2.8873,-2.8795,-2.8444,-2.8299,-2.8201,-2.8201,-2.7825,-2.7625,-2.7806,-2.7306,-2.7034,-2.7181,-2.6683,-2.6418,-2.6525,-2.6433,-2.6486,-2.6779,-2.6779,-2.6779,-2.6779,-2.6779,-2.6727,-2.65,-2.65,-2.6218,-2.5605,-2.5439,-2.4865,-2.4073,-2.3897,-2.3543,-2.3078,-2.3078,-2.3078,-2.3078,-2.3078,-2.3078,-2.3078,-2.2884,-2.2811,-2.2689,-2.2051,-2.1803,-2.1678,-2.0996,-2.0484,-2.0042,-1.9846,-1.9452,-1.9075,-1.9075,-1.9075,-1.9075,-1.9075,-1.9075,-1.9075,-1.9075,-1.9075,-1.9085,-1.9127,-1.907,-1.9111,-1.9131,-1.9094,-1.8879,-1.8213,-1.7439,-1.6678,-1.5948,-1.6421,-1.6641,-1.5876,-1.5805,-1.5805,-1.5805,-1.5805,-1.5805,-1.5805,-1.5805,-1.5726,-1.5426,-1.5426,-1.4982,-1.3954,-1.2879,-1.215,-1.1929,-1.1409,-1.1111,-1.1111,-1.1111,-1.1111,-1.1111,-1.1111,-1.1111,-1.1111,-1.1111,-1.1111,-1.1111,-1.1111,-1.1111,-1.1111,-1.1111,-1.1111,-1.1111,-1.1111,-1.1111,-1.1111,-1.1111,-1.1111,-1.1111,-2.8997,-2.8997,-2.8951,-2.8493,-2.8411,-2.8411,-2.8411,-2.8039,-2.779,-2.779,-2.7393,-2.7188,-2.7386,-2.6959,-2.6683,-2.6683,-2.6312,-2.6111,-2.6111,-2.6365,-2.6578,-2.6779,-2.6779,-2.6779,-2.6779,-2.6779,-2.65,-2.5893,-2.5893,-2.5591,-2.4951,-2.4408,-2.4131,-2.406,-2.3424,-2.3078,-2.3078,-2.3078,-2.3078,-2.3078,-2.3078,-2.3078,-2.3005,-2.2359,-2.2101,-2.199,-2.1302,-2.106,-2.0996,-2.0291,-2.0107,-1.9977,-1.933,-1.9075,-1.9075,-1.9075,-1.9075,-1.9075,-1.9075,-1.9075,-1.9075,-1.9075,-1.9075,-1.9106,-1.9127,-1.909,-1.9063,-1.9079,-1.9109,-1.8419,-1.6227,-1.5817,-1.5791,-1.578,-1.5805,-1.5805,-1.5805,-1.5805,-1.5805,-1.5805,-1.5805,-1.5805,-1.5805,-1.5797,-1.5426,-1.4681,-1.4601,-1.3882,-1.2372,-1.2298,-1.1929,-1.1111,-1.1111,-1.1111,-1.1111,-1.1111,-1.1111,-1.1111,-1.1111,-1.1111,-1.1111,-1.1111,-1.1111,-1.1111,-1.1111,-1.1111,-1.1111,-1.1111,-1.1111,-1.1111,-1.1111,-1.1111,-1.1111,-1.1111,-1.1111,-1.1111,-2.8494,-2.8525,-2.8573,-2.8396,-2.8152,-2.7989,-2.7989,-2.761,-2.7291,-2.7291,-2.6916,-2.6721,-2.6893,-2.6472,-2.615,-2.6272,-2.6056,-2.6056,-2.6233,-2.6418,-2.6578,-2.6779,-2.6779,-2.6621,-2.6179,-2.6179,-2.5879,-2.5245,-2.5245,-2.4964,-2.435,-2.4176,-2.3839,-2.3365,-2.3198,-2.3078,-2.3078,-2.3078,-2.3078,-2.3078,-2.3078,-2.2811,-2.2372,-2.2175,-2.1803,-2.1313,-2.0613,-2.042,-2.0291,-1.9649,-1.9396,-1.933,-1.9131,-1.9075,-1.9075,-1.9075,-1.9075,-1.9075,-1.9075,-1.9075,-1.9075,-1.9075,-1.9075,-1.8942,-1.8482,-1.8347,-1.8066,-1.701,-1.7172,-1.7218,-1.6044,-1.5816,-1.5824,-1.5797,-1.5805,-1.5805,-1.5805,-1.5805,-1.5805,-1.5805,-1.5805,-1.5805,-1.5805,-1.5275,-1.4824,-1.4601,-1.36,-1.2806,-1.2298,-1.1781,-1.1335,-1.1111,-1.1111,-1.1111,-1.1111,-1.1111,-1.1111,-1.1111,-1.1111,-1.1111,-1.1111,-1.1111,-1.1111,-1.1111,-1.1111,-1.1111,-1.1111,-1.1111,-1.1111,-1.1111,-1.1111,-1.1111,-1.1111,-1.1111,-1.1111,-1.1111,-2.8122,-2.8088,-2.8088,-2.7925,-2.766,-2.7509,-2.7509,-2.7137,-2.6864,-2.6864,-2.651,-2.6312,-2.6472,-2.615,-2.6002,-2.6179,-2.6111,-2.6165,-2.6379,-2.6244,-2.6244,-2.6447,-2.6218,-2.6042,-2.5893,-2.566,-2.5258,-2.4624,-2.4624,-2.4337,-2.3721,-2.3721,-2.3484,-2.3078,-2.3078,-2.3078,-2.3078,-2.3078,-2.2944,-2.2689,-2.2689,-2.231,-2.1678,-2.1416,-2.1049,-2.0613,-1.9977,-1.9715,-1.9649,-1.9264,-1.9075,-1.9075,-1.9075,-1.9075,-1.9075,-1.9075,-1.9075,-1.9075,-1.9075,-1.9075,-1.9075,-1.9075,-1.8854,-1.8576,-1.8066,-1.7522,-1.6849,-1.5957,-1.6175,-1.6307,-1.5876,-1.5805,-1.5805,-1.5805,-1.5805,-1.5805,-1.5805,-1.5805,-1.5805,-1.5805,-1.5805,-1.5655,-1.5355,-1.4903,-1.4314,-1.3745,-1.2505,-1.1855,-1.1855,-1.1335,-1.1111,-1.1111,-1.1111,-1.1111,-1.1111,-1.1111,-1.1111,-1.1111,-1.1111,-1.1111,-1.1111,-1.1111,-1.1111,-1.1111,-1.1111,-1.1111,-1.1111,-1.1111,-1.1111,-1.1111,-1.1111,-1.1111,-1.1037,-1.0738,-1.0663,-1.0588,-2.789,-2.779,-2.7625,-2.7174,-2.7071,-2.7071,-2.7071,-2.6707,-2.6457,-2.6457,-2.615,-2.5948,-2.6111,-2.6111,-2.6165,-2.6286,-2.6326,-2.6326,-2.6404,-2.5906,-2.5687,-2.5825,-2.5245,-2.5189,-2.5729,-2.5189,-2.4624,-2.4015,-2.4015,-2.3721,-2.3078,-2.3078,-2.3078,-2.3078,-2.3078,-2.3078,-2.3078,-2.3065,-2.2689,-2.2101,-2.2039,-2.1616,-2.0933,-2.0355,-2.0042,-1.9911,-1.933,-1.9075,-1.9075,-1.9075,-1.9075,-1.9075,-1.9075,-1.9075,-1.9075,-1.9075,-1.9075,-1.9075,-1.9075,-1.9075,-1.8998,-1.8998,-1.8432,-1.7891,-1.7959,-1.6862,-1.587,-1.578,-1.5805,-1.5805,-1.5805,-1.5805,-1.5805,-1.5805,-1.5805,-1.5805,-1.5805,-1.5805,-1.5797,-1.5726,-1.5655,-1.5355,-1.4609,-1.4458,-1.381,-1.2298,-1.1484,-1.1111,-1.1111,-1.1111,-1.1111,-1.1111,-1.1111,-1.1111,-1.1111,-1.1111,-1.1111,-1.1111,-1.1111,-1.1111,-1.1111,-1.1111,-1.1111,-1.1111,-1.1111,-1.1111,-1.1111,-1.1111,-1.1111,-1.1111,-1.1111,-1.1037,-1.0887,-1.0143,-0.9841,-0.969,-2.784,-2.7509,-2.724,-2.7122,-2.6864,-2.6616,-2.6616,-2.6312,-2.6056,-2.6056,-2.5948,-2.5948,-2.6111,-2.6111,-2.6165,-2.6286,-2.6379,-2.6297,-2.5837,-2.5811,-2.5646,-2.5189,-2.4624,-2.435,-2.4465,-2.435,-2.3943,-2.3305,-2.3305,-2.3245,-2.3078,-2.3078,-2.3078,-2.3078,-2.3078,-2.3078,-2.3078,-2.2555,-2.2237,-2.2039,-2.1553,-2.0933,-2.0291,-2.0161,-1.9781,-1.933,-1.9131,-1.9075,-1.9075,-1.9075,-1.9075,-1.9075,-1.9075,-1.9075,-1.9075,-1.9075,-1.9075,-1.9075,-1.9075,-1.8798,-1.8472,-1.8472,-1.7706,-1.7019,-1.7401,-1.695,-1.6306,-1.5859,-1.5805,-1.5805,-1.5805,-1.5805,-1.5805,-1.5805,-1.5805,-1.5805,-1.5805,-1.5805,-1.5576,-1.4903,-1.4824,-1.4537,-1.3818,-1.3171,-1.2365,-1.1409,-1.1186,-1.1111,-1.1111,-1.1111,-1.1111,-1.1111,-1.1111,-1.1111,-1.1111,-1.1111,-1.1111,-1.1111,-1.1111,-1.1111,-1.1111,-1.1111,-1.1111,-1.1111,-1.1111,-1.1111,-1.1111,-1.1111,-1.1111,-1.1111,-1.1111,-1.0738,-1.0143,-0.9997,-0.9539,-0.8851,-2.7203,-2.6982,-2.6759,-2.6563,-2.6351,-2.619,-2.619,-2.6056,-2.5893,-2.5893,-2.5948,-2.6002,-2.6111,-2.6165,-2.6111,-2.5988,-2.615,-2.5974,-2.5342,-2.5133,-2.4921,-2.4567,-2.3943,-2.3603,-2.3603,-2.3603,-2.3424,-2.3078,-2.3078,-2.3078,-2.3078,-2.3078,-2.2944,-2.2616,-2.2616,-2.2445,-2.2125,-2.1741,-2.1428,-2.1101,-2.073,-2.0226,-1.9649,-1.9649,-1.9396,-1.9075,-1.9075,-1.9075,-1.9075,-1.9075,-1.9075,-1.9075,-1.9075,-1.9075,-1.9075,-1.9075,-1.9075,-1.9065,-1.8808,-1.8539,-1.8202,-1.793,-1.7226,-1.6673,-1.695,-1.6612,-1.614,-1.5867,-1.5805,-1.5805,-1.5805,-1.5805,-1.5805,-1.5805,-1.5805,-1.5805,-1.5805,-1.5805,-1.5417,-1.4506,-1.4522,-1.4171,-1.3025,-1.2218,-1.1558,-1.1111,-1.1111,-1.1111,-1.1111,-1.1111,-1.1111,-1.1111,-1.1111,-1.1111,-1.1111,-1.1111,-1.1111,-1.1111,-1.1111,-1.1111,-1.1111,-1.1111,-1.1111,-1.1111,-1.1111,-1.1111,-1.1037,-1.0663,-1.0513,-1.0513,-1.0137,-0.9685,-0.9311,-0.8932,-0.8246,-0.7484,-2.6563,-2.6457,-2.6297,-2.5948,-2.5893,-2.5893,-2.5893,-2.5893,-2.5893,-2.5948,-2.6002,-2.6056,-2.6002,-2.6056,-2.5934,-2.5508,-2.5646,-2.5481,-2.4908,-2.4408,-2.4073,-2.3943,-2.3424,-2.3078,-2.3078,-2.3078,-2.3078,-2.3078,-2.3078,-2.3078,-2.3078,-2.3005,-2.2616,-2.2101,-2.199,-2.1616,-2.106,-2.1008,-2.0613,-2.0107,-1.9977,-1.9584,-1.9075,-1.9075,-1.9075,-1.9075,-1.9075,-1.9075,-1.9075,-1.9075,-1.9075,-1.9065,-1.9008,-1.9008,-1.9065,-1.8865,-1.8865,-1.8865,-1.8259,-1.8066,-1.792,-1.7373,-1.689,-1.6473,-1.6473,-1.614,-1.5805,-1.5805,-1.5805,-1.5805,-1.5805,-1.5805,-1.5805,-1.5805,-1.5805,-1.5805,-1.5805,-1.5655,-1.5196,-1.4196,-1.4004,-1.352,-1.2224,-1.1484,-1.1111,-1.1111,-1.1111,-1.1111,-1.1111,-1.1111,-1.1111,-1.1111,-1.1111,-1.1111,-1.1111,-1.1111,-1.1111,-1.1111,-1.1111,-1.1111,-1.1111,-1.1111,-1.1111,-1.1111,-1.0962,-1.0887,-1.0812,-1.0067,-0.969,-0.9614,-0.8927,-0.8627,-0.8399,-0.7561,-0.6872,-0.6338,-2.651,-2.6204,-2.5948,-2.5893,-2.5893,-2.5893,-2.5893,-2.5893,-2.5948,-2.6056,-2.6111,-2.5988,-2.5687,-2.5356,-2.5133,-2.5063,-2.5133,-2.4851,-2.4234,-2.4118,-2.3826,-2.3258,-2.3138,-2.3078,-2.3078,-2.3078,-2.3078,-2.3078,-2.3078,-2.3078,-2.3078,-2.2494,-2.2175,-2.2039,-2.1491,-2.1187,-2.106,-2.0484,-2.0161,-2.0042,-1.9452,-1.9198,-1.9075,-1.9075,-1.9075,-1.9075,-1.9075,-1.9075,-1.9075,-1.9075,-1.9075,-1.9008,-1.8539,-1.8741,-1.8931,-1.792,-1.7988,-1.8269,-1.7647,-1.7166,-1.6811,-1.6742,-1.6272,-1.5938,-1.5938,-1.5867,-1.5805,-1.5805,-1.5805,-1.5805,-1.5805,-1.5805,-1.5805,-1.5805,-1.5805,-1.5805,-1.5805,-1.5204,-1.4466,-1.3665,-1.2425,-1.1477,-1.126,-1.1186,-1.1111,-1.1111,-1.1111,-1.1111,-1.1111,-1.1111,-1.1111,-1.1111,-1.1111,-1.1111,-1.1111,-1.1111,-1.1111,-1.1111,-1.1111,-1.1111,-1.1111,-1.1111,-1.1111,-1.1037,-1.0368,-1.0067,-0.9992,-0.9155,-0.8856,-0.8851,-0.878,-0.8246,-0.7557,-0.6721,-0.6416,-0.6338,-2.6204,-2.6002,-2.5893,-2.5893,-2.5893,-2.5948,-2.6002,-2.6002,-2.5948,-2.5756,-2.5756,-2.5646,-2.5119,-2.5063,-2.4851,-2.4509,-2.4509,-2.4234,-2.3603,-2.3543,-2.3424,-2.3138,-2.3078,-2.3078,-2.3078,-2.3078,-2.2944,-2.2555,-2.2555,-2.2555,-2.2555,-2.1865,-2.1365,-2.0985,-2.0677,-2.0355,-1.9977,-1.9649,-1.9518,-1.9528,-1.9198,-1.9075,-1.9075,-1.9075,-1.9075,-1.9075,-1.9075,-1.9075,-1.9075,-1.9075,-1.9075,-1.9075,-1.8798,-1.8942,-1.8931,-1.8134,-1.8066,-1.8134,-1.7235,-1.6742,-1.6533,-1.6202,-1.6008,-1.5805,-1.5805,-1.5805,-1.5805,-1.5805,-1.5805,-1.5805,-1.5805,-1.5805,-1.5805,-1.5805,-1.5426,-1.5125,-1.5125,-1.4474,-1.3673,-1.2952,-1.1774,-1.1111,-1.1111,-1.1111,-1.1111,-1.1111,-1.1111,-1.1111,-1.1111,-1.1111,-1.1111,-1.1111,-1.1111,-1.1111,-1.1111,-1.1111,-1.1111,-1.1111,-1.1111,-1.1111,-1.1111,-1.1111,-1.0887,-1.0443,-1.0067,-0.9614,-0.916,-0.8394,-0.8016,-0.8016,-0.7561,-0.7176,-0.6795,-0.6416,-0.6338,-0.6338]},{"header":{"parameterUnit":"m.s-1","parameterCategory":1,"la1":30.6,"la2":28.766,"lo1":-90.7593,"lo2":-88.6598,"dy":0.0162,"dx":0.0183,"nx":116,"ny":114,"refTime":"2023-08-15T06:00:00:Z","depth":0,"parameterNumber":3,"parameterNumberName":"V-component_of_WINDS"},"data":[0.0,0.0,0.0,0.0,0.0,0.0,0.0,0.0,0.0,0.0,0.0,0.0,0.0,0.0,0.0,0.0,0.0,0.0,0.0,0.0,0.0,0.0,0.0,0.0,0.0,0.0,0.0,0.0,0.0,0.0,0.0,0.0,0.0,0.0,0.0,0.0,0.0,0.0,0.0,0.0,0.0,0.0,0.0,0.0,0.0,0.0,0.0,0.0,0.0,0.0,0.0,0.0,0.0,0.0,0.0,0.0,0.0,0.0,0.0,0.0,0.0,0.0,0.0,0.0,0.0,0.0,0.0,0.0,0.0,0.0,0.0,0.0,0.0,0.0,0.0,0.0,0.0,0.0,0.0,0.0,0.0,0.0,0.0,0.0,0.0,0.0,0.0,0.0,0.0,0.0,0.0,0.0,0.0,0.0,0.0,0.0,0.0,0.0,0.0,0.0,0.0,0.0,0.0,0.0,0.0,0.0,0.0,0.0,0.0,0.0,0.0,0.0,0.0,0.0,0.0,0.0,0.0,0.0,0.0,0.0,0.0,0.0,0.0,0.0,0.0,0.0,0.0,0.0,0.0,0.0,0.0,0.0,0.0,0.0,0.0,0.0,0.0,0.0,0.0,0.0,0.0,0.0,0.0,0.0,0.0,0.0,0.0,0.0,0.0,0.0,0.0,0.0,0.0,0.0,0.0,0.0,0.0,0.0,0.0,0.0,0.0,0.0,0.0,0.0,0.0,0.0,0.0,0.0,0.0,0.0,0.0,0.0,0.0,0.0,0.0,0.0,0.0,0.0,0.0,0.0,0.0,0.0,0.0,0.0,0.0,0.0,0.0,0.0,0.0,0.0,0.0,0.0,0.0,0.0,0.0,0.0,0.0,0.0,0.0,0.0,0.0,0.0,0.0,0.0,0.0,0.0,0.0,0.0,0.0,0.0,0.0,0.0,0.0,0.0,0.0,0.0,0.0,0.0,0.0,0.0,0.0,0.0,0.0,0.0,0.0,0.0,0.0,0.0,0.0,0.0,0.0,0.0,0.0,0.0,0.0,0.0,0.0,0.0,0.0,0.0,0.0,0.0,0.0,0.0,0.0,0.0,0.0,0.0,0.0,0.0,0.0,0.0,0.0,0.0,0.0,0.0,0.0,0.0,0.0,0.0,0.0,0.0,0.0,0.0,0.0,0.0,0.0,0.0,0.0,0.0,0.0,0.0,0.0,0.0,0.0,0.0,0.0,0.0,0.0,0.0,0.0,0.0,0.0,0.0,0.0,0.0,0.0,0.0,0.0,0.0,0.0,0.0,0.0,0.0,0.0,0.0,0.0,0.0,0.0,0.0,0.0,0.0,0.0,0.0,0.0,0.0,0.0,0.0,0.0,0.0,0.0,0.0,0.0,0.0,0.0,0.0,0.0,0.0,0.0,0.0,0.0,0.0,0.0,0.0,0.0,0.0,0.0,0.0,0.0,0.0,0.0,0.0,0.0,0.0,0.0,0.0,0.0,0.0,0.0,0.0,0.0,0.0,0.0,0.0,0.0,0.0,0.0,0.0,0.0,0.0,0.0,0.0,0.0,0.0,0.0,0.0,0.0,0.0,0.0,0.0,0.0,0.0,0.0,0.0,0.0,0.0,0.0,0.0,0.0,0.0,0.0,0.0,0.0,0.0,0.0,0.0,0.0,0.0,0.0,0.0,0.0,0.0,0.0,0.0,0.0,0.0,0.0,0.0,0.0,0.0,0.0,0.0,0.0,0.0,0.0,0.0,0.0,0.0,0.0,0.0,0.0,0.0,0.0,0.0,0.0,0.0,0.0,0.0,0.0,0.0,0.0,0.0,0.0,0.0,0.0,0.0,0.0,0.0,0.0,0.0,0.0,0.0,0.0,0.0,0.0,0.0,0.0,0.0,0.0,0.0,0.0,0.0,0.0,0.0,0.0,0.0,0.0,0.0,0.0,0.0,0.0,0.0,0.0,0.0,0.0,0.0,0.0,0.0,0.0,0.0,0.0,0.0,0.0,0.0,0.0,0.0,0.0,0.0,0.0,0.0,0.0,0.0,0.0,0.0,0.0,0.0,0.0,0.0,0.0,0.0,0.0,0.0,0.0,0.0,0.0,0.0,0.0,0.0,0.0,0.0,0.0,0.0,0.0,0.0,0.0,0.0,0.0,0.0,0.0,0.0,0.0,0.0,0.0,0.0,0.0,0.0,0.0,0.0,0.0,0.0,0.0,0.0,0.0,0.0,0.0,0.0,0.0,0.0,0.0,0.0,0.0,0.0,0.0,0.0,0.0,0.0,0.0,0.0,0.0,0.0,0.0,0.0,0.0,0.0,0.0,0.0,0.0,0.0,0.0,0.0,0.0,0.0,0.0,0.0,0.0,0.0,0.0,0.0,0.0,0.0,0.0,0.0,0.0,0.0,0.0,0.0,0.0,0.0,0.0,0.0,0.0,0.0,0.0,0.0,0.0,0.0,0.0,0.0,0.0,0.0,0.0,0.0,0.0,0.0,0.0,0.0,0.0,0.0,0.0,0.0,0.0,0.0,0.0,0.0,0.0,0.0,0.0,0.0,0.0,0.0,0.0,0.0,0.0,0.0,0.0,0.0,0.0,0.0,0.0,0.0,0.0,0.0,0.0,0.0,0.0,0.0,0.0,0.0,0.0,0.0,0.0,0.0,0.0,0.0,0.0,0.0,0.0,0.0,0.0,0.0,0.0,0.0,0.0,0.0,0.0,0.0,0.0,0.0,0.0,0.0,0.0,0.0,0.0,0.0,0.0,0.0,0.0,0.0,0.0,0.0,0.0,0.0,0.0,0.0,0.0,0.0,0.0,0.0,0.0,0.0,0.0,0.0,0.0,0.0,0.0,0.0,0.0,0.0,0.0,0.0,0.0,0.0,0.0,0.0,0.0,0.0,0.0,0.0,0.0,0.0,0.0,0.0,0.0,0.0,0.0,0.0,0.0,0.0,0.0,0.0,0.0,0.0,0.0,0.0,0.0,0.0,0.0,0.0,0.0,0.0,0.0,0.0,0.0,0.0,0.0,0.0,0.0,0.0,0.0,0.0,0.0,0.0,0.0,0.0,0.0,0.0,0.0,0.0,0.0,0.0,0.0,0.0,0.0,0.0,0.0,0.0,0.0,0.0,0.0,0.0,0.0,0.0,0.0,0.0,0.0,0.0,0.0,0.0,0.0,0.0,0.0,0.0,0.0,0.0,0.0,0.0,0.0,0.0,0.0,0.0,0.0,0.0,0.0,0.0,0.0,0.0,0.0,0.0,0.0,0.0,0.0,0.0,0.0,0.0,0.0,0.0,0.0,0.0,0.0,0.0,0.0,0.0,0.0,0.0,0.0,0.0,0.0,0.0,0.0,0.0,0.0,0.0,0.0,0.0,0.0,0.0,0.0,0.0,0.0,0.0,0.0,0.0,0.0,0.0,0.0,0.0,0.0,0.0,0.0,0.0,0.0,0.0,0.0,0.0,0.0,0.0,0.0,0.0,0.0,0.0,0.0,0.0,0.0,0.0,0.0,0.0,0.0,0.0,0.0,0.0,0.0,0.0,0.0,0.0,0.0,0.0,0.0,0.0,0.0,0.0,0.0,0.0,0.0,0.0,0.0,0.0,0.0,0.0,0.0,0.0,0.0,0.0,0.0,0.0,0.0,0.0,0.0,0.0,0.0,0.0,0.0,0.0,0.0,0.0,0.0,0.0,0.0,0.0,0.0,0.0,0.0,0.0,0.0,0.0,0.0,0.0,0.0,0.0,0.0,0.0,0.0,0.0,0.0,0.0,0.0,0.0,0.0,0.0,0.0,0.0,0.0,0.0,0.0,0.0,0.0,0.0,0.0,0.0,0.0,0.0,0.0,0.0,0.0,0.0,0.0,0.0,0.0,0.0,0.0,0.0,0.0,0.0,0.0,0.0,0.0,0.0,0.0,0.0,0.0,0.0,0.0,0.0,0.0,0.0,0.0,0.0,0.0,0.0,0.0,0.0,0.0,0.0,0.0,0.0,0.0,0.0,0.0,0.0,0.0,0.0,0.0,0.0,0.0,0.0,0.0,0.0,0.0,0.0,0.0,0.0,0.0,0.0,0.0,0.0,0.0,0.0,0.0,0.0,0.0,0.0,0.0,0.0,0.0,0.0,0.0,0.0,0.0,0.0,0.0,0.0,0.0,0.0,0.0,0.0,0.0,0.0,0.0,0.0,0.0,0.0,0.0,0.0,0.0,0.0,0.0,0.0,0.0,0.0,0.0,0.0,0.0,0.0,0.0,0.0,0.0,0.0,0.0,0.0,0.0,0.0,0.0,0.0,0.0,0.0,0.0,0.0,0.0,0.0,0.0,0.0,0.0,0.0,0.0,0.0,0.0,0.0,0.0,0.0,0.0,0.0,0.0,0.0,0.0,0.0,0.0,0.0,0.0,0.0,0.0,0.0,0.0,0.0,0.0,0.0,0.0,0.0,0.0,0.0,0.0,0.0,0.0,0.0,0.0,0.0,0.0,0.0,0.0,0.0,0.0,0.0,0.0,0.0,0.0,0.0,0.0,0.0,0.0,0.0,0.0,0.0,0.0,0.0,0.0,0.0,0.0,0.0,0.0,0.0,0.0,0.0,0.0,0.0,0.0,0.0,0.0,0.0,0.0,0.0,0.0,0.0,0.0,0.0,0.0,0.0,0.0,0.0,0.0,0.0,0.0,0.0,0.0,0.0,0.0,0.0,0.0,0.0,0.0,0.0,0.0,0.0,0.0,0.0,0.0,0.0,0.0,0.0,0.0,0.0,0.0,0.0,0.0,0.0,0.0,0.0,0.0,0.0,0.0,0.0,0.0,0.0,0.0,0.0,0.0,0.0,0.0,0.0,0.0,0.0,0.0,0.0,0.0,0.0,0.0,0.0,0.0,0.0,0.0,0.0,0.0,0.0,0.0,0.0,0.0,0.0,0.0,0.0,0.0,0.0,0.0,0.0,0.0,0.0,0.0,0.0,0.0,0.0,0.0,0.0,0.0,0.0,0.0,0.0,0.0,0.0,0.0,0.0,0.0,0.0,0.0,0.0,0.0,0.0,0.0,0.0,0.0,0.0,0.0,0.0,0.0,0.0,0.0,0.0,0.0,0.0,0.0,0.0,0.0,0.0,0.0,0.0,0.0,0.0,0.0,0.0,0.0,0.0,0.0,0.0,0.0,0.0,0.0,0.0,0.0,0.0,0.0,0.0,0.0,0.0,0.0,0.0,0.0,0.0,0.0,0.0,0.0,0.0,0.0,0.0,0.0,0.0,0.0,0.0,0.0,0.0,0.0,0.0,0.0,0.0,0.0,0.0,0.0,0.0,0.0,0.0,0.0,0.0,0.0,0.0,0.0,0.0,0.0,0.0,0.0,0.0,0.0,0.0,0.0,0.0,0.0,0.0,0.0,0.0,0.0,0.0,0.0,0.0,0.0,0.0,0.0,0.0,0.0,0.0,0.0,0.0,0.0,0.0,0.0,0.0,0.0,0.0,0.0,0.0,0.0,0.0,0.0,0.0,0.0,0.0,0.0,0.0,0.0,0.0,0.0,0.0,0.0,0.0,0.0,0.0,0.0,0.0,0.0,0.0,0.0,0.0,0.0,0.0,0.0,0.0,0.0,0.0,0.0,0.0,0.0,0.0,0.0,0.0,0.0,0.0,0.0,0.0,0.0,0.0,0.0,0.0,0.0,0.0,0.0,0.0,0.0,0.0,0.0,0.0,0.0,0.0,0.0,0.0,0.0,0.0,0.0,0.0,0.0,0.0,0.0,0.0,0.0,0.0,0.0,0.0,0.0,0.0,0.0,0.0,0.0,0.0,0.0,0.0,0.0,0.0,0.0,0.0,0.0,0.0,0.0,0.0,0.0,0.0,0.0,0.0,0.0,0.0,0.0,0.0,0.0,0.0,0.0,0.0,0.0,0.0,0.0,0.0,0.0,0.0,0.0,0.0,0.0,0.0,0.0,0.0,0.0,0.0,0.0,0.0,0.0,0.0,0.0,0.0,0.0,0.0,0.0,0.0,0.0,0.0,0.0,0.0,0.0,0.0,0.0,0.0,0.0,0.0,0.0,0.0,0.0,0.0,0.0,0.0,0.0,0.0,0.0,0.0,-0.3948,0.0,0.0,0.0,0.0,0.0,0.0,0.0,0.0,0.0,0.0,0.0,0.0,0.0,0.0,0.0,0.0,0.0,0.0,0.0,0.0,0.0,0.0,0.0,0.0,0.0,0.0,0.0,0.0,0.0,0.0,0.0,0.0,0.0,0.0,0.0,0.0,0.0,0.0,0.0,0.0,0.0,0.0,0.0,0.0,0.0,0.0,0.0,0.0,0.0,0.0,0.0,0.0,0.0,0.0,0.0,0.0,0.0,0.0,0.0,0.0,0.0,0.0,0.0,0.0,0.0,0.0,0.0,0.0,0.0,0.0,0.0,0.0,0.0,0.0,0.0,0.0,0.0,0.0,0.0,0.0,0.0,0.0,0.0,0.0,0.0,0.0,0.0,0.0,0.0,0.0,0.0,0.0,0.0,0.0,0.0,0.0,0.0,0.0,0.0,0.0,0.0,0.0,0.0,0.0,0.0,0.0,0.0,0.0,0.0,0.0,0.0,0.0,0.0,0.0,0.0,0.0,-0.3696,0.0,0.0,0.0,0.0,0.0,0.0,0.0,0.0,0.0,0.0,0.0,0.0,0.0,0.0,0.0,0.0,0.0,0.0,0.0,0.0,0.0,0.0,0.0,0.0,0.0,0.0,0.0,0.0,0.0,0.0,0.0,0.0,0.0,0.0,0.0,0.0,0.0,0.0,0.0,0.0,0.0,0.0,0.0,0.0,0.0,0.0,0.0,0.0,0.0,0.0,0.0,0.0,0.0,0.0,0.0,0.0,0.0,0.0,0.0,0.0,0.0,0.0,0.0,0.0,0.0,0.0,0.0,0.0,0.0,0.0,0.0,0.0,0.0,0.0,0.0,0.0,0.0,0.0,0.0,0.0,0.0,0.0,0.0,0.0,0.0,0.0,0.0,0.0,0.0,0.0,0.0,0.0,0.0,0.0,0.0,0.0,0.0,0.0,0.0,0.0,0.0,0.0,0.0,0.0,0.0,0.0,0.0,0.0,-0.6362,-0.6046,-0.6647,-0.6312,-0.5542,-0.4563,-0.3796,-0.3469,-0.3469,-0.3583,0.0,0.0,0.0,0.0,0.0,0.0,0.0,0.0,0.0,0.0,0.0,0.0,0.0,0.0,0.0,0.0,0.0,0.0,0.0,0.0,0.0,0.0,0.0,0.0,0.0,0.0,0.0,0.0,0.0,0.0,0.0,0.0,0.0,0.0,0.0,0.0,0.0,0.0,0.0,0.0,-1.6595,-1.6909,0.0,0.0,0.0,0.0,0.0,0.0,0.0,0.0,0.0,0.0,0.0,0.0,0.0,0.0,0.0,0.0,0.0,0.0,0.0,0.0,0.0,0.0,0.0,0.0,0.0,0.0,0.0,0.0,0.0,0.0,0.0,0.0,0.0,0.0,0.0,0.0,0.0,0.0,0.0,0.0,0.0,0.0,0.0,0.0,-1.078,-1.1183,0.0,0.0,0.0,0.0,0.0,0.0,0.0,0.0,0.0,0.0,0.0,0.0,0.0,-0.9902,-0.9422,-0.8153,-0.7517,-0.7522,-0.6086,-0.5226,-0.5018,-0.5066,-0.4732,-0.4076,-0.3852,0.0,-0.3744,-0.3638,0.0,0.0,0.0,0.0,0.0,0.0,0.0,0.0,0.0,0.0,0.0,0.0,0.0,0.0,0.0,0.0,0.0,0.0,0.0,0.0,0.0,0.0,0.0,0.0,0.0,0.0,0.0,0.0,0.0,0.0,0.0,0.0,0.0,0.0,0.0,0.0,0.0,0.0,0.0,0.0,0.0,0.0,0.0,0.0,0.0,0.0,0.0,0.0,0.0,0.0,0.0,0.0,0.0,0.0,0.0,0.0,0.0,0.0,0.0,0.0,0.0,0.0,0.0,0.0,0.0,0.0,0.0,0.0,0.0,0.0,0.0,0.0,0.0,0.0,0.0,0.0,0.0,0.0,0.0,0.0,0.0,0.0,0.0,0.0,0.0,-1.195,-1.213,-1.2034,-1.228,-1.2618,0.0,0.0,0.0,0.0,0.0,0.0,0.0,0.0,0.0,-0.9828,-0.9926,-0.9375,-0.8178,-0.7667,-0.7399,-0.7281,-0.6377,-0.593,-0.5764,-0.5582,-0.5235,-0.4776,-0.4656,-0.4481,-0.4293,-0.3806,-0.3691,-0.391,0.0,0.0,0.0,0.0,-0.1226,-0.0391,0.0,0.0,0.0,0.0,0.0,0.0,0.0,0.0,0.0,0.0,0.0,0.0,0.0,0.0,0.0,0.0,0.0,0.0,0.0,0.0,0.0,0.0,0.0,0.0,0.0,0.0,0.0,0.0,0.0,0.0,0.0,0.0,0.0,0.0,0.0,0.0,0.0,0.0,0.0,0.0,0.0,0.0,0.0,0.0,0.0,0.0,0.0,0.0,0.0,0.0,0.0,0.0,0.0,0.0,0.0,0.0,0.0,0.0,0.0,0.0,0.0,0.0,0.0,0.0,0.0,0.0,0.0,0.0,0.0,0.0,0.0,0.0,0.0,0.0,0.0,0.0,0.0,-1.286,-1.286,-1.2706,-1.2472,-1.2559,0.0,0.0,0.0,0.0,0.0,0.0,-1.2115,-1.2013,-1.1326,-0.9978,-1.0075,-0.9361,-0.7619,-0.7752,-0.7666,-0.7364,-0.7012,-0.6777,-0.6602,-0.6353,-0.5936,-0.5404,-0.5279,-0.5036,-0.4655,-0.4094,-0.384,-0.3897,-0.3843,-0.384,-0.3664,-0.2113,-0.1143,-0.0343,0.0,0.0,0.0,0.0,0.0,0.0,0.0,0.0,0.0,0.0,0.0,0.0,0.0,0.0,0.0,0.0,0.0,0.0,0.0,0.0,0.0,0.0,0.0,0.0,0.0,0.0,0.0,0.0,0.0,0.0,0.0,0.0,0.0,0.0,0.0,0.0,0.0,0.0,0.0,0.0,0.0,0.0,0.0,0.0,0.0,0.0,0.0,0.0,0.0,0.0,0.0,0.0,0.0,0.0,0.0,0.0,0.0,0.0,0.0,0.0,0.0,0.0,0.0,0.0,0.0,0.0,0.0,0.0,0.0,0.0,0.0,0.0,0.0,0.0,0.0,0.0,0.0,0.0,0.0,-1.3072,-1.2977,0.0,0.0,0.0,0.0,-1.3396,-1.2861,-1.2431,-1.2223,-1.221,-1.1591,-1.0329,-1.0528,-1.0194,-0.9215,-0.9059,-0.8663,-0.8032,-0.7855,-0.732,-0.6602,-0.6713,-0.6237,-0.5404,-0.5404,-0.5097,-0.4668,-0.453,-0.4342,-0.4163,-0.4339,-0.4157,-0.3732,-0.2683,-0.1525,-0.0244,0.0,0.0,0.0,0.0,0.0,0.0,0.0,0.0,0.0,0.0,0.0,0.0,0.0,0.0,0.0,0.0,0.0,0.0,0.0,0.0,0.0,0.0,0.0,0.0,0.0,0.0,0.0,0.0,0.0,0.0,0.0,0.0,0.0,0.0,0.0,0.0,0.0,0.0,0.0,0.0,0.0,0.0,0.0,0.0,0.0,0.0,0.0,0.0,0.0,0.0,0.0,0.0,0.0,0.0,0.0,0.0,0.0,0.0,0.0,0.0,0.0,0.0,0.0,0.0,0.0,0.0,0.0,0.0,0.0,0.0,0.0,0.0,0.0,0.0,0.0,0.0,0.0,0.0,0.0,-1.2745,-1.2729,0.0,-1.295,-1.2889,-1.3103,-1.3643,-1.3057,-1.268,-1.2767,-1.2674,-1.2039,-1.0664,-1.0821,-1.023,-0.8866,-0.8971,-0.8811,-0.8384,-0.8258,-0.8007,-0.7497,-0.7297,-0.6922,-0.6357,-0.6165,-0.5717,-0.5138,-0.5071,-0.4643,-0.3997,-0.3992,-0.3811,-0.3444,-0.2332,-0.1533,-0.0797,0.0,0.0,0.0,0.0,0.0,0.0,0.0,0.0,0.0,0.0,0.0,0.0,0.0,0.0,0.0,0.0,0.0,0.0,0.0,0.0,0.0,0.0,0.0,0.0,0.0,0.0,0.0,0.0,0.0,0.0,0.0,0.0,0.0,0.0,0.0,0.0,0.0,0.0,0.0,0.0,0.0,0.0,-1.6718,0.0,0.0,0.0,0.0,0.0,0.0,0.0,0.0,0.0,0.0,0.0,0.0,0.0,0.0,0.0,0.0,0.0,0.0,0.0,0.0,0.0,0.0,0.0,0.0,0.0,0.0,0.0,0.0,0.0,0.0,0.0,0.0,0.0,0.0,0.0,-1.2622,-1.3126,-1.3122,-1.3128,-1.3328,-1.3157,-1.3323,-1.4019,-1.3239,-1.2919,-1.3465,-1.3295,-1.2766,-1.1755,-1.1814,-1.1156,-0.9754,-0.9743,-0.9454,-0.8829,-0.8705,-0.8382,-0.7987,-0.7657,-0.7265,-0.6881,-0.6552,-0.6024,-0.5428,-0.5428,-0.4854,-0.3995,-0.393,-0.3614,-0.3046,-0.2345,-0.1519,-0.057,0.0,0.0,0.0,0.0,0.0,0.0,0.0,0.0,0.0,0.0,0.0,0.0,0.0,0.0,0.0,0.0,0.0,0.0,0.0,0.0,0.0,0.0,0.0,0.0,0.0,0.0,0.0,0.0,0.0,0.0,0.0,0.0,0.0,0.0,0.0,0.0,0.0,0.0,0.0,0.0,0.0,0.0,-1.6718,0.0,0.0,0.0,0.0,0.0,0.0,0.0,0.0,0.0,0.0,0.0,0.0,0.0,0.0,0.0,0.0,0.0,0.0,0.0,0.0,0.0,0.0,0.0,0.0,0.0,0.0,0.0,0.0,0.0,0.0,0.0,0.0,0.0,-1.3724,-1.3947,-1.4114,-1.4364,-1.42,-1.4257,-1.4609,-1.3558,-1.3359,-1.4486,-1.3433,-1.3193,-1.4172,-1.395,-1.37,-1.3502,-1.3442,-1.2956,-1.1981,-1.1469,-1.0647,-0.9454,-0.9022,-0.8506,-0.7987,-0.7657,-0.7265,-0.6881,-0.6552,-0.602,-0.5428,-0.5428,-0.4964,-0.43,-0.43,-0.3627,-0.2686,-0.2686,-0.141,0.047,0.0,0.0,0.0,0.0,0.0,0.0,0.0,0.0,0.0,0.0,0.0,0.0,0.0,0.0,0.0,0.0,0.0,0.0,0.0,0.0,0.0,0.0,0.0,0.0,0.0,0.0,0.0,0.0,0.0,0.0,0.0,0.0,0.0,0.0,0.0,0.0,0.0,0.0,0.0,0.0,0.0,0.0,-1.6565,0.0,0.0,0.0,0.0,0.0,0.0,0.0,0.0,0.0,0.0,0.0,0.0,0.0,0.0,0.0,0.0,0.0,0.0,0.0,0.0,0.0,0.0,0.0,0.0,0.0,0.0,0.0,0.0,0.0,0.0,0.0,0.0,-1.3939,-1.409,-1.3508,-1.3157,-1.3406,-1.3965,-1.411,-1.3512,-1.4146,-1.4484,-1.4344,-1.4178,-1.43,-1.4529,-1.4181,-1.37,-1.313,-1.2887,-1.2266,-1.1156,-1.0647,-1.0021,-0.9332,-0.8835,-0.8511,-0.8317,-0.7787,-0.7461,-0.733,-0.6679,-0.6086,-0.5554,-0.5554,-0.5226,-0.4631,-0.4367,-0.3627,-0.2686,-0.2686,-0.141,0.0403,0.0,0.0,0.0,0.0,0.0,0.0,0.0,0.0,0.0,0.0,0.0,0.0,0.0,0.0,0.0,0.0,0.0,0.0,0.0,0.0,0.0,0.0,0.0,0.0,0.0,0.0,0.0,0.0,0.0,0.0,0.0,0.0,0.0,0.0,0.0,0.0,0.0,0.0,0.0,0.0,0.0,0.0,-1.6522,-1.6791,-1.6803,-1.6718,-1.6846,-1.6803,-1.6675,-1.6534,0.0,0.0,0.0,0.0,0.0,0.0,0.0,0.0,0.0,0.0,0.0,0.0,0.0,0.0,0.0,0.0,0.0,0.0,0.0,0.0,0.0,0.0,0.0,0.0,-1.4176,-1.4069,-1.4203,-1.3691,-1.3191,-1.2932,-1.3579,-1.3889,-1.3479,-1.3918,-1.4231,-1.4103,-1.4231,-1.4359,-1.4419,-1.4061,-1.364,-1.3025,-1.2834,-1.2151,-1.1031,-1.0584,-0.9958,-0.9274,-0.8835,-0.8511,-0.8252,-0.7722,-0.7396,-0.7199,-0.6613,-0.6083,-0.5617,-0.5617,-0.5289,0.0,0.0,0.0,0.0,0.0,-0.0201,0.0873,0.0,0.0,0.0,0.0,0.0,0.0,0.0,0.0,0.0,0.0,0.0,0.0,0.0,0.0,0.0,0.0,0.0,0.0,0.0,0.0,0.0,0.0,0.0,0.0,0.0,0.0,0.0,0.0,0.0,0.0,0.0,0.0,0.0,0.0,0.0,0.0,0.0,0.0,0.0,0.0,0.0,0.0,-1.6565,-1.7031,-1.7002,-1.6718,-1.7073,-1.696,-1.6675,-1.6522,0.0,0.0,0.0,0.0,0.0,0.0,0.0,0.0,0.0,0.0,0.0,0.0,0.0,0.0,0.0,0.0,0.0,0.0,0.0,0.0,0.0,0.0,0.0,0.0,-1.3937,-1.3892,-1.4085,-1.4068,-1.3766,-1.2855,-1.3212,-1.3545,-1.3821,-1.3321,-1.326,-1.3761,-1.3821,-1.389,-1.401,0.0,0.0,0.0,0.0,-1.2297,-1.124,-1.0843,-1.0212,-0.9274,-0.8894,-0.8441,-0.7987,-0.7591,-0.7269,-0.6881,-0.6548,-0.6083,-0.5617,-0.5617,-0.5219,-0.4628,-0.4359,-0.3284,-0.161,0.047,0.1412,0.1614,0.0,0.0,0.0,0.0,0.0,0.0,0.0,0.0,0.0,0.0,0.0,0.0,0.0,0.0,0.0,0.0,0.0,0.0,0.0,0.0,0.0,0.0,0.0,0.0,0.0,0.0,0.0,0.0,0.0,0.0,0.0,0.0,0.0,0.0,0.0,0.0,0.0,0.0,0.0,0.0,0.0,0.0,-1.6565,-1.7031,-1.6905,-1.6607,-1.7031,-1.6905,-1.6522,-1.6522,-1.6522,-1.6522,-1.6522,0.0,0.0,0.0,0.0,0.0,0.0,0.0,0.0,0.0,0.0,0.0,0.0,0.0,0.0,0.0,0.0,0.0,0.0,0.0,0.0,-1.4341,-1.4182,-1.3733,-1.3191,-1.3511,-1.3895,-1.3886,-1.3511,-1.3122,-1.2818,-1.3,-1.3009,-1.2642,-1.3329,-1.389,-1.401,-1.3199,-1.2704,-1.2581,-1.1958,-1.1337,-1.0647,-1.0212,-0.9773,-0.9274,0.0,0.0,-0.7987,-0.7335,-0.6946,-0.6881,-0.6412,-0.6083,-0.5822,-0.5683,-0.4885,-0.3687,-0.2748,-0.2213,-0.1677,0.0403,0.1344,0.1614,0.0,0.0,0.0,0.0,0.0,0.0,0.0,0.0,0.0,0.0,0.0,0.0,0.0,0.0,0.0,0.0,0.0,0.0,0.0,0.0,0.0,0.0,0.0,0.0,0.0,0.0,0.0,0.0,0.0,0.0,0.0,0.0,0.0,0.0,0.0,0.0,0.0,0.0,0.0,0.0,0.0,0.0,-1.6522,-1.6989,-1.6905,-1.6552,-1.6976,-1.6808,-1.6436,-1.6362,-1.6536,-1.6759,-1.6759,-1.6868,-1.7014,0.0,0.0,0.0,0.0,0.0,0.0,0.0,0.0,0.0,0.0,0.0,0.0,0.0,0.0,-1.4114,0.0,0.0,-1.4112,-1.424,-1.4061,-1.3761,-1.3329,-1.3199,-1.3078,-1.2879,-1.2879,-1.2573,-1.1841,-1.2581,-1.2757,-1.1896,-1.2765,-1.326,-1.2948,-1.2258,-1.1826,-1.164,-1.1142,-1.0584,-0.9894,-0.9646,-0.9332,-0.8894,-0.8312,-0.7922,-0.7722,-0.7138,-0.6815,-0.6618,-0.6346,-0.6083,-0.5892,-0.5422,-0.4619,-0.3549,-0.2278,-0.1476,-0.0939,0.0538,0.1344,0.1614,0.0,0.0,0.0,0.0,0.0,0.0,0.0,0.0,0.0,0.0,0.0,0.0,0.0,0.0,0.0,0.0,0.0,0.0,0.0,0.0,0.0,0.0,0.0,0.0,0.0,0.0,0.0,0.0,0.0,0.0,0.0,0.0,0.0,0.0,0.0,0.0,0.0,0.0,0.0,0.0,0.0,0.0,-1.6479,-1.6976,-1.6892,-1.6522,-1.6879,-1.6752,-1.6392,-1.6231,-1.6556,-1.6999,-1.6999,-1.7286,-1.7606,-1.7544,-1.7371,0.0,0.0,0.0,0.0,0.0,0.0,0.0,0.0,0.0,-1.5157,-1.4765,-1.4469,-1.43,-1.413,-1.424,-1.424,-1.407,-1.3761,-1.358,-1.358,-1.2826,-1.2074,-1.1392,-1.1772,-1.1772,-1.0982,-1.1903,-1.2143,-1.1212,-1.2081,-1.2389,-1.1764,-1.1267,-1.0892,-1.0647,-1.0332,-0.9831,-0.9075,-0.9017,-0.8829,-0.8317,-0.7922,-0.7661,-0.7396,-0.6942,-0.6613,-0.635,-0.6148,-0.5951,-0.5624,-0.4894,-0.4087,-0.3211,-0.1876,-0.0805,0.0067,0.0874,0.1344,0.1681,0.0,0.0,0.0,0.0,0.0,0.0,0.0,0.0,0.0,0.0,0.0,0.0,0.0,0.0,0.0,0.0,0.0,0.0,0.0,0.0,0.0,0.0,0.0,0.0,0.0,0.0,0.0,0.0,0.0,0.0,0.0,0.0,0.0,0.0,0.0,0.0,0.0,0.0,0.0,0.0,0.0,0.0,-1.6522,-1.6879,-1.6765,-1.6479,-1.6879,-1.6752,-1.6392,-1.6231,-1.6556,-1.6999,-1.6999,-1.7286,-1.763,-1.785,0.0,-1.7756,-1.7894,-1.7912,-1.7816,-1.7192,-1.7257,-1.719,0.0,0.0,-1.5874,-1.541,-1.4519,-1.4052,-1.4911,-1.395,-1.3285,-1.407,-1.3321,-1.2634,-1.2634,-1.2074,-1.1337,-1.0667,-1.0667,-1.0667,-1.0548,-1.0674,-1.073,-1.0604,-1.1156,-1.1454,-1.1337,-1.0577,-1.0085,-0.9894,-0.9332,-0.87,-0.8177,-0.8117,-0.7982,-0.7591,-0.7204,-0.7012,-0.6946,-0.6478,-0.628,-0.6214,-0.5815,-0.5355,-0.4894,-0.4217,-0.3078,-0.1742,-0.0938,0.0,0.0941,0.121,0.1412,0.1681,0.0,0.0,0.0,0.0,0.0,0.0,0.0,0.0,0.0,0.0,0.0,0.0,0.0,0.0,0.0,0.0,0.0,0.0,0.0,0.0,0.0,0.0,0.0,0.0,0.0,0.0,0.0,0.0,0.0,0.0,0.0,0.0,0.0,0.0,0.0,0.0,0.0,0.0,0.0,0.0,0.0,0.0,-1.6479,-1.6595,-1.6522,-1.6318,-1.6479,-1.6592,0.0,0.0,-1.6745,-1.7642,-1.7327,-1.7664,-1.8231,-1.8405,-1.8254,0.0,-1.7875,-1.7865,0.0,0.0,-1.7123,-1.6955,-1.6124,-1.57,-1.54,-1.4942,-1.4529,-1.4172,-1.424,-1.4001,-1.3821,0.0,-1.307,-1.2512,-1.2512,-1.1586,-1.0787,-1.0548,-1.0104,-0.9849,-0.9919,-1.0598,-1.0787,-0.9983,-1.0408,-1.0521,-1.0148,-0.9582,-0.9268,-0.921,-0.8635,-0.8247,-0.7987,-0.7787,-0.7657,-0.7521,-0.7073,-0.6881,-0.6745,-0.6346,-0.6017,-0.569,-0.4951,-0.4417,-0.3956,-0.2947,-0.1874,-0.0938,-0.0402,0.0403,0.121,0.1277,0.1547,0.2018,0.0,0.0,0.0,0.0,0.0,0.0,0.0,0.0,0.0,0.0,0.0,0.0,0.0,0.0,0.0,0.0,0.0,0.0,0.0,0.0,0.0,0.0,0.0,0.0,0.0,0.0,0.0,0.0,0.0,0.0,0.0,0.0,0.0,0.0,0.0,0.0,0.0,0.0,0.0,0.0,0.0,0.0,-1.6436,-1.6522,-1.6405,-1.62,-1.62,-1.6443,0.0,0.0,-1.7015,-1.8133,-1.7711,-1.8061,-1.8679,-1.8691,-1.8422,-1.803,-1.7767,0.0,0.0,-1.7078,-1.6899,-1.6729,-1.6171,-1.5642,-1.5167,-1.4824,-1.4715,-1.4478,-1.3992,-1.4172,-1.4172,-1.37,-1.2818,-1.2197,-1.2197,-1.1094,-1.0231,-1.0168,-0.9658,-0.9344,-0.935,-1.0275,-1.0465,-0.9542,-0.9779,-0.9709,-0.921,-0.8765,-0.8576,-0.8576,-0.8117,-0.7792,-0.7727,-0.7461,-0.7265,-0.7199,-0.6876,-0.6679,-0.6544,-0.6148,-0.5686,-0.516,-0.422,-0.3618,-0.3153,-0.1877,-0.0871,-0.0268,0.0201,0.0874,0.1547,0.1613,0.1882,0.2353,0.0,0.0,0.0,0.0,0.0,0.0,0.0,0.0,0.0,0.0,0.0,0.0,0.0,0.0,0.0,0.0,0.0,0.0,0.0,0.0,0.0,0.0,0.0,0.0,0.0,0.0,0.0,0.0,0.0,0.0,0.0,0.0,0.0,0.0,0.0,0.0,0.0,0.0,0.0,0.0,0.0,0.0,-1.6522,-1.6791,-1.6577,-1.62,-1.62,0.0,0.0,0.0,-1.7315,-1.8154,-1.8052,-1.837,0.0,-1.8476,-1.8259,0.0,0.0,0.0,-1.7545,-1.6976,-1.6694,-1.6467,-1.6029,-1.5798,-1.5614,-1.542,-1.5196,-1.497,-1.497,-1.4428,-1.401,-1.401,-1.2573,-1.1516,-1.1516,-1.0415,-0.9478,-0.9338,-0.9338,-0.921,0.0,-0.921,-0.9338,-0.9338,-0.9145,-0.8958,-0.8835,-0.8312,-0.8052,-0.8052,-0.7722,-0.733,-0.6946,-0.6946,-0.6749,-0.6416,-0.628,-0.6214,-0.621,-0.569,-0.516,-0.4558,-0.382,-0.322,-0.2619,-0.1139,-0.0201,0.0336,0.1008,0.1614,0.222,0.2351,0.235,0.2551,0.0,0.0,0.0,0.0,0.0,0.0,0.0,0.0,0.0,0.0,0.0,0.0,0.0,0.0,0.0,0.0,0.0,0.0,0.0,0.0,0.0,0.0,0.0,0.0,0.0,0.0,0.0,0.0,0.0,0.0,0.0,0.0,0.0,0.0,0.0,0.0,0.0,0.0,0.0,0.0,0.0,0.0,-1.6522,-1.6565,-1.6405,-1.62,0.0,0.0,0.0,0.0,0.0,0.0,-1.8025,0.0,0.0,-1.8259,-1.8139,-1.7975,0.0,0.0,-1.7267,-1.6513,-1.6285,-1.6171,-1.5972,-1.5798,-1.5672,-1.5604,-1.5323,-1.5088,-1.4843,-1.4043,-1.3571,-1.3821,-1.2151,-1.0968,-1.1329,-1.0218,-0.928,-0.9145,-0.9022,0.0,0.0,0.0,0.0,-0.9081,-0.8958,-0.8835,-0.877,-0.8312,-0.7987,-0.7987,-0.74,-0.7007,-0.6881,-0.6683,-0.6482,-0.628,-0.5888,-0.562,-0.5484,-0.5024,-0.4422,-0.3618,-0.2681,-0.1811,-0.1007,0.0201,0.0815,0.1106,0.1726,0.2165,0.2625,0.3119,0.347,0.3741,0.0,0.0,0.0,0.0,0.0,0.0,0.0,0.0,0.0,0.0,0.0,0.0,0.0,0.0,0.0,0.0,0.0,0.0,0.0,0.0,0.0,0.0,0.0,0.0,0.0,0.0,0.0,0.0,0.0,0.0,0.0,0.0,0.0,0.0,0.0,0.0,0.0,0.0,0.0,0.0,0.0,0.0,-1.6392,-1.6362,-1.6231,0.0,0.0,0.0,0.0,0.0,0.0,0.0,0.0,-1.8108,-1.8259,-1.8139,-1.8084,-1.7975,-1.7357,-1.7256,-1.7099,-1.6353,-1.6181,-1.6134,-1.5972,-1.5856,-1.5672,-1.5313,-1.5205,-1.5029,-1.441,-1.3674,-1.3312,-1.364,-1.2089,-1.0968,-1.1274,-1.0338,-0.946,-0.9017,-0.8829,-0.8835,0.0,0.0,0.0,-0.8894,-0.87,-0.8571,-0.8506,-0.7922,-0.7596,-0.7596,-0.7012,-0.6683,-0.6679,-0.6416,-0.6214,-0.5888,-0.5476,-0.5075,-0.4827,-0.4266,-0.3655,-0.2818,-0.1626,-0.0681,0.0,0.0966,0.154,0.1918,0.2271,0.2725,0.3276,0.3783,0.4429,0.4994,0.0,0.0,0.0,0.0,0.0,0.0,0.0,0.0,0.0,0.0,0.0,0.0,0.0,0.0,0.0,0.0,0.0,0.0,0.0,0.0,0.0,0.0,0.0,0.0,0.0,0.0,0.0,0.0,0.0,0.0,0.0,0.0,0.0,0.0,0.0,0.0,0.0,0.0,0.0,0.0,0.0,0.0,-1.62,-1.62,0.0,0.0,0.0,0.0,0.0,0.0,0.0,0.0,0.0,-1.7938,-1.8084,-1.8084,-1.8084,-1.7975,-1.7357,-1.719,-1.7032,-1.6545,-1.6384,-1.6316,-1.5972,-1.5914,-1.5614,-1.4706,-1.4902,-1.4843,0.0,0.0,-1.3191,-1.3381,-1.2258,-1.1329,-1.1267,-1.0647,-0.9837,0.0,0.0,0.0,0.0,0.0,0.0,-0.8705,0.0,-0.8107,-0.7987,-0.7269,-0.6881,-0.6881,-0.6552,-0.6288,-0.6226,-0.6168,-0.5911,-0.5386,-0.5111,-0.4694,-0.4188,-0.3391,-0.2761,-0.2227,-0.0763,0.007,0.0562,0.1298,0.2041,0.2772,0.2772,0.3358,0.4164,0.4377,0.5243,0.6108,0.0,0.0,0.0,0.0,0.0,0.0,0.0,0.0,0.0,0.0,0.0,0.0,0.0,0.0,0.0,0.0,0.0,0.0,0.0,0.0,0.0,0.0,0.0,0.0,0.0,0.0,0.0,0.0,0.0,0.0,0.0,0.0,0.0,0.0,0.0,0.0,0.0,0.0,0.0,0.0,0.0,0.0,-1.6436,0.0,0.0,0.0,0.0,0.0,0.0,0.0,0.0,0.0,0.0,-1.7779,-1.8084,-1.8084,-1.7986,-1.77,-1.7301,-1.7032,-1.6807,-1.6488,-1.6384,-1.6316,-1.6124,-1.5961,-1.573,-1.5294,-1.5137,-1.4911,0.0,0.0,0.0,-1.2696,-1.1017,0.0,-1.0148,-0.9588,0.0,-0.8641,0.0,-0.8447,-0.8182,-0.8052,0.0,0.0,-0.7717,-0.7652,-0.7652,-0.7138,-0.6881,-0.6881,-0.635,-0.6085,-0.6143,-0.5633,-0.5265,-0.4989,-0.466,-0.4011,-0.3134,-0.28,-0.1936,-0.0712,-0.0072,0.0793,0.173,0.2178,0.2725,0.3291,0.3738,0.4162,0.4614,0.4917,0.5901,0.6885,0.0,0.0,0.0,0.0,0.0,0.0,0.0,0.0,0.0,0.0,0.0,0.0,0.0,0.0,0.0,0.0,0.0,0.0,0.0,0.0,0.0,0.0,0.0,0.0,0.0,0.0,0.0,0.0,0.0,0.0,0.0,0.0,0.0,0.0,0.0,0.0,0.0,0.0,0.0,0.0,0.0,0.0,0.0,0.0,0.0,0.0,0.0,0.0,0.0,0.0,0.0,-1.744,-1.7468,-1.779,-1.8084,-1.8084,0.0,-1.7656,-1.7312,-1.6853,-1.641,-1.6144,-1.5846,-1.5594,-1.57,-1.5536,-1.5313,-1.4932,-1.4893,0.0,0.0,0.0,0.0,0.0,0.0,0.0,-0.9773,-0.946,-0.9081,0.0,-0.8382,0.0,-0.7987,-0.7727,-0.7466,0.0,-0.7269,-0.7199,-0.7003,-0.6679,-0.639,-0.6265,-0.5933,-0.5737,-0.5825,-0.5191,-0.4648,-0.4217,-0.3747,-0.301,-0.1962,-0.147,-0.0735,0.0218,0.0,0.1703,0.2445,0.2847,0.3413,0.3991,0.4373,0.4719,0.5168,0.5857,0.6777,0.7774,0.0,0.0,0.0,0.0,0.0,0.0,0.0,0.0,0.0,0.0,0.0,0.0,0.0,0.0,0.0,0.0,0.0,0.0,0.0,0.0,0.0,0.0,0.0,0.0,0.0,0.0,0.0,0.0,0.0,0.0,0.0,0.0,0.0,0.0,0.0,0.0,0.0,0.0,0.0,0.0,0.0,0.0,0.0,0.0,0.0,0.0,0.0,0.0,0.0,0.0,-1.6313,-1.7008,-1.7385,-1.7739,-1.8058,-1.8116,-1.792,-1.7656,-1.7368,-1.674,-1.6114,-1.5904,-1.5186,-1.4706,-1.5177,-1.4942,-1.4647,-1.4332,0.0,-1.4341,-1.3511,-1.2266,-1.1516,-1.202,0.0,-0.9767,-0.9646,-0.9652,-0.9332,-0.8511,-0.8182,-0.7987,-0.7857,-0.7269,-0.6815,-0.6749,-0.6749,-0.6613,-0.6354,-0.6043,-0.573,-0.5471,-0.5424,-0.5355,-0.5183,-0.4616,-0.3965,-0.3083,-0.2625,-0.1799,-0.0661,0.0,0.0525,0.1029,0.2107,0.0,0.2968,0.3418,0.4073,0.4776,0.4932,0.5323,0.5944,0.7011,0.7846,0.8761,0.0,0.0,0.0,0.0,0.0,0.0,0.0,0.0,0.0,0.0,-1.0773,-1.0444,0.0,0.0,0.0,0.0,0.0,0.0,0.0,0.0,0.0,0.0,0.0,0.0,0.0,0.0,0.0,0.0,0.0,0.0,0.0,0.0,0.0,0.0,0.0,0.0,0.0,0.0,0.0,0.0,0.0,0.0,0.0,0.0,0.0,0.0,0.0,0.0,0.0,0.0,-1.6516,-1.6717,-1.6997,-1.7463,-1.7903,-1.824,-1.8139,-1.7854,-1.7645,-1.7078,-1.6513,-1.6467,-1.5633,-1.4982,-1.5488,-1.5137,0.0,0.0,0.0,-1.3846,-1.3761,-1.2074,-1.0766,-1.1142,0.0,0.0,0.0,0.0,-0.8576,0.0,0.0,0.0,0.0,0.0,0.0,0.0,0.0,-0.5885,-0.5954,-0.5752,-0.5474,-0.5259,-0.5225,-0.4699,-0.3674,-0.329,-0.2626,-0.1698,-0.132,-0.0621,0.0309,0.0466,0.1165,0.2246,0.2568,0.0,0.3891,0.43,0.4776,0.5321,0.6167,0.6707,0.7011,0.7846,0.8841,0.969,0.0,0.0,0.0,0.0,0.0,0.0,0.0,0.0,-1.1376,-1.1307,-1.0787,-1.0528,-1.0832,-1.0951,0.0,0.0,0.0,0.0,0.0,0.0,0.0,0.0,0.0,0.0,0.0,0.0,0.0,0.0,0.0,0.0,0.0,0.0,0.0,0.0,0.0,0.0,0.0,0.0,0.0,0.0,0.0,0.0,0.0,0.0,0.0,0.0,0.0,0.0,0.0,0.0,-1.6303,-1.6502,-1.7015,-1.7473,-1.789,-1.827,-1.7975,-1.7523,-1.7357,-1.6616,-1.5874,-1.5874,-1.4855,-1.4145,-1.501,0.0,0.0,0.0,-1.4291,-1.3923,-1.389,0.0,0.0,0.0,0.0,0.0,0.0,0.0,0.0,0.0,0.0,0.0,0.0,0.0,0.0,0.0,0.0,-0.5355,-0.5359,-0.5161,-0.4979,-0.4811,-0.4397,-0.3919,-0.3233,-0.241,-0.1564,-0.0626,-0.0313,0.0392,0.1411,0.1646,0.2117,0.2826,0.3528,0.0,0.4462,0.4932,0.5631,0.6318,0.6861,0.7472,0.8232,0.9069,0.9674,1.0276,0.0,0.0,0.0,0.0,0.0,0.0,0.0,-1.1593,-1.1452,-1.1324,-1.1141,-1.1038,-1.1015,-1.1176,-1.1334,0.0,0.0,0.0,0.0,0.0,0.0,0.0,0.0,0.0,0.0,0.0,0.0,0.0,0.0,0.0,0.0,0.0,0.0,0.0,0.0,0.0,0.0,0.0,0.0,0.0,0.0,0.0,0.0,0.0,0.0,0.0,0.0,0.0,0.0,0.0,-1.6132,-1.6227,-1.7037,-1.7456,-1.7749,-1.8128,-1.7799,-1.7179,-1.6944,-1.6026,-1.5108,-1.5108,-1.3965,-1.313,-1.4103,-1.3674,0.0,0.0,-1.3983,-1.3631,-1.3571,0.0,0.0,0.0,0.0,0.0,0.0,0.0,0.0,0.0,0.0,0.0,0.0,0.0,0.0,0.0,0.0,0.0,-0.471,-0.448,-0.4276,-0.418,-0.3407,-0.2815,-0.2426,-0.1485,-0.0469,0.047,0.0862,0.1567,0.2508,0.2901,0.3215,0.3528,0.4387,0.0,0.0,0.5634,0.6475,0.7314,0.7698,0.8456,0.9448,1.0212,1.0657,1.087,0.0,0.0,0.0,0.0,0.0,0.0,0.0,-1.194,-1.1891,-1.1988,-1.1876,-1.1696,-1.1399,-1.0904,-1.074,0.0,0.0,0.0,0.0,0.0,0.0,0.0,0.0,0.0,0.0,0.0,0.0,0.0,0.0,0.0,0.0,0.0,0.0,0.0,0.0,0.0,0.0,0.0,0.0,0.0,0.0,0.0,0.0,0.0,0.0,0.0,0.0,0.0,0.0,0.0,0.0,-1.5977,-1.6636,-1.7063,-1.7302,-1.7668,0.0,0.0,-1.6539,-1.5671,-1.4914,-1.4796,-1.3528,-1.2512,-1.307,0.0,0.0,-1.2887,-1.2451,-1.202,-1.202,-1.1288,0.0,0.0,0.0,0.0,0.0,0.0,0.0,0.0,0.0,0.0,0.0,0.0,0.0,0.0,0.0,0.0,-0.4329,-0.3625,-0.3268,-0.3195,-0.2268,-0.1253,-0.0313,0.0,0.0783,0.2038,0.2431,0.2823,0.329,0.3759,0.4302,0.4849,0.4927,0.0,0.0,0.663,0.7238,0.7617,0.9301,1.0126,1.049,1.1254,1.1558,1.1632,0.0,0.0,0.0,0.0,0.0,0.0,-1.2276,-1.2251,-1.2128,-1.194,-1.1854,-1.1637,-1.1155,-1.1015,-1.1041,0.0,0.0,0.0,0.0,0.0,0.0,0.0,0.0,0.0,0.0,0.0,0.0,0.0,0.0,0.0,0.0,0.0,0.0,0.0,0.0,0.0,0.0,0.0,0.0,0.0,0.0,0.0,0.0,0.0,0.0,0.0,0.0,0.0,0.0,0.0,0.0,0.0,-1.6633,-1.6848,0.0,0.0,-1.7148,-1.6507,-1.611,-1.507,-1.4034,-1.3974,-1.3122,-1.2389,-1.2634,0.0,0.0,-1.195,-1.1764,-1.1516,-1.1516,-1.0703,-0.9945,0.0,0.0,0.0,0.0,0.0,0.0,0.0,0.0,0.0,0.0,0.0,0.0,0.0,0.0,0.0,-0.2409,-0.2737,-0.2676,-0.203,-0.1096,-0.0157,0.0782,0.1488,0.2273,0.3136,0.3446,0.3759,0.3992,0.4457,0.4771,0.5079,0.5928,0.0,0.0,0.7778,0.8613,0.9221,1.0045,1.0801,1.1471,1.1781,1.2003,1.2231,0.0,0.0,0.0,0.0,0.0,-1.2517,-1.2475,-1.2396,-1.2296,-1.2086,-1.194,-1.1681,-1.1224,-1.1339,-1.1429,-1.1384,0.0,0.0,0.0,0.0,0.0,0.0,0.0,0.0,0.0,0.0,0.0,-1.5013,-1.4904,-1.4856,0.0,0.0,0.0,0.0,0.0,0.0,0.0,0.0,0.0,0.0,0.0,0.0,0.0,0.0,0.0,0.0,0.0,0.0,0.0,0.0,0.0,0.0,0.0,0.0,0.0,0.0,-1.6546,-1.5813,-1.5361,-1.4255,-1.3147,-1.3078,-1.2397,-1.1834,0.0,0.0,0.0,-1.1149,-1.0829,-1.0508,-1.0375,-0.973,-0.9029,0.0,0.0,-0.7181,0.0,0.0,0.0,0.0,0.0,0.0,0.0,0.0,0.0,0.0,0.0,0.0,-0.0487,-0.1065,-0.1174,-0.0618,0.0312,0.1096,0.1877,0.2665,0.3372,0.3917,0.4226,0.446,0.4696,0.5082,0.547,0.5851,0.693,0.0,0.0,0.8988,0.9825,1.0432,1.0795,1.1471,1.215,1.215,1.2378,1.2746,0.0,0.0,0.0,0.0,0.0,0.0,0.0,-1.2435,-1.236,-1.2572,-1.2256,-1.1946,-1.1805,-1.1805,-1.1747,-1.1615,0.0,0.0,0.0,0.0,0.0,0.0,0.0,0.0,0.0,0.0,0.0,-1.5013,-1.5013,-1.5013,-1.5013,-1.5013,-1.4982,-1.4982,0.0,0.0,0.0,0.0,0.0,0.0,0.0,0.0,0.0,0.0,0.0,0.0,0.0,0.0,0.0,0.0,0.0,0.0,0.0,0.0,0.0,0.0,-1.5929,-1.5381,-1.43,-1.3155,-1.2243,-1.205,-1.1233,-1.0611,0.0,0.0,-0.9709,-1.0358,-0.9576,-0.8603,-0.8275,-0.8066,-0.7742,-0.7307,0.0,0.0,0.0,0.0,0.0,0.0,0.0,0.0,0.0,0.0,0.0,0.0,0.0,0.0,0.1321,0.1536,0.1505,0.1207,0.2013,0.2744,0.3368,0.3682,0.3917,0.4068,0.4691,0.5082,0.5321,0.5705,0.6553,0.0,0.0,0.0,0.0,1.0115,1.0634,1.0858,1.17,1.2224,1.2599,1.2599,1.2746,1.2966,0.0,0.0,0.0,0.0,0.0,0.0,0.0,-1.2553,-1.2475,-1.2392,-1.2271,-1.2086,-1.1768,-1.1725,-1.1696,-1.1541,0.0,0.0,0.0,0.0,0.0,0.0,0.0,0.0,0.0,0.0,-1.4968,-1.5255,-1.5255,-1.5359,-1.5551,-1.5551,-1.5551,-1.5551,-1.5389,0.0,0.0,0.0,0.0,0.0,0.0,0.0,0.0,0.0,0.0,0.0,0.0,0.0,0.0,0.0,0.0,0.0,0.0,0.0,0.0,0.0,0.0,0.0,-1.4241,-1.3295,-1.222,-1.1421,-1.0863,-1.0358,-0.9977,0.0,-0.8479,-0.8425,-0.7767,-0.7111,-0.6981,-0.6588,-0.626,-0.6137,-0.5811,0.0,0.0,0.0,0.0,0.0,0.0,0.0,0.0,0.0,0.0,0.0,0.0,0.0,0.2446,0.2697,0.272,0.2639,0.2892,0.3467,0.4307,0.4387,0.4698,0.5315,0.5547,0.5709,0.6022,0.6865,0.7399,0.0,0.0,0.0,0.0,1.1174,1.1626,1.1848,1.2224,1.2599,1.2826,1.2826,1.3258,1.3905,0.0,0.0,0.0,0.0,0.0,0.0,0.0,-1.263,-1.2491,-1.2506,-1.2287,-1.2081,-1.1961,-1.1833,-1.174,-1.1755,0.0,0.0,0.0,0.0,0.0,0.0,0.0,0.0,0.0,-1.4914,-1.5255,-1.5653,-1.5536,-1.5639,-1.5913,-1.5827,-1.5799,-1.5799,-1.5668,0.0,0.0,0.0,0.0,0.0,0.0,0.0,-1.6338,0.0,0.0,0.0,0.0,0.0,0.0,0.0,0.0,0.0,0.0,0.0,0.0,0.0,-1.5552,0.0,0.0,-1.2748,-1.1826,-1.0787,-1.0288,0.0,0.0,0.0,-0.7572,-0.7242,-0.6457,-0.5804,-0.5804,-0.5345,-0.4885,-0.4619,-0.4492,0.0,0.0,0.0,0.0,0.0,0.0,0.0,0.0,0.0,0.0,0.0,0.0,0.0,0.3692,0.375,0.393,0.4101,0.4033,0.4332,0.5092,0.5297,0.5631,0.6173,0.6553,0.6784,0.7022,0.7936,0.8537,0.0,0.0,0.0,0.0,1.1922,1.2305,1.2452,1.2599,1.3039,1.3404,1.3542,1.4114,1.4966,0.0,0.0,0.0,0.0,0.0,0.0,0.0,0.0,-1.2447,-1.2846,-1.2271,-1.1997,-1.2363,-1.206,-1.1933,-1.219,0.0,0.0,0.0,0.0,0.0,0.0,0.0,0.0,0.0,-1.4921,-1.5492,-1.6123,-1.5812,-1.5812,-1.6151,-1.5926,-1.5856,-1.5885,-1.5885,-1.5913,-1.597,-1.6011,-1.6163,-1.6355,-1.6382,-1.6316,0.0,0.0,0.0,0.0,0.0,0.0,0.0,0.0,0.0,0.0,0.0,0.0,0.0,0.0,0.0,0.0,0.0,0.0,0.0,0.0,0.0,0.0,0.0,0.0,0.0,-0.6567,-0.5526,-0.4683,-0.4683,-0.4154,-0.3491,-0.3023,0.0,0.0,0.0,0.0,0.0,0.0,0.0,0.0,0.0,0.0,0.0,0.0,0.0,0.0,0.4831,0.4761,0.4953,0.5497,0.5334,0.5399,0.5709,0.6311,0.6623,0.67,0.7621,0.8156,0.8232,0.9069,0.989,0.0,0.0,0.0,0.0,1.2526,1.2599,1.2673,1.2893,1.355,1.4338,1.4609,1.5305,1.621,0.0,0.0,0.0,0.0,0.0,0.0,0.0,0.0,0.0,0.0,-1.2522,-1.2359,-1.2399,-1.2323,-1.2241,0.0,0.0,0.0,0.0,0.0,0.0,0.0,0.0,0.0,0.0,-1.5613,-1.6047,-1.6394,-1.6108,-1.6219,-1.6633,-1.6382,-1.6355,-1.6554,-1.6554,-1.6554,-1.6501,-1.6474,-1.6554,-1.6659,-1.6463,-1.657,0.0,0.0,0.0,0.0,-1.9244,-1.9803,0.0,0.0,0.0,0.0,0.0,0.0,0.0,0.0,-1.8108,-1.7874,-1.6453,0.0,-1.2871,-0.9379,-0.8415,0.0,0.0,0.0,0.0,0.0,0.0,0.0,-0.3422,-0.2885,0.0,0.0,0.0,0.0,0.0,0.0,0.0,0.0,0.0,0.0,0.0,0.0,0.0,0.0,0.0,0.5163,0.5229,0.5355,0.5435,0.5603,0.6474,0.6581,0.593,0.6226,0.6746,0.7558,0.7934,0.8385,0.9069,1.004,1.0559,0.0,0.0,0.0,1.2526,1.2746,1.29,1.3119,1.3695,1.4266,1.4832,1.5446,1.6289,1.712,0.0,0.0,0.0,0.0,0.0,0.0,0.0,0.0,0.0,0.0,0.0,0.0,0.0,0.0,0.0,0.0,0.0,0.0,0.0,0.0,0.0,0.0,0.0,0.0,-1.5153,-1.6003,-1.6575,-1.6876,-1.6538,-1.6607,-1.7027,-1.6747,-1.6712,-1.6892,-1.6892,-1.6926,-1.696,-1.6763,-1.6763,-1.6841,-1.6607,0.0,0.0,0.0,0.0,0.0,-1.9468,-2.0148,0.0,-2.0606,-2.0574,-2.0703,0.0,0.0,0.0,0.0,-1.4722,-1.2445,-1.1426,-1.1758,-1.1875,-0.9494,-0.7098,-0.5013,0.0,0.0,0.0,0.0,0.0,0.0,0.0,0.0,0.0,0.0,0.0,0.0,0.0,0.0,0.0,0.0,0.0,0.0,0.0,0.0,0.0,0.0,0.0,0.5495,0.5627,0.562,0.5877,0.647,0.7025,0.7175,0.6678,0.7275,0.7916,0.8592,0.9084,0.9569,1.0126,1.1168,1.1613,0.0,0.0,0.0,1.2746,1.3331,1.3688,1.3897,1.4752,1.5455,1.6088,1.6576,1.7345,1.8037,0.0,0.0,0.0,0.0,0.0,0.0,0.0,0.0,0.0,0.0,0.0,0.0,0.0,0.0,0.0,0.0,0.0,0.0,0.0,0.0,0.0,0.0,0.0,-1.4976,-1.4989,-1.6128,-1.6954,-1.7344,-1.696,-1.6977,-1.7344,-1.7076,-1.6977,-1.7043,-1.7068,-1.7126,-1.7231,-1.6993,-1.6917,-1.6986,-1.6825,0.0,0.0,0.0,0.0,0.0,0.0,0.0,0.0,-1.8253,-1.8707,-1.9496,-1.8801,0.0,0.0,0.0,0.0,0.0,-0.4722,-0.6561,-0.8699,-0.8449,-0.514,-0.1649,0.0,0.0,0.0,0.0,0.0,0.0,0.0,0.0,0.0,0.0,0.0,0.0,0.0,0.0,0.0,0.0,0.0,0.0,0.0,0.0,0.0,0.0,0.0,0.5756,0.6152,0.6013,0.647,0.7652,0.7637,0.772,0.7909,0.8605,0.9254,0.9708,1.0401,1.1004,1.1409,1.2224,1.2673,1.2673,0.0,0.0,1.3258,1.4049,1.4545,1.4958,1.586,1.6706,1.7482,1.7765,1.8259,1.8875,0.0,0.0,0.0,0.0,0.0,0.0,0.0,0.0,0.0,0.0,0.0,0.0,0.0,0.0,0.0,0.0,0.0,0.0,0.0,0.0,0.0,0.0,-1.3724,-1.4585,-1.5321,-1.6127,-1.688,-1.7549,-1.7264,-1.7264,-1.7566,-1.7288,-1.7175,-1.7272,-1.7313,-1.7248,-1.7126,-1.7199,-1.7297,-1.7392,-1.7134,0.0,0.0,0.0,0.0,0.0,0.0,0.0,0.0,-0.8789,-0.8709,-0.8729,-0.8803,0.0,0.0,0.0,0.0,0.0,-0.7738,-0.5079,-0.1984,-0.1517,-0.1219,-0.0796,0.0,0.0,0.0,0.0,0.0,0.0,0.0,0.0,0.0,0.0,0.0,0.0,0.0,0.0,0.0,0.0,0.0,0.0,0.0,0.0,0.0,0.0,0.0,0.6548,0.7195,0.7321,0.7702,0.8479,0.918,0.9588,0.963,0.9175,0.9491,1.0508,1.096,1.165,1.2599,1.2746,1.2826,1.29,0.0,1.3615,1.4386,1.4681,1.5321,1.6088,1.6922,1.7413,1.7696,1.8395,1.8808,1.9075,0.0,0.0,0.0,0.0,0.0,0.0,0.0,0.0,0.0,0.0,0.0,0.0,0.0,0.0,0.0,0.0,0.0,0.0,0.0,0.0,0.0,-1.2887,-1.3743,-1.4608,-1.5499,-1.6198,-1.6936,-1.7721,-1.7502,-1.7519,-1.7721,-1.7589,-1.7526,-1.7509,-1.7549,-1.7479,-1.732,-1.7361,-1.7377,-1.7337,0.0,0.0,0.0,0.0,0.0,0.0,0.0,0.0,0.0,0.0,-0.6336,-0.634,-0.6439,0.0,0.0,0.0,0.0,0.0,0.0241,0.1634,0.336,0.3882,0.3634,0.3374,0.3782,0.0,0.0,0.0,0.0,0.0,0.0,0.0,0.0,0.0,0.0,0.0,0.0,0.0,0.0,0.0,0.0,0.0,0.0,0.0,0.0,0.0,0.0,0.0,0.8291,0.835,0.8731,0.9378,0.9761,1.0212,1.0604,1.0348,1.0555,1.1122,1.1483,1.1988,1.2655,1.2896,1.3331,1.3825,0.0,1.4681,1.5525,1.6088,1.6576,1.7139,1.7901,1.825,1.8529,1.8865,1.9008,1.9131,0.0,0.0,0.0,0.0,0.0,0.0,0.0,0.0,0.0,0.0,0.0,0.0,0.0,0.0,0.0,0.0,0.0,0.0,0.0,0.0,-1.2808,-1.2961,-1.382,-1.4725,-1.562,-1.6343,-1.711,-1.7905,-1.7726,-1.7726,-1.7878,-1.7811,-1.7772,-1.7738,-1.7664,-1.7572,-1.7486,-1.7479,-1.7384,-1.7288,0.0,0.0,0.0,0.0,0.0,0.0,0.0,0.0,0.0,0.0,0.0,0.0,0.0,0.0,0.0,0.2567,0.5043,0.7824,0.7515,0.7203,0.7131,0.7478,0.0,0.6719,0.6785,0.0,0.0,0.0,0.0,0.0,0.0,0.0,0.0,0.0,0.0,0.0,0.0,0.0,0.0,0.0,0.0,0.0,0.0,0.0,0.0,0.0,0.0,0.0,0.918,0.9308,0.9627,1.0275,1.0338,1.0661,1.1185,1.131,1.146,1.1586,1.1963,1.2275,1.2586,1.3259,1.3977,1.4681,1.5037,1.5745,1.6655,1.7276,1.7687,1.8114,1.8664,1.8942,1.9075,1.9075,1.9198,1.9396,0.0,0.0,0.0,0.0,0.0,0.0,0.0,0.0,0.0,0.0,0.0,0.0,0.0,0.0,0.0,0.0,0.0,0.0,0.0,0.0,-1.3066,-1.2908,-1.3802,-1.4782,-1.5757,-1.6564,-1.7397,-1.827,-1.7949,-1.7878,-1.807,-1.7816,-1.7783,-1.7881,-1.7555,-1.7455,-1.7486,-1.7377,-1.7401,-1.7589,-1.7641,0.0,0.0,0.0,0.0,0.0,0.0,0.0,0.0,0.0,0.0,0.0,0.0,0.0,0.7834,0.7471,0.7629,0.7788,0.7246,0.7824,0.8498,0.8381,0.0,0.0,0.7111,0.6915,0.0,0.0,0.0,0.0,0.0,0.0,0.0,0.0,0.0,0.0,0.0,0.0,0.0,0.0,0.0,0.0,0.0,0.0,0.0,0.0,0.0,0.0,0.9888,1.0078,1.0528,1.1178,1.1373,1.1498,1.156,1.156,1.1658,1.1782,1.2231,1.2626,1.3016,1.4253,1.4832,1.4903,1.5807,1.6724,1.7569,1.7638,1.8182,1.8998,1.9075,1.9075,1.9075,1.9075,1.9518,2.0042,0.0,0.0,0.0,0.0,0.0,0.0,0.0,0.0,0.0,0.0,0.0,0.0,0.0,0.0,0.0,0.0,0.0,0.0,0.0,0.0,-1.3319,-1.3698,-1.4565,-1.5537,-1.6595,-1.6807,-1.738,-1.829,-1.8166,-1.8163,-1.8225,-1.7992,-1.7883,-1.7893,-1.7641,-1.7479,-1.7432,-1.7526,-1.7595,-1.7664,-1.7794,-1.5225,0.0,0.0,0.0,0.0,0.0,0.0,0.0,0.0,0.9629,0.9413,0.0,0.9106,0.8844,0.8533,0.8321,0.8109,0.7723,0.8149,0.878,0.902,0.0,0.0,0.0,0.0,0.0,0.0,0.0,0.0,0.0,0.0,0.0,0.0,0.0,0.0,0.0,0.0,0.0,0.0,0.0,0.0,0.0,0.0,0.0,0.0,0.0,0.0,1.0982,1.1045,1.1233,1.1615,1.1677,1.1809,1.1941,1.229,1.2468,1.2539,1.2819,1.3236,1.3791,1.4882,1.5791,1.6655,1.7001,1.7696,1.8586,1.8586,1.8798,1.9075,1.9075,1.9075,1.9131,1.9584,1.9911,2.0226,0.0,0.0,0.0,0.0,0.0,0.0,0.0,0.0,0.0,0.0,0.0,0.0,0.0,0.0,0.0,0.0,0.0,0.0,0.0,-1.3451,-1.3785,-1.4519,-1.5352,-1.6197,-1.7086,-1.7208,-1.7685,-1.8467,-1.8428,-1.8391,-1.8388,-1.8095,-1.8009,-1.8078,-1.7726,-1.7566,-1.7589,-1.7664,-1.771,-1.7755,-1.79,-1.5448,0.0,0.0,0.0,0.0,0.0,0.0,0.0,0.0,0.0,0.0,0.0,0.0,0.0,0.0,0.8844,0.8745,0.8302,0.8714,0.9318,0.0,0.0,0.0,0.0,0.0,0.0,0.0,0.0,0.0,0.0,0.0,0.0,0.0,0.0,0.0,0.0,0.0,0.0,0.0,0.0,0.0,0.0,0.0,0.0,0.0,0.0,0.0,0.0,1.1747,1.1809,1.1872,1.2112,1.2228,1.2359,1.3009,1.3373,1.3373,1.368,1.4004,1.4332,1.5482,1.6548,1.7514,1.792,1.8529,1.9075,1.9075,1.9198,1.9386,1.9462,1.9584,1.9781,2.0226,2.0537,2.0846,0.0,0.0,0.0,0.0,0.0,0.0,0.0,0.0,0.0,0.0,0.0,0.0,0.0,0.0,0.0,0.0,0.0,0.0,-1.4155,-1.4205,-1.4535,-1.5276,-1.6005,-1.6631,-1.7084,-1.7752,-1.8333,-1.8788,-1.8676,-1.8601,-1.8582,-1.8121,-1.8121,-1.8465,-1.7794,-1.7675,-1.7983,-1.7794,-1.7794,-1.7922,-1.7983,-1.5855,-1.204,0.0,0.0,0.0,0.0,0.0,0.0,0.0,0.9532,0.0,0.0,0.0,0.0,0.0,0.9361,0.9627,0.8974,0.9615,1.0437,0.0,0.0,0.0,0.0,0.0,0.0,0.0,0.0,0.0,0.0,0.0,0.0,0.0,0.0,0.0,0.0,0.0,0.0,0.0,0.0,0.0,0.0,0.0,0.0,0.0,0.0,0.0,0.0,1.2127,1.212,1.212,1.2712,1.3009,1.3009,1.3666,1.4085,1.4213,1.4864,1.4902,1.4506,1.6206,1.6996,1.7091,1.8461,1.9075,1.9075,1.9142,1.9518,2.0107,2.0302,2.0677,2.1123,2.1123,2.1553,2.2113,0.0,0.0,0.0,0.0,0.0,0.0,0.0,0.0,0.0,0.0,0.0,0.0,0.0,0.0,0.0,0.0,0.0,0.0,-1.4262,-1.4802,-1.5422,-1.6096,-1.6347,-1.6867,-1.771,-1.8083,-1.841,-1.8788,-1.8807,-1.8807,-1.8788,-1.8388,-1.8266,-1.8348,-1.7866,-1.7704,-1.7794,-1.7816,-1.79,-1.8017,-1.8613,-1.8228,-1.6832,0.0,0.0,0.0,0.0,0.0,0.0,0.0,0.0,0.0,0.0,0.0,0.0,0.8956,0.9106,0.9274,0.9528,1.045,0.0,0.0,0.0,0.0,0.0,0.0,0.0,0.0,0.0,0.0,0.0,0.0,0.0,0.0,0.0,0.0,0.0,0.0,0.0,0.0,0.0,0.0,0.0,0.0,0.0,0.0,0.0,0.0,0.0,1.2474,1.2781,1.2964,1.3554,1.3914,1.4043,1.4697,1.4991,1.505,1.571,1.588,1.5638,1.6891,1.7701,1.8015,1.8802,1.9075,1.9131,1.9584,1.9911,2.0161,2.0677,2.1008,2.1187,2.1616,2.199,2.2372,0.0,0.0,0.0,0.0,0.0,0.0,0.0,0.0,0.0,0.0,0.0,0.0,0.0,0.0,0.0,0.0,0.0,0.0,0.0,0.0,-1.6236,-1.6909,-1.6942,-1.7294,-1.8009,-1.8287,-1.8506,-1.8676,-1.8752,-1.8789,-1.877,-1.845,-1.829,-1.829,-1.7888,-1.771,-1.7766,-1.8167,-1.8392,-1.8562,-1.9344,-1.8566,-1.6438,0.0,0.0,0.0,0.0,0.0,0.0,0.0,0.0,0.0,0.0,0.0,0.0,0.9621,1.0023,1.0408,1.081,0.0,0.0,0.0,0.0,0.0,0.0,0.0,0.0,0.0,0.0,0.0,0.0,0.0,0.0,0.0,0.0,0.0,0.0,0.0,0.0,0.0,0.0,0.0,0.0,0.0,0.0,0.0,0.0,0.0,0.0,1.3017,1.3381,1.3752,1.4341,1.4756,1.4883,1.5478,1.5778,1.5778,1.6202,1.6345,1.6247,1.7062,1.7698,1.8164,1.9167,1.9573,1.9639,2.0409,2.0794,2.1049,2.1451,2.1765,2.1939,2.2433,2.2689,2.2871,0.0,0.0,0.0,0.0,0.0,0.0,0.0,0.0,0.0,0.0,0.0,0.0,0.0,0.0,0.0,0.0,0.0,0.0,0.0,0.0,-1.6992,-1.7602,-1.7635,-1.7789,-1.8091,-1.8388,-1.8526,-1.8445,-1.8545,-1.8604,-1.8604,-1.8391,-1.831,-1.831,-1.791,-1.7805,-1.7986,-1.8699,-1.9132,-1.9344,-1.9641,-1.7149,-1.266,-0.6929,0.0,0.0,0.0,0.0,0.0,0.0,0.0,0.0,0.0,0.0,1.0372,1.0753,1.1473,1.2219,1.2396,0.0,0.0,0.0,0.0,0.0,0.0,0.0,0.0,0.0,0.0,0.0,0.0,0.0,0.0,0.0,0.0,0.0,0.0,0.0,0.0,0.0,0.0,0.0,0.0,0.0,0.0,0.0,0.0,0.0,0.0,1.3631,1.3923,1.4588,1.5177,1.5468,1.5468,1.6077,1.6384,1.6384,1.6384,1.6441,1.6498,1.6839,1.7315,1.7957,1.9692,2.0398,2.0462,2.129,2.1928,2.2433,2.2469,2.2787,2.3198,2.339,2.3509,2.3628,0.0,0.0,0.0,0.0,0.0,0.0,0.0,0.0,0.0,0.0,0.0,0.0,0.0,0.0,0.0,0.0,0.0,0.0,0.0,0.0,-1.773,-1.7839,-1.7878,-1.7939,-1.8027,-1.8074,-1.8117,-1.8113,-1.8391,-1.8604,-1.8751,-1.8388,-1.831,-1.8434,-1.81,-1.8285,-1.883,-1.9076,-1.955,-1.9826,-1.6246,-1.4198,-1.2296,-0.3101,0.0889,0.0,0.0,0.0,0.0,0.0,0.0,0.0,0.9673,0.9569,0.9614,1.0423,1.0982,1.1564,0.0,1.3338,0.0,0.0,0.0,0.0,0.0,0.0,0.0,0.0,0.0,0.0,0.0,0.0,0.0,0.0,0.0,0.0,0.0,0.0,0.0,0.0,0.0,0.0,0.0,0.0,0.0,0.0,0.0,0.0,1.4291,1.4697,1.5059,1.5177,1.5836,1.6192,1.6192,1.6316,1.6384,0.0,1.6384,1.6637,1.7011,1.6994,1.7835,1.9317,2.0608,2.1187,2.1187,2.1939,2.231,2.2433,2.2957,2.333,2.3569,2.406,2.435,2.4509,0.0,0.0,0.0,0.0,0.0,0.0,0.0,0.0,0.0,0.0,0.0,0.0,0.0,0.0,0.0,0.0,0.0,0.0,0.0,0.0,0.0,-1.7944,-1.598,-1.4868,-1.4828,-1.4861,-1.3849,-1.1747,-1.6138,0.0,0.0,0.0,0.0,-1.841,0.0,-1.8762,-1.9195,-1.9962,-1.9027,-1.6803,-1.4673,-1.0628,-0.5329,-0.0087,0.3432,0.5893,0.8544,0.0,0.0,0.0,0.0,0.0,0.0,0.0,0.9762,1.0689,1.1403,1.2149,0.0,0.0,0.0,0.0,0.0,0.0,0.0,0.0,0.0,0.0,0.0,0.0,0.0,0.0,0.0,0.0,0.0,0.0,0.0,0.0,0.0,0.0,0.0,0.0,0.0,0.0,0.0,0.0,0.0,1.4647,1.4942,1.5235,1.5536,1.5894,1.6202,1.6384,1.6384,1.6384,1.6384,1.6384,1.6637,1.7112,1.7699,1.7876,1.8633,1.9841,2.1028,2.1701,2.2051,2.2689,2.2992,2.2992,2.339,2.3734,2.4073,2.4452,2.4851,2.5231,0.0,0.0,0.0,0.0,0.0,0.0,0.0,0.0,0.0,0.0,0.0,0.0,0.0,0.0,0.0,0.0,0.0,0.0,0.0,0.0,0.0,-1.578,-1.3023,-1.1123,-1.0314,-1.1084,-0.9325,-0.489,0.0,0.0,0.0,0.0,0.0,-1.7062,0.0,-1.6575,-1.6827,-1.8108,-1.6113,-1.2017,-1.1674,-0.6033,0.2265,0.2968,0.6029,0.9888,0.9629,0.9769,1.002,0.9718,0.0,0.0,0.0,0.0,1.0345,1.1157,1.2132,1.3157,0.0,0.0,0.0,0.0,0.0,0.0,0.0,0.0,0.0,0.0,0.0,0.0,0.0,0.0,0.0,0.0,0.0,0.0,0.0,0.0,0.0,0.0,0.0,0.0,0.0,0.0,0.0,0.0,0.0,1.5069,1.5536,1.5594,1.5836,1.6374,1.6384,1.6431,1.6431,1.6545,1.6591,1.6648,1.7268,1.7907,1.8459,1.9003,1.943,1.9959,2.1289,2.2182,2.2662,2.3327,2.3628,2.3628,2.3734,2.4131,2.4624,2.4951,2.5342,2.5892,0.0,0.0,0.0,0.0,0.0,0.0,0.0,0.0,0.0,0.0,0.0,0.0,0.0,0.0,0.0,0.0,0.0,0.0,-1.8644,0.0,0.0,-0.6839,-0.9761,-0.9709,-0.5861,-0.9537,-0.9325,-0.489,0.0,0.0,0.0,0.0,0.0,-1.1966,0.0,0.0,-0.6914,-0.7134,-0.7128,-0.6667,-0.1929,0.0793,0.2561,0.7339,0.9358,0.9666,0.9991,1.0146,1.0249,1.0557,1.0761,0.0,0.0,0.0,1.0985,1.1559,1.2549,1.3525,0.0,0.0,0.0,0.0,0.0,0.0,0.0,0.0,0.0,0.0,0.0,0.0,0.0,0.0,0.0,0.0,0.0,0.0,0.0,0.0,0.0,0.0,0.0,0.0,0.0,0.0,0.0,0.0,1.5836,1.6192,1.6259,1.6259,1.6316,1.6384,1.6384,1.6488,1.6581,1.7011,1.7335,1.7556,1.862,1.9109,1.9121,1.9718,2.0107,2.0232,2.1901,2.2706,2.2808,2.3364,2.3688,2.3878,2.435,2.4694,2.5048,2.6068,2.6457,2.6616,0.0,0.0,0.0,0.0,0.0,0.0,0.0,0.0,0.0,0.0,0.0,0.0,0.0,0.0,0.0,-1.4866,-1.4988,-1.5938,-1.8423,-1.6576,-1.4476,-1.243,-1.1808,-0.9431,-0.4983,-0.6588,-0.4185,0.0,0.0,0.0,0.0,-0.2284,-0.4517,0.0,0.0,0.0,0.0,0.0,-0.4006,-0.1231,0.1153,0.4036,0.723,0.9546,1.0411,1.0446,1.0446,1.0557,1.0742,1.0886,1.1063,1.1218,1.1193,0.0,0.0,0.0,1.264,0.0,0.0,0.0,0.0,0.0,0.0,0.0,0.0,0.0,0.0,0.0,0.0,0.0,0.0,0.0,0.0,0.0,0.0,0.0,0.0,0.0,0.0,0.0,0.0,0.0,0.0,0.0,0.0,0.0,1.6249,1.6384,1.6384,1.6477,1.6534,1.6534,1.6909,1.7179,1.7234,1.7765,1.8201,1.8536,1.9109,1.954,1.9759,2.0182,2.0489,2.0772,2.1814,2.2531,2.2992,2.3838,2.4247,2.4421,2.5077,2.5577,2.6028,2.6525,2.693,2.7255,0.0,0.0,0.0,0.0,0.0,0.0,0.0,0.0,0.0,0.0,0.0,0.0,0.0,0.0,0.0,0.0,-1.3865,-1.4627,-1.6748,-1.6758,-1.5635,-1.3253,-1.1005,-0.7231,-0.1644,-0.2104,0.0,0.0,0.0,0.0,0.4311,0.4904,0.3094,0.0,-0.0919,0.0,0.0,0.0,0.0,0.0,0.0,0.679,0.0,1.0573,1.0769,1.0981,1.0816,1.0951,1.1207,1.1255,1.1331,1.1434,1.1464,1.1551,0.0,0.0,0.0,0.0,0.0,0.0,0.0,0.0,0.0,0.0,0.0,0.0,0.0,0.0,0.0,0.0,0.0,0.0,0.0,0.0,0.0,0.0,0.0,0.0,0.0,0.0,0.0,0.0,0.0,0.0,0.0,0.0,1.6431,1.6534,1.6648,1.6797,1.6955,1.7067,1.7611,1.7929,1.7929,1.8525,1.9056,1.9604,1.9643,1.9952,2.0472,2.0586,2.0908,2.1341,2.1914,2.2473,2.3096,2.4372,2.4951,2.5063,2.5728,2.6283,2.6736,2.6893,2.7203,2.7625,0.0,0.0,0.0,0.0,0.0,0.0,0.0,0.0,0.0,0.0,0.0,0.0,-1.1057,-1.1633,-1.3568,-1.8071,-1.8797,-1.717,-1.281,-1.2516,-0.8563,0.0279,-0.3119,0.0,0.7518,0.4433,0.0,0.0,0.0,0.0,0.9804,1.0153,1.0089,0.9715,0.9703,0.9511,0.9205,0.0,0.0,0.0,0.0,0.0,0.0,0.0,0.0,0.0,0.0,1.1321,1.1576,1.1812,1.1704,1.1519,1.1487,1.161,1.1878,0.0,0.0,0.0,0.0,0.0,0.0,0.0,0.0,0.0,0.0,0.0,0.0,0.0,0.0,0.0,0.0,0.0,0.0,0.0,0.0,0.0,0.0,0.0,0.0,0.0,0.0,0.0,0.0,0.0,0.0,0.0,1.6534,1.6786,1.7335,1.7556,1.7886,1.8417,1.8417,1.8513,1.8661,1.9226,1.9926,2.0599,2.0511,2.0686,2.1126,2.1175,2.1444,2.191,2.262,2.2976,2.3124,2.4846,2.5618,2.5783,2.6404,2.6669,2.6774,2.7357,2.7575,2.7625,0.0,0.0,0.0,0.0,0.0,0.0,0.0,0.0,0.0,0.0,0.0,0.0,0.0,-0.3162,-0.5096,-0.9728,-1.5454,-1.6767,-1.1934,-1.1507,-0.8584,-0.2164,-0.3411,-0.1426,0.4692,0.4152,0.0,0.0,0.0,1.1361,1.0535,1.1173,1.1398,1.1152,1.061,1.0205,0.9999,1.0102,0.0,0.0,0.0,0.0,0.0,0.0,0.0,0.0,0.0,0.0,1.2445,1.2516,1.2184,1.1694,1.1861,1.219,1.2767,1.3729,0.0,0.0,0.0,0.0,0.0,0.0,0.0,0.0,0.0,0.0,0.0,0.0,0.0,0.0,0.0,0.0,0.0,0.0,0.0,0.0,0.0,0.0,0.0,0.0,0.0,0.0,0.0,0.0,0.0,0.0,0.0,1.7875,1.8093,1.8244,1.8459,1.862,1.9004,1.9448,1.9862,2.008,2.0296,2.0562,2.0835,2.1055,2.1224,2.1513,2.1799,2.2091,2.3124,2.3617,2.3747,2.5105,2.5964,2.6457,2.7034,2.7255,2.7306,2.7524,2.7625,2.761,0.0,0.0,0.0,0.0,0.0,0.0,0.0,0.0,0.0,0.0,0.0,0.0,0.0,0.0,-0.3194,-0.9642,-1.5802,-1.7148,-1.2007,-1.1549,-0.8517,-0.1928,-0.1472,0.0705,0.5174,0.6216,0.0,0.0,0.0,0.0,0.0,1.184,1.1968,1.176,1.1015,1.0514,0.0,0.0,0.0,1.0263,0.0,0.0,1.1109,0.0,0.0,0.0,0.0,0.0,0.0,1.3304,1.2966,1.2533,1.2716,1.3147,0.0,0.0,0.0,0.0,0.0,0.0,0.0,0.0,0.0,0.0,0.0,0.0,0.0,0.0,0.0,0.0,0.0,0.0,0.0,0.0,0.0,0.0,0.0,0.0,0.0,0.0,0.0,0.0,0.0,0.0,0.0,0.0,0.0,0.0,1.8833,1.8992,1.915,1.9319,1.9708,2.0093,2.0511,2.0649,2.0749,2.0799,2.1237,2.1561,2.1799,2.2081,2.236,2.2663,2.3462,2.4007,2.4369,2.5537,2.6396,2.7049,2.7458,2.7625,2.7625,2.7625,2.771,2.7894,0.0,0.0,0.0,0.0,0.0,0.0,0.0,0.0,0.0,0.0,0.0,0.0,0.0,0.0,0.0,-1.8586,-2.0079,-1.8054,-1.2297,-1.1916,-0.7436,0.2648,0.3552,0.5876,1.0165,1.1151,1.1528,0.0,0.0,0.0,0.0,0.0,1.2421,1.2206,1.1719,1.1124,1.0419,0.0,1.0249,1.0801,0.0,1.1319,1.184,0.0,0.0,0.0,1.2958,1.3548,0.0,1.4105,0.0,0.0,0.0,0.0,0.0,0.0,0.0,0.0,0.0,0.0,0.0,0.0,0.0,0.0,0.0,0.0,0.0,0.0,0.0,0.0,0.0,0.0,0.0,0.0,0.0,0.0,0.0,0.0,0.0,0.0,0.0,0.0,0.0,0.0,0.0,0.0,1.8673,1.9032,1.9619,1.9786,2.0067,2.0511,2.0562,2.0562,2.0562,2.1006,2.1286,2.141,2.1766,2.2267,2.2889,2.2934,2.3157,2.3595,2.3595,2.4088,2.499,2.6094,2.6961,2.7625,2.7625,2.7625,2.7625,2.7625,2.7944,2.8336,0.0,0.0,0.0,0.0,0.0,0.0,0.0,0.0,0.0,0.0,0.0,0.0,0.0,0.2387,-0.1822,-0.7803,-0.8511,-0.6326,-0.081,-0.0466,0.2496,0.915,0.9596,1.0239,1.1468,1.2063,1.212,0.0,0.0,0.0,0.0,0.0,0.0,0.0,1.2224,1.193,1.1878,1.1408,0.0,0.0,1.1532,1.1853,0.0,0.0,0.0,0.0,0.0,1.4421,1.4732,0.0,1.4112,1.3872,0.0,0.0,0.0,0.0,0.0,0.0,1.5921,0.0,0.0,0.0,0.0,0.0,0.0,0.0,0.0,0.0,0.0,0.0,0.0,0.0,0.0,0.0,0.0,0.0,0.0,0.0,0.0,0.0,0.0,0.0,0.0,0.0,0.0,0.0,1.9759,2.0067,2.0233,2.0723,2.1153,2.1479,2.1527,2.1527,2.1527,2.1657,2.1752,2.1908,2.2374,2.2694,2.2889,2.3246,2.3465,2.3595,2.3595,2.4268,2.5426,2.5762,2.6557,2.7625,2.7625,2.7795,2.8125,2.8125,2.8448,2.8935,0.0,0.0,0.0,0.0,0.0,0.0,0.0,0.0,0.0,0.0,0.0,0.0,0.0,0.0,-0.152,-0.4141,-0.4634,-0.252,0.2974,0.351,0.605,1.1481,1.2098,1.2295,1.2255,1.2522,1.258,1.2382,0.0,0.0,0.0,0.0,0.0,0.0,0.0,0.0,0.0,0.0,0.0,0.0,1.231,0.0,0.0,1.3334,1.3947,0.0,0.0,0.0,1.5196,1.4951,1.4647,0.0,0.0,0.0,0.0,0.0,0.0,0.0,0.0,0.0,0.0,0.0,0.0,0.0,1.6775,1.739,1.8018,0.0,0.0,0.0,0.0,0.0,0.0,0.0,0.0,0.0,0.0,0.0,0.0,0.0,0.0,0.0,0.0,1.9759,2.0118,2.0321,2.0686,2.0934,2.1166,2.1444,2.1718,2.1894,2.1894,2.1894,2.1894,2.2175,2.236,2.2466,2.2965,2.3201,2.3201,2.3465,2.3595,2.361,2.3909,2.4762,2.594,2.6213,2.694,2.7894,2.7894,2.8222,2.8638,2.867,2.8996,2.9528,0.0,0.0,0.0,0.0,0.0,0.0,0.0,0.0,0.0,0.0,0.0,0.0,0.0,0.0,-0.3232,-0.3278,-0.3874,-0.2138,0.2874,0.3684,0.6239,1.1249,1.2384,1.2774,1.2647,1.2762,1.2902,1.3085,0.0,0.0,0.0,0.0,0.0,0.0,0.0,0.0,0.0,0.0,0.0,1.2947,1.3246,1.3632,0.0,0.0,1.4688,1.5167,1.4883,1.5186,1.5614,1.5478,1.541,0.0,0.0,0.0,0.0,0.0,1.5921,0.0,0.0,0.0,0.0,0.0,0.0,0.0,1.7556,1.805,1.8483,1.8774,0.0,0.0,0.0,0.0,0.0,0.0,0.0,0.0,0.0,0.0,0.0,0.0,0.0,0.0,1.9901,2.0435,2.0934,2.1361,2.141,2.1684,2.2175,2.2081,2.2035,2.2081,2.2081,2.2081,2.2081,2.2694,2.2979,2.2979,2.3377,2.3595,2.3595,2.3595,2.3638,2.3726,2.4372,2.5363,2.6514,2.7118,2.7782,2.84,2.84,2.8732,2.9212,2.9255,2.9613,3.0113,1.0891,0.0,0.0,0.0,0.0,0.0,0.0,0.0,0.0,0.0,0.0,0.0,0.0,0.0,0.0,0.7498,0.7364,0.7898,0.9422,0.9962,1.0882,1.2295,1.2939,1.3218,1.3074,1.3072,1.3044,1.3085,0.0,0.0,0.0,0.0,0.0,0.0,0.0,0.0,0.0,0.0,0.0,1.3596,1.3775,0.0,1.441,1.4647,1.5001,1.5352,1.5294,1.5362,1.5478,1.541,1.5303,1.5264,0.0,0.0,0.0,1.6595,0.0,0.0,0.0,0.0,0.0,0.0,0.0,0.0,1.7032,1.7412,1.781,0.0,0.0,0.0,0.0,0.0,0.0,0.0,0.0,0.0,0.0,0.0,0.0,0.0,0.0,0.0,2.0549,2.0858,2.114,2.1237,2.1575,2.2095,2.2694,2.2694,2.2875,2.3275,2.3275,2.3275,2.3275,2.3421,2.3465,2.3465,2.3551,2.3595,2.3595,2.3595,2.3824,2.4208,2.494,2.5877,2.6922,2.7658,2.8352,2.8935,2.8935,2.9257,2.9661,2.9793,3.014,3.0551,1.1551,0.0,0.0,0.0,0.0,0.0,0.0,0.0,0.0,0.0,0.0,0.0,0.0,0.0,0.0,0.0,1.0522,1.0573,1.0769,1.1519,1.2017,1.2107,1.288,1.3228,1.3152,1.3123,1.3027,1.2881,0.0,0.0,0.0,0.0,0.0,0.0,0.0,0.0,0.0,0.0,1.3527,1.395,1.424,0.0,1.4715,1.5137,1.543,1.5546,1.5371,1.5254,1.5196,1.5196,1.5137,0.0,0.0,1.543,1.5788,0.0,1.656,1.6853,0.0,0.0,0.0,1.6976,0.0,0.0,0.0,1.817,1.8709,1.8804,1.9202,1.9631,0.0,0.0,0.0,0.0,0.0,0.0,0.0,0.0,0.0,0.0,0.0,0.0,2.1396,2.1575,2.1752,2.2035,2.2498,2.2905,2.3246,2.3246,2.3377,2.3595,2.3595,2.3595,2.3595,2.3595,2.3595,2.3595,2.3595,2.3724,2.3952,2.3952,2.4204,2.4661,2.5748,2.6646,2.7448,2.8565,2.9383,2.9897,2.9572,2.9793,3.0258,3.0384,3.0609,3.0831,1.238,0.0,0.0,0.0,0.0,0.0,0.0,0.0,0.0,0.0,0.0,0.0,0.0,0.0,0.0,0.0,0.0,1.0824,0.0,1.1652,1.2144,1.1974,1.2878,1.3391,1.3273,1.3273,1.3125,1.2916,0.0,0.0,0.0,0.0,0.0,0.0,0.0,0.0,0.0,0.0,0.0,1.4181,0.0,1.4775,1.4951,1.543,1.5614,1.5556,1.5274,1.5088,1.497,1.497,1.497,1.5029,1.5088,1.5439,0.0,0.0,0.0,0.0,0.0,0.0,0.0,0.0,0.0,1.7963,0.0,0.0,0.0,2.0105,2.0573,0.0,0.0,0.0,0.0,0.0,0.0,0.0,0.0,0.0,0.0,0.0,0.0,0.0,2.2081,2.2175,2.2452,2.2979,2.3377,2.3595,2.3595,2.3595,2.3595,2.3595,2.3595,2.3595,2.3595,2.3696,2.3696,2.3595,2.3767,2.4036,2.4302,2.4385,2.4717,2.529,2.6602,2.7531,2.8184,2.9615,3.0384,3.0692,3.0199,3.0284,3.0733,3.0871,3.0912,3.0912,1.2917,1.3176,0.0,0.0,0.0,0.0,0.0,0.0,0.0,0.0,0.0,0.0,0.0,0.0,0.0,0.0,0.0,0.0,1.207,0.0,1.3443,1.3283,1.3879,1.41,1.3994,1.3888,1.3772,1.3772,0.0,0.0,0.0,0.0,0.0,0.0,1.3464,0.0,0.0,0.0,1.4401,0.0,1.4834,1.4893,0.0,1.5303,1.5371,1.5215,1.5098,1.5029,1.497,0.0,1.497,1.5088,0.0,1.5836,1.6171,1.6853,0.0,0.0,0.0,0.0,0.0,0.0,1.7952,0.0,0.0,0.0,1.9423,1.9475,0.0,0.0,0.0,0.0,0.0,0.0,0.0,0.0,0.0,0.0,0.0,0.0,0.0,0.0,0.0,2.2512,2.3024,2.3465,2.3551,2.3595,2.3595,2.3595,2.3595,2.3595,2.3595,2.3595,2.3595,2.3994,2.3994,2.3595,2.4379,2.4599,2.4302,2.4679,2.5393,2.6467,2.738,2.8394,2.947,3.0399,3.0831,3.0871,3.0814,3.0831,3.0871,3.0912,3.0912,3.0912,1.3765,1.3662,0.0,0.0,0.0,0.0,0.0,0.0,0.0,0.0,0.0,0.0,0.0,0.0,0.0,0.0,0.0,1.253,0.0,0.0,0.0,1.4109,1.4601,1.479,1.4723,1.4364,1.4079,1.4013,1.3744,0.0,0.0,0.0,0.0,0.0,1.4212,0.0,1.5059,0.0,1.4824,0.0,0.0,0.0,0.0,1.5254,1.5137,1.4902,1.4843,1.4951,1.5128,0.0,1.5362,0.0,0.0,0.0,0.0,0.0,0.0,0.0,0.0,0.0,0.0,0.0,0.0,0.0,1.9202,0.0,2.0181,0.0,0.0,0.0,0.0,0.0,0.0,0.0,2.1375,0.0,0.0,0.0,0.0,0.0,0.0,0.0,0.0,0.0,0.0,0.0,2.3595,2.3595,2.3595,2.3867,2.4009,2.4009,2.423,2.4364,2.4364,2.4558,2.4558,2.4379,2.4744,2.4942,2.5036,2.5709,2.6373,2.7147,2.8434,2.927,2.9794,3.0593,3.0952,3.0912,3.1032,3.0992,3.0912,3.0935,3.0935,3.0912,1.4687,0.0,0.0,0.0,0.0,0.0,0.0,0.0,0.0,0.0,0.0,0.0,1.3157,1.2762,0.0,0.0,1.3046,1.3617,0.0,0.0,1.4672,0.0,0.0,0.0,1.5141,1.4474,1.4172,1.4112,0.0,0.0,0.0,0.0,0.0,0.0,0.0,1.4815,1.5468,0.0,1.5303,1.5137,1.5672,1.5614,1.5245,1.5137,1.4902,1.4656,1.4765,1.5001,1.5225,1.5468,1.57,0.0,1.6171,0.0,0.0,0.0,0.0,0.0,1.7534,0.0,0.0,0.0,0.0,0.0,0.0,0.0,0.0,0.0,0.0,0.0,0.0,0.0,0.0,0.0,0.0,2.2063,0.0,0.0,0.0,0.0,0.0,0.0,0.0,0.0,0.0,2.3767,2.3782,2.3852,2.3964,2.4271,2.4451,2.4451,2.4759,2.4902,2.4902,2.502,2.502,2.4902,2.5153,2.5368,2.5572,2.6531,2.7255,2.7814,2.9214,2.9939,3.0157,3.0757,3.0975,3.0992,3.1112,3.1134,3.1078,3.1015,3.0935,3.0912,1.5649,1.5277,0.0,0.0,0.0,0.0,0.0,0.0,0.0,0.0,0.0,0.0,0.0,0.0,0.0,0.0,0.0,1.5731,1.5731,0.0,1.5532,0.0,0.0,1.4653,0.0,1.4196,1.395,1.4189,0.0,0.0,0.0,0.0,0.0,0.0,0.0,1.5526,1.6056,1.5904,1.5798,1.5672,1.5672,1.5439,1.497,0.0,1.4606,1.4565,1.501,0.0,0.0,1.5758,1.5989,0.0,0.0,0.0,0.0,0.0,0.0,0.0,0.0,0.0,0.0,1.9448,0.0,0.0,0.0,0.0,2.118,0.0,0.0,0.0,0.0,0.0,0.0,0.0,0.0,0.0,0.0,0.0,0.0,0.0,0.0,0.0,0.0,0.0,2.3782,2.4261,2.4261,2.4451,2.4823,2.4863,2.4863,2.4863,2.4902,2.4902,2.4902,2.5275,2.5275,2.4902,2.577,2.6007,2.5717,2.6862,2.7848,2.8716,2.9547,3.0308,3.0942,3.1015,3.1072,3.119,3.1055,3.1218,3.1545,3.1157,3.0935,3.0992,0.0,0.0,0.0,0.0,0.0,0.0,0.0,1.5426,0.0,0.0,0.0,0.0,0.0,1.4795,1.4672,0.0,0.0,1.5159,1.5677,1.5408,0.0,0.0,0.0,1.507,0.0,0.0,0.0,0.0,0.0,0.0,0.0,0.0,0.0,0.0,0.0,1.572,0.0,0.0,0.0,0.0,0.0,1.5245,1.4775,0.0,0.0,1.501,1.5118,1.5584,0.0,1.6285,1.657,1.692,1.7043,1.7099,1.7211,1.7689,1.7941,0.0,0.0,0.0,1.9146,1.9695,0.0,0.0,0.0,0.0,0.0,0.0,0.0,0.0,0.0,0.0,0.0,0.0,0.0,0.0,0.0,0.0,0.0,0.0,0.0,0.0,0.0,0.0,0.0,2.4302,2.4533,2.4759,2.4902,2.516,2.5313,2.5313,2.5589,2.5754,2.5754,2.5917,2.5901,2.5754,2.6043,2.6399,2.6862,2.7831,2.8695,2.953,3.0403,3.0858,3.1015,3.1015,3.1072,3.123,3.1351,3.1507,3.164,3.1507,3.1565,3.1696,1.5484,0.0,0.0,0.0,0.0,0.0,0.0,0.0,0.0,0.0,1.6249,0.0,1.5319,0.0,1.4942,0.0,1.4759,1.4902,1.5422,1.5232,0.0,1.579,1.5269,0.0,0.0,0.0,0.0,0.0,0.0,1.5681,0.0,0.0,0.0,0.0,0.0,1.6134,1.5972,0.0,1.5826,0.0,0.0,1.5468,0.0,0.0,1.5177,1.5235,0.0,1.6104,1.6637,1.6807,1.7043,1.7278,1.7278,1.7434,1.7634,1.7995,1.8417,1.8792,1.9186,1.9408,0.0,2.0182,2.0258,0.0,2.1215,0.0,0.0,0.0,0.0,0.0,0.0,0.0,0.0,0.0,0.0,0.0,0.0,2.3867,0.0,0.0,0.0,0.0,0.0,0.0,2.4558,2.4719,2.4981,2.5176,0.0,0.0,2.5775,2.5775,2.6043,2.622,2.622,2.622,2.6203,2.6239,2.6488,2.6925,2.7537,2.8632,2.9429,2.9938,3.0774,3.1072,3.1015,3.1117,3.1235,3.1389,3.1677,3.1914,3.2092,3.1967,3.2056,3.2231,0.0,0.0,0.0,0.0,1.6304,0.0,0.0,0.0,1.6831,0.0,1.6939,1.628,1.4963,1.5707,1.5626,1.3933,1.4483,1.4989,1.4989,1.5025,0.0,0.0,1.4943,1.5072,1.5458,0.0,0.0,0.0,0.0,0.0,0.0,0.0,0.0,0.0,1.7056,0.0,1.6374,1.6239,1.6228,1.6296,1.6171,1.6114,1.6056,1.5989,1.57,1.54,1.6275,1.6627,1.6694,1.7155,1.7334,1.7334,1.7334,1.7689,1.8147,1.8201,1.8951,1.9798,1.985,2.0182,2.0562,2.0838,0.0,0.0,0.0,0.0,2.1746,0.0,0.0,0.0,0.0,0.0,0.0,0.0,0.0,0.0,0.0,0.0,0.0,0.0,0.0,0.0,0.0,2.4679,2.5098,2.5465,2.5503,0.0,0.0,0.0,2.622,2.622,2.622,2.622,2.6203,2.6203,2.6239,2.6362,2.7061,2.7554,2.7851,2.9248,2.9921,2.9989,3.0712,3.1015,3.1055,3.13,3.1528,3.175,3.2004,3.2417,3.2763,3.2435,3.2437,3.2488,1.7195,1.7165,1.688,0.0,1.6496,1.6817,0.0,0.0,0.0,0.0,1.6179,1.5996,1.5411,1.5007,1.4718,1.4698,1.4635,0.0,0.0,0.0,0.0,1.5314,1.4877,1.4871,1.539,1.5234,1.5449,1.5938,0.0,0.0,1.6968,0.0,0.0,0.0,0.0,0.0,1.6239,1.6684,1.674,1.6513,1.6513,1.6285,0.0,0.0,1.6627,1.6285,1.6513,1.6807,1.7155,1.7278,1.759,1.7886,1.7886,1.8278,1.8869,1.9226,1.9592,1.9901,2.0334,2.0498,2.0562,2.0712,2.0662,2.0649,0.0,0.0,0.0,0.0,0.0,0.0,0.0,0.0,0.0,0.0,0.0,0.0,0.0,0.0,0.0,2.4863,0.0,0.0,2.4744,2.5098,2.5389,2.5503,2.5811,0.0,0.0,0.0,0.0,2.622,2.622,2.6239,2.6277,2.6277,2.6614,2.7272,2.7473,2.8163,2.9349,2.9719,3.0207,3.0746,3.1027,3.1196,3.13,3.149,3.1823,3.2248,3.2317,3.257,3.2898,3.288,3.2784,3.2573,1.7155,0.0,0.0,1.6788,0.0,0.0,1.6447,1.6819,0.0,1.6167,1.5873,0.0,1.5351,1.4466,1.4148,1.472,1.4312,0.0,1.4504,0.0,0.0,1.5294,1.5235,1.5362,1.5604,1.5604,0.0,1.6234,0.0,0.0,1.7589,0.0,0.0,0.0,0.0,1.7556,0.0,1.7088,1.7088,1.6931,1.6931,0.0,0.0,1.7099,1.7155,1.692,1.7179,1.7245,1.7278,1.7278,1.7634,1.8093,1.8093,1.8697,1.9396,1.9695,2.0016,2.0283,2.0599,2.0612,2.0511,2.0662,2.0612,2.0662,2.1277,2.1554,2.1874,0.0,0.0,0.0,0.0,0.0,0.0,0.0,0.0,0.0,0.0,0.0,0.0,0.0,2.5663,0.0,2.5476,2.5663,2.5811,2.5811,2.6043,0.0,0.0,0.0,0.0,2.6258,2.6258,2.6293,2.6382,2.6277,2.6678,2.7557,2.7928,2.8682,2.9827,3.0202,3.0651,3.1095,3.1235,3.1393,3.164,3.1967,3.2248,3.2504,3.257,3.2687,3.277,3.2866,3.2752,3.2606,1.7021,0.0,0.0,0.0,0.0,0.0,0.0,1.6808,0.0,1.65,0.0,1.4959,1.4817,1.407,1.3808,1.4318,0.0,1.3983,1.4529,1.5118,1.541,1.5294,1.5768,1.6009,1.5914,1.5914,1.6019,0.0,0.0,0.0,0.0,0.0,0.0,0.0,0.0,0.0,0.0,1.7379,1.7278,1.7278,1.7278,1.7278,1.7334,1.7379,1.7379,1.7434,1.7995,1.7799,1.7334,1.7434,1.7799,1.8201,1.8255,1.9004,1.9862,1.9862,2.0283,2.0662,2.0699,2.0612,2.0511,2.0662,2.0662,2.0835,2.1813,2.2081,2.2452,2.3334,2.3551,2.3595,0.0,0.0,0.0,0.0,0.0,0.0,0.0,0.0,0.0,0.0,0.0,0.0,2.622,2.622,2.622,2.622,0.0,0.0,0.0,0.0,0.0,2.6295,2.6295,2.6382,2.652,0.0,2.6809,2.7727,2.8498,2.9219,3.0,3.0752,3.1173,3.1291,3.1452,3.1714,3.2038,3.2504,3.2654,3.2606,3.277,3.2737,3.2573,3.2573,3.2573,3.2557,0.0,0.0,0.0,0.0,0.0,1.7748,1.6759,1.6426,1.6061,1.5144,1.4356,1.3727,1.342,1.3439,1.3579,1.3692,1.446,0.0,0.0,0.0,0.0,1.5788,1.5856,1.5961,1.6066,1.5961,1.6239,0.0,0.0,0.0,0.0,0.0,0.0,0.0,0.0,0.0,1.7975,1.749,0.0,1.7278,1.7278,1.7278,1.7334,1.7788,1.7897,1.7909,1.8602,1.8182,1.7434,1.8278,1.859,1.875,1.9093,1.9617,2.0182,2.0347,2.0461,2.0562,2.0662,2.0612,2.0511,2.0662,2.0871,2.1153,2.1458,2.2156,2.2799,2.2979,2.3334,2.3595,2.3595,0.0,0.0,0.0,0.0,0.0,0.0,0.0,0.0,0.0,0.0,2.622,0.0,2.622,0.0,0.0,0.0,0.0,0.0,0.0,0.0,0.0,2.6295,0.0,0.0,0.0,2.7777,2.8968,2.9349,3.0188,3.1428,3.1473,3.16,3.1785,3.2039,3.2317,3.257,3.2588,3.2588,3.2588,3.2639,3.2557,3.2457,3.2457,3.2457,3.2422,0.0,0.0,0.0,0.0,0.0,0.0,0.0,1.6343,1.5809,1.5459,1.4754,1.4317,1.4478,1.4222,1.4282,1.4942,1.5177,1.541,1.5642,1.5961,1.6029,1.5798,1.5856,1.5846,1.5768,1.5652,1.6056,1.6888,0.0,0.0,0.0,0.0,0.0,0.0,0.0,1.8193,0.0,0.0,0.0,1.7334,1.792,1.7963,1.7799,1.8321,1.8548,1.8548,1.9186,1.8869,1.8247,1.8709,1.9081,1.9331,1.9552,1.9978,2.0498,2.0562,2.0612,2.0612,2.0662,2.0848,2.0997,2.1033,2.1348,2.1752,2.2095,2.2572,2.2979,2.3201,2.3421,2.3595,2.3595,2.3824,0.0,0.0,0.0,0.0,0.0,0.0,0.0,0.0,0.0,0.0,0.0,0.0,0.0,0.0,0.0,0.0,0.0,0.0,0.0,0.0,0.0,0.0,0.0,0.0,0.0,2.9933,3.004,3.0677,3.1765,3.1748,3.1913,3.2162,3.2419,3.2636,3.2784,3.2672,3.2606,3.2606,3.2523,3.2457,3.2406,3.2406,3.2406,3.2406,0.0,1.7259,0.0,0.0,1.6965,0.0,1.7022,1.6379,1.5853,1.5941,1.5294,1.5001,1.5517,1.5059,1.5128,1.6077,1.5778,1.571,1.6056,1.6192,1.6087,1.5672,1.573,1.5672,1.5478,1.5526,1.5931,0.0,0.0,0.0,0.0,0.0,0.0,0.0,0.0,0.0,0.0,0.0,1.8061,1.7767,1.8785,1.8863,1.8538,1.9263,1.9526,1.958,2.015,2.0057,1.9699,1.9699,1.975,1.9747,1.9862,2.022,2.0599,2.0649,2.0662,2.0662,2.0712,2.1033,2.1423,2.1423,2.1827,2.2374,2.2799,2.2979,2.3157,2.3508,2.3595,2.3638,2.3724,2.4036,0.0,0.0,0.0,0.0,0.0,0.0,0.0,0.0,0.0,0.0,2.622,0.0,0.0,0.0,0.0,0.0,0.0,0.0,0.0,0.0,0.0,2.7617,2.8134,0.0,2.9282,3.0645,3.0729,3.1198,3.1967,3.202,3.2266,3.2553,3.2702,3.2816,3.2802,3.2672,3.2573,3.2557,3.2457,3.2406,3.2406,3.2406,3.2406,3.2406,0.0,0.0,0.0,0.0,0.0,0.0,1.6684,1.657,1.6285,1.5584,1.4942,1.4529,1.4647,1.5059,1.5352,1.5468,1.5826,1.6009,1.5904,1.5798,1.5662,1.542,1.541,1.5536,1.5672,1.6036,1.6379,0.0,0.0,1.8334,0.0,0.0,0.0,0.0,0.0,0.0,0.0,1.8762,1.8881,1.8863,1.948,1.9715,1.9763,2.0871,2.1181,2.1194,2.1921,2.2042,2.1934,2.2029,2.096,1.9656,2.008,2.0182,2.0283,2.0461,2.0511,2.0562,2.0662,2.1033,2.1423,2.1423,2.2109,2.2844,2.2889,2.3246,2.3551,2.3595,2.3595,2.3724,2.4177,2.4261,2.4533,0.0,0.0,0.0,0.0,0.0,2.622,2.622,0.0,0.0,0.0,2.6538,0.0,0.0,2.6792,0.0,0.0,0.0,0.0,2.721,0.0,2.8412,2.8546,2.9644,3.0489,3.1126,3.1426,3.2004,3.277,3.2669,3.2766,3.3055,3.3055,3.2898,3.2639,3.2606,3.2523,3.2422,3.2388,3.2406,3.2406,3.2406,3.2406,3.2406,0.0,0.0,0.0,0.0,0.0,0.0,0.0,1.6942,1.6801,1.6779,1.6108,1.5761,1.595,1.6227,1.6456,1.6789,1.687,1.693,1.688,1.682,1.6638,1.6375,1.6445,1.6628,1.693,1.71,1.7567,0.0,0.0,0.0,0.0,0.0,0.0,0.0,0.0,1.9801,1.9857,2.03,2.03,2.0116,2.0974,2.1159,2.0909,2.1754,2.2021,2.2021,2.2265,2.2387,2.2307,2.2361,2.19,2.1324,2.147,2.151,2.1523,2.1602,2.1891,2.2148,2.2199,2.2531,2.2895,2.2895,2.312,2.3334,2.3334,2.3465,2.3595,2.3595,2.3809,2.4078,2.4261,2.4679,2.5137,0.0,0.0,0.0,0.0,0.0,0.0,2.622,0.0,2.622,0.0,0.0,0.0,0.0,0.0,0.0,0.0,0.0,0.0,2.7348,0.0,2.8949,2.9371,3.0485,3.1372,3.2029,3.2296,3.2621,3.3042,3.2898,3.2866,3.2961,3.2866,3.2719,3.2606,3.2523,3.2457,3.2406,3.2406,3.2406,3.2406,3.2406,3.2406,3.2422,1.7301,0.0,1.7177,0.0,1.678,1.6879,1.735,1.7303,1.7296,1.7688,1.7171,1.6901,1.7152,1.7183,1.7317,1.7637,1.7606,1.7471,1.7419,1.7346,1.7222,1.6908,1.7232,0.0,1.7771,1.8139,1.8676,1.9335,1.9866,0.0,0.0,0.0,0.0,0.0,2.071,2.0949,2.0949,2.1499,2.1567,2.1269,2.2269,2.2376,2.2043,2.2695,2.2884,2.2884,2.291,2.2897,2.2884,2.2884,2.2994,2.3065,2.2587,2.251,2.2658,2.263,2.3029,2.3444,2.3444,2.3809,2.417,2.417,2.4205,2.4148,2.3939,2.3894,2.3893,2.3812,2.4147,2.4533,2.4639,2.5121,2.5556,2.5684,0.0,0.0,0.0,0.0,0.0,0.0,2.6274,2.631,2.631,2.6758,0.0,0.0,0.0,0.0,0.0,0.0,0.0,0.0,0.0,0.0,0.0,3.1338,3.2122,3.277,3.2898,3.2993,3.3086,3.2979,3.2884,3.2802,3.2672,3.2573,3.2523,3.2457,3.2406,3.2406,3.2406,3.2457,3.2523,3.2523,3.259,3.2672,1.6637,1.6627,1.667,1.6953,1.6977,1.7131,1.7595,1.7668,1.7668,1.7668,1.7657,1.7657,1.7668,1.7668,1.7668,1.7668,1.7606,1.7419,1.7232,1.7106,1.6918,0.0,0.0,1.7781,1.7781,1.9048,1.9701,1.9701,0.0,0.0,2.0875,0.0,2.0795,2.0722,2.1275,2.1499,2.1554,2.213,2.2387,2.2411,2.2988,2.321,2.3276,2.3877,2.4099,2.4099,2.4099,2.4099,2.4099,2.4099,2.4492,2.4662,2.2933,2.2751,2.3185,2.3185,2.3598,2.412,2.412,2.4496,2.4883,2.4883,2.5254,2.542,2.4716,2.4567,2.4522,2.4315,2.4599,2.502,2.5427,2.5503,2.5631,2.6132,0.0,0.0,0.0,0.0,0.0,2.622,2.645,2.6589,2.6589,2.7213,0.0,0.0,0.0,0.0,0.0,0.0,0.0,2.9083,3.0568,0.0,3.1693,3.2264,3.2752,3.3086,3.3086,3.3086,3.3086,3.2979,3.277,3.2588,3.2606,3.2523,3.2388,3.2406,3.2406,3.2406,3.2406,3.2573,3.2795,3.2795,3.2983,3.3291,1.7048,1.7053,1.7141,1.7429,1.7451,1.7667,1.8112,1.8175,1.8288,1.8609,1.852,1.8455,1.8455,1.8178,1.8117,0.0,1.8183,1.8061,0.0,1.8369,1.8555,1.8489,1.9201,1.9712,2.0028,2.0466,2.0788,2.1035,0.0,0.0,0.0,2.2152,2.2474,2.2337,2.3007,2.3251,2.3321,2.3493,2.3563,2.3589,2.3759,2.3825,2.3851,2.4047,2.4112,2.4112,2.4112,2.4332,2.4734,2.4734,2.5104,2.5467,2.4901,2.4818,2.4966,2.4966,2.5406,2.5891,2.5891,2.5944,2.6079,2.6079,2.5848,2.5555,2.5345,2.5561,2.5766,2.5498,2.5775,2.5931,2.5546,2.5758,2.6043,2.6184,2.622,0.0,0.0,0.0,0.0,2.622,2.645,2.6606,2.6606,2.7213,0.0,0.0,0.0,0.0,0.0,0.0,0.0,0.0,3.0845,0.0,3.1693,3.2428,3.2898,3.3086,3.3086,3.2993,3.277,3.2705,3.2623,3.2473,3.2473,3.2457,3.2406,3.2406,3.2507,3.2669,3.2669,3.2844,3.3154,3.3154,3.3214,3.335,1.7392,1.7415,1.7561,1.7895,1.7978,1.8123,1.8568,1.8575,1.8678,1.8967,1.8808,1.8684,1.8684,1.8354,0.0,1.8654,1.8664,1.8731,1.8798,1.9309,1.9562,1.9562,2.0291,2.0805,2.106,2.14,0.0,2.1925,2.1827,2.2063,2.2421,2.2955,2.3327,2.3471,2.3923,2.4112,2.4112,2.4112,2.4112,2.4112,2.4112,2.4112,2.4112,2.4112,2.4112,2.4112,2.4332,2.4677,2.5005,2.5216,2.5687,2.6122,2.6122,2.6283,2.6443,2.6229,2.6563,2.7049,2.7049,2.7009,2.6961,2.6961,2.6778,2.6591,2.6566,2.6712,2.6835,2.6684,2.6992,2.7153,2.6695,2.6603,2.6617,2.6617,2.6385,2.622,2.622,0.0,0.0,0.0,0.0,0.0,0.0,2.7771,2.8202,0.0,0.0,0.0,0.0,0.0,0.0,3.0836,3.1361,0.0,3.2139,3.257,3.2866,3.3024,3.2961,3.2784,3.2606,3.2557,3.2473,3.2406,3.2507,3.2557,3.2557,3.269,3.2848,3.3001,3.3001,3.3184,3.3494,3.3494,3.355,3.3671,1.7688,1.7781,1.7916,0.0,1.8423,0.0,1.9003,1.8942,1.8808,1.8808,1.8617,1.8482,1.8549,1.8405,1.8405,1.8617,0.0,0.0,0.0,1.9901,2.0161,2.0161,2.0805,2.1198,2.1198,2.1862,2.2259,2.2247,2.2261,2.2725,2.3721,2.3339,2.3531,2.4112,2.4112,2.4112,2.4112,2.4112,2.4112,2.4112,2.4112,2.4112,2.4112,2.4171,2.4171,2.4229,2.4835,2.5061,2.516,2.5687,2.6283,2.6774,2.6774,2.7152,2.7509,2.6945,2.7152,2.7625,2.7625,2.7625,2.766,2.766,2.7978,2.8325,2.8252,2.8035,2.7843,2.7818,2.8171,2.8478,2.839,2.7848,2.7383,2.7383,2.68,2.6369,2.6369,0.0,0.0,0.0,0.0,0.0,0.0,2.8809,2.9299,0.0,0.0,0.0,0.0,0.0,3.0737,3.1526,3.2103,3.2541,3.2884,3.2705,3.2705,3.2884,3.2705,3.2588,3.2588,3.2473,3.2457,3.2491,3.2734,3.2827,3.2858,3.3184,3.3321,3.335,3.335,3.3522,3.3834,3.3834,3.3998,3.4197,0.0,0.0,1.8371,1.8827,1.8843,1.8752,1.8854,1.8684,1.8549,1.8549,1.8405,1.8529,1.9044,1.8921,1.9044,1.9649,1.9309,1.9309,1.9901,2.0484,2.0869,2.0869,2.1526,2.1925,2.1925,2.2482,2.2714,2.275,2.3173,2.3339,2.328,2.3754,2.4073,2.4112,2.4112,2.4112,2.4112,2.4112,2.4112,2.4112,2.4112,2.4112,2.4171,2.462,2.4778,2.4835,2.5425,2.592,2.6297,2.6457,2.6878,2.7408,2.7408,2.7458,2.7575,2.7408,2.7509,2.7625,2.7625,2.7845,2.811,2.811,2.8543,2.898,2.9319,2.9334,2.9215,2.9066,2.9072,2.9003,2.8472,2.8279,2.8146,2.8146,2.7976,2.786,2.786,2.8068,0.0,0.0,2.8733,2.9158,2.9382,2.9647,2.9895,0.0,0.0,0.0,0.0,3.1069,3.1351,3.2158,3.2435,3.2573,3.2672,3.2621,3.2621,3.2672,3.2621,3.2654,3.2749,3.2734,3.283,3.3081,3.3154,3.3184,3.3184,3.3262,3.3437,3.368,3.368,3.3868,3.4099,3.4099,3.4148,3.4197,1.8609,1.8692,1.8775,1.8957,1.8875,1.8741,1.8674,1.8549,1.8539,1.8865,1.8721,1.8921,1.9573,1.9573,1.977,2.0484,2.0215,2.015,2.0549,2.1198,2.1588,2.1588,2.1999,2.2247,2.2445,2.2678,2.2957,2.3292,2.3556,2.3721,2.3636,2.4002,2.4157,2.4112,2.4112,2.4112,2.4112,2.4112,2.4112,2.4112,2.4112,2.4287,2.4563,2.4892,2.5104,2.537,2.596,2.6404,2.6669,2.6997,2.7306,2.7625,2.7625,2.776,2.7929,2.7929,2.7929,2.7929,2.7929,2.8255,2.8732,2.895,2.9196,2.9528,3.0027,3.0113,3.01,2.9914,2.9914,2.9798,2.9433,2.9069,2.8853,2.8853,2.8588,2.845,2.8586,2.8703,0.0,2.9193,2.9489,2.9883,3.0347,3.0532,3.0756,3.1124,3.1159,0.0,3.1721,3.1822,3.2049,3.2489,3.2489,3.2557,3.2606,3.2557,3.2573,3.2702,3.2702,3.2813,3.3032,3.3032,3.3124,3.3321,3.3465,3.3522,3.3522,3.3643,3.3823,3.3972,3.3972,3.4074,3.4197,3.4197,3.4197,3.4197,1.8926,1.9008,1.8942,1.8808,1.8741,1.8674,1.8607,1.8472,1.8664,1.9309,1.9299,1.9441,2.0161,2.0226,2.0549,2.1198,2.1262,2.1262,2.1262,2.1862,2.2197,2.2197,2.2259,2.2432,2.2678,2.28,2.315,2.3897,2.3734,2.3852,2.4247,2.4157,2.4112,2.4112,2.4112,2.4112,2.4112,2.4229,2.4229,2.4229,2.4332,2.4664,2.5104,2.5216,2.5481,2.5837,2.6563,2.6774,2.6774,2.7408,2.7625,2.761,2.766,2.7978,2.8304,2.84,2.848,2.8528,2.8432,2.8779,2.9303,2.981,2.9897,3.0027,3.0426,3.0526,3.0526,3.0526,3.0526,3.0526,3.0526,2.9996,2.9582,2.9582,2.9125,2.8882,2.9114,0.0,2.9481,2.9972,3.0091,3.0436,3.1317,3.137,3.1651,3.2353,3.2406,3.2406,3.2406,3.2507,3.2573,3.2573,3.2473,3.2507,3.2621,3.2523,3.2606,3.2858,3.2858,3.3063,3.3379,3.3379,3.3408,3.3447,3.3734,3.3842,3.3868,3.4099,3.4197,3.4197,3.4197,3.4197,3.4197,3.4197,3.4197,3.4197,1.8596,1.8617,1.8607,1.8549,1.8482,1.8529,1.911,1.8977,1.9177,1.9901,1.9966,2.0161,2.0869,2.0933,2.1262,2.1987,2.2061,2.2061,2.2061,2.2123,2.2197,2.2197,2.2494,2.2629,2.269,2.321,2.3734,2.4234,2.4099,2.4054,2.4099,2.4112,2.4112,2.4112,2.4112,2.4112,2.4112,2.462,2.4835,2.4892,2.5356,2.5577,2.5742,2.6244,2.6457,2.6616,2.7255,2.7458,2.7458,2.756,2.7625,2.766,2.8076,2.8255,2.84,2.8826,2.9257,2.9467,2.9074,2.9348,2.9793,3.0284,3.0384,3.0426,3.0468,3.0526,3.0526,3.0526,3.0526,3.0526,3.0526,3.0427,3.0344,3.0344,3.0466,3.0599,3.0662,0.0,3.1476,3.1548,3.1795,3.2038,3.2195,3.2213,3.2265,3.2388,3.2406,3.2406,3.2406,3.2422,3.2422,3.2422,3.2523,3.2621,3.2781,3.2749,3.2908,3.3214,3.3214,3.3408,3.3707,3.3707,3.3842,3.4055,3.4124,3.4148,3.4148,3.4173,3.4197,3.4197,3.4197,3.4197,3.4197,3.4197,3.4197,3.4197,1.8674,1.8549,1.8607,1.8854,1.8854,1.9044,1.9639,1.9639,1.9824,2.0549,2.0613,2.0933,2.16,2.1663,2.1862,2.2185,2.2432,2.2555,2.2494,2.2494,2.2494,2.2494,2.2739,2.2969,2.315,2.3628,2.3982,2.4203,2.4099,2.4112,2.4112,2.4112,2.4287,2.4563,2.4563,2.4778,2.5034,2.5314,2.5425,2.5481,2.5687,2.6014,2.6336,2.6563,2.6841,2.7115,2.7473,2.7524,2.7488,2.7575,2.776,2.8027,2.8255,2.867,2.915,2.9377,2.9617,2.981,2.9837,3.0027,3.0258,3.0443,3.0526,3.0526,3.0526,3.0526,3.0526,3.0526,3.0526,3.0526,3.0526,3.0526,3.0551,3.0747,3.0902,0.0,0.0,3.1709,3.1984,3.2144,3.2319,3.2406,3.2406,3.2406,3.2406,3.2406,3.2406,3.2406,3.2406,3.2406,3.2473,3.2588,3.2669,3.2813,3.3063,3.3063,3.3243,3.355,3.355,3.3734,3.4023,3.4023,3.4074,3.4197,3.4197,3.4197,3.4197,3.4197,3.4197,3.4197,3.4197,3.4197,3.4197,3.4197,3.4197,3.4197,1.8875,1.8731,1.8798,1.9375,1.9497,1.9704,2.0226,2.0355,2.0549,2.1262,2.1336,2.1588,2.2123,2.2321,2.2371,2.2371,2.2787,2.303,2.286,2.2921,2.2921,2.28,2.3078,2.3378,2.3688,2.3995,2.4112,2.4112,2.4112,2.4112,2.4112,2.4229,2.4563,2.5005,2.5104,2.5425,2.5783,2.596,2.6014,2.6014,2.6162,2.6496,2.6893,2.6893,2.71,2.7437,2.7575,2.7524,2.7488,2.771,2.7978,2.8336,2.8575,2.9196,2.9793,2.9941,2.9984,3.0027,3.0384,3.0526,3.0526,3.0526,3.0526,3.0526,3.0526,3.0526,3.0526,3.0526,3.0526,3.0526,3.0593,3.0626,3.0716,3.1066,0.0,0.0,0.0,3.1981,3.2108,3.2354,3.2406,3.2406,3.2406,3.2406,3.2406,3.2406,3.2406,3.2406,3.2406,3.2439,3.2672,3.3014,3.297,3.3093,3.3408,3.3408,3.3578,3.3895,3.3895,3.3998,3.4197,3.4197,3.4197,3.4197,3.4197,3.4197,3.4197,3.4197,3.4197,3.4197,3.4197,3.4197,3.4197,3.4197,3.4197,3.4197,1.9177,1.911,1.9177,1.9901,2.0031,2.0291,2.0933,2.0996,2.1262,2.1987,2.2123,2.2123,2.2185,2.2616,2.2848,2.2848,2.3305,2.3471,2.3343,2.3556,2.3497,2.3078,2.3378,2.3747,2.4067,2.4112,2.4112,2.4112,2.4112,2.4112,2.4112,2.4677,2.4948,2.5005,2.5536,2.5728,2.5837,2.6404,2.6616,2.6669,2.7255,2.7509,2.7509,2.7509,2.7575,2.7575,2.7575,2.7575,2.766,2.8125,2.824,2.848,2.9377,2.975,2.9897,3.0342,3.0426,3.0468,3.0468,3.0526,3.0526,3.0526,3.0526,3.0526,3.0526,3.0526,3.0526,3.0526,3.0526,3.0576,3.0892,3.0979,3.1066,3.1383,0.0,0.0,3.1891,3.2176,3.2354,3.2406,3.2406,3.2406,3.2406,3.2406,3.2406,3.2406,3.2406,3.2406,3.2406,3.2654,3.3045,3.3707,3.3437,3.3437,3.3762,3.3762,3.3895,3.4173,3.4173,3.4173,3.4197,3.4197,3.4197,3.4197,3.4197,3.4197,3.4197,3.4197,3.4197,3.4197,3.4197,3.4197,3.4197,3.4197,3.4197,3.4197,1.9955,1.989,1.9901,2.0613,2.0741,2.0944,2.1663,2.1788,2.1862,2.2185,2.2432,2.2616,2.2494,2.3017,2.3305,2.321,2.3721,2.4002,2.3852,2.4144,2.4086,2.3747,2.3819,2.3995,2.4112,2.4112,2.4112,2.4112,2.4112,2.4287,2.4677,2.4892,2.5384,2.6082,2.6297,2.6549,2.6916,2.7152,2.7255,2.7255,2.7524,2.7625,2.7625,2.7625,2.7625,2.7625,2.7929,2.8027,2.8125,2.8638,2.9012,2.9287,2.9661,2.9984,3.0258,3.0426,3.0526,3.0526,3.0526,3.0526,3.0526,3.0526,3.0526,3.0526,3.0526,3.0526,3.0559,3.075,3.0825,3.0892,3.1266,3.1331,3.1411,3.1706,0.0,3.1972,3.2176,3.2337,3.2406,3.2406,3.2406,3.2406,3.2406,3.2406,3.2406,3.2406,3.2406,3.2473,3.2654,3.3124,3.355,3.3788,3.3823,3.3928,3.4049,3.4049,3.4099,3.4197,3.4197,3.4197,3.4197,3.4197,3.4197,3.4197,3.4197,3.4197,3.4197,3.4197,3.4197,3.4197,3.4197,3.4197,3.4197,3.4197,3.4197,3.4197,2.0666,2.0613,2.0613,2.1325,2.1463,2.16,2.2123,2.2309,2.2432,2.2432,2.2836,2.3078,2.2921,2.3424,2.3708,2.3628,2.4131,2.4421,2.4305,2.4434,2.4376,2.4112,2.4112,2.4112,2.4112,2.4112,2.4171,2.439,2.439,2.4664,2.5272,2.5439,2.5974,2.6736,2.6893,2.7203,2.7625,2.7625,2.7625,2.7625,2.7625,2.7625,2.7625,2.776,2.7795,2.7894,2.8352,2.8543,2.8638,2.9166,2.9528,2.9853,2.9984,3.0241,3.0526,3.0526,3.0526,3.0526,3.0526,3.0526,3.0526,3.0526,3.0526,3.0543,3.0609,3.0667,3.0734,3.1066,3.1158,3.1266,3.1546,3.1623,3.17,3.1987,3.2054,3.2138,3.2371,3.2406,3.2406,3.2406,3.2406,3.2406,3.2406,3.2406,3.2422,3.2523,3.2523,3.2687,3.3075,3.355,3.3842,3.3921,3.4099,3.4197,3.4197,3.4197,3.4197,3.4197,3.4197,3.4197,3.4197,3.4197,3.4197,3.4197,3.4197,3.4197,3.4197,3.4197,3.4197,3.4197,3.4197,3.4197,3.4197,3.4197,3.4197,3.4197,2.1262,2.1262,2.1325,2.2061,2.2197,2.2197,2.2197,2.2604,2.2909,2.2909,2.3292,2.3531,2.339,2.3852,2.4131,2.4131,2.4536,2.4778,2.4778,2.4478,2.4247,2.4112,2.4112,2.4112,2.4112,2.4112,2.439,2.5005,2.5005,2.5258,2.5837,2.6404,2.6683,2.6721,2.7306,2.7625,2.7625,2.7625,2.7625,2.7625,2.7625,2.7625,2.766,2.811,2.8288,2.84,2.8919,2.912,2.9166,2.9661,2.981,2.9897,3.0342,3.0526,3.0526,3.0526,3.0526,3.0526,3.0526,3.0526,3.0526,3.0526,3.0526,3.0576,3.0908,3.1,3.1108,3.1441,3.1491,3.1584,3.1846,3.1899,3.2021,3.2353,3.2406,3.2406,3.2406,3.2406,3.2406,3.2406,3.2406,3.2406,3.2406,3.2388,3.2523,3.2781,3.2795,3.3105,3.3762,3.3788,3.3921,3.4197,3.4197,3.4197,3.4197,3.4197,3.4197,3.4197,3.4197,3.4197,3.4197,3.4197,3.4197,3.4197,3.4197,3.4197,3.4197,3.4197,3.4197,3.4197,3.4197,3.4197,3.4197,3.4197,3.4197,3.4197,2.1963,2.1987,2.1925,2.2185,2.2494,2.2665,2.2665,2.3065,2.3412,2.3412,2.3813,2.406,2.3897,2.4363,2.4708,2.4607,2.4835,2.4835,2.4677,2.4421,2.4247,2.4112,2.4112,2.4287,2.4734,2.4734,2.4991,2.5577,2.5577,2.5851,2.6457,2.6616,2.6945,2.7357,2.7524,2.7625,2.7625,2.7625,2.7625,2.7625,2.7625,2.7795,2.8125,2.8255,2.8543,2.8935,2.9438,2.9572,2.9661,3.0113,3.03,3.0342,3.0468,3.0526,3.0526,3.0526,3.0526,3.0526,3.0526,3.0526,3.0526,3.0526,3.0526,3.0609,3.0912,3.0992,3.1134,3.1657,3.1792,3.1878,3.2179,3.2248,3.2266,3.2388,3.2406,3.2406,3.2406,3.2406,3.2406,3.2406,3.2406,3.2406,3.2406,3.2573,3.2716,3.2795,3.3243,3.3578,3.3788,3.3972,3.4124,3.4197,3.4197,3.4197,3.4197,3.4197,3.4197,3.4197,3.4197,3.4197,3.4197,3.4197,3.4197,3.4197,3.4197,3.4197,3.4197,3.4197,3.4197,3.4197,3.4197,3.4197,3.4197,3.4197,3.4197,3.4197,2.2469,2.2543,2.2543,2.2714,2.3005,2.3185,2.3185,2.359,2.3872,2.3872,2.4292,2.4536,2.4363,2.4708,2.4892,2.4734,2.4778,2.4721,2.4492,2.458,2.458,2.4447,2.4664,2.4821,2.5005,2.5216,2.5591,2.6176,2.6176,2.6443,2.7049,2.7049,2.7255,2.7625,2.7625,2.7625,2.7625,2.7625,2.771,2.7894,2.7894,2.8174,2.8638,2.881,2.9104,2.9438,2.9897,3.007,3.0113,3.0384,3.0526,3.0526,3.0526,3.0526,3.0526,3.0526,3.0526,3.0526,3.0526,3.0526,3.0526,3.0526,3.0617,3.0764,3.1134,3.1287,3.1522,3.2004,3.2091,3.2178,3.2371,3.2406,3.2406,3.2406,3.2406,3.2406,3.2406,3.2406,3.2406,3.2406,3.2406,3.2457,3.2557,3.2702,3.2921,3.3184,3.3671,3.3947,3.3947,3.4124,3.4197,3.4197,3.4197,3.4197,3.4197,3.4197,3.4197,3.4197,3.4197,3.4197,3.4197,3.4197,3.4197,3.4197,3.4197,3.4197,3.4197,3.4197,3.4197,3.4197,3.4197,3.4197,3.4221,3.4316,3.434,3.4363,2.2787,2.2909,2.3078,2.3518,2.3636,2.3636,2.3636,2.4047,2.435,2.435,2.4708,2.4948,2.4778,2.4778,2.4721,2.462,2.4549,2.4549,2.4408,2.4908,2.5133,2.5048,2.5577,2.5632,2.5174,2.5632,2.6176,2.6788,2.6788,2.7049,2.7625,2.7625,2.7625,2.7625,2.7625,2.7625,2.7625,2.761,2.7894,2.8288,2.8336,2.8685,2.9212,2.9617,2.9853,2.9941,3.0342,3.0526,3.0526,3.0526,3.0526,3.0526,3.0526,3.0526,3.0526,3.0526,3.0526,3.0526,3.0526,3.0526,3.0551,3.0551,3.0828,3.1145,3.1421,3.1714,3.2004,3.2353,3.2406,3.2406,3.2406,3.2406,3.2406,3.2406,3.2406,3.2406,3.2406,3.2406,3.2388,3.2422,3.2457,3.2557,3.2813,3.2858,3.3136,3.3788,3.4074,3.4197,3.4197,3.4197,3.4197,3.4197,3.4197,3.4197,3.4197,3.4197,3.4197,3.4197,3.4197,3.4197,3.4197,3.4197,3.4197,3.4197,3.4197,3.4197,3.4197,3.4197,3.4197,3.4197,3.4197,3.4221,3.4269,3.4517,3.4604,3.4647,2.2848,2.3185,2.3471,2.3577,2.3872,2.4176,2.4176,2.4536,2.4835,2.4835,2.4948,2.4948,2.4778,2.4778,2.4721,2.462,2.4492,2.4523,2.4951,2.5034,2.5203,2.5632,2.6176,2.6457,2.6351,2.6457,2.6826,2.7408,2.7408,2.7458,2.7625,2.7625,2.7625,2.7625,2.7625,2.7625,2.7625,2.7978,2.8207,2.8336,2.8732,2.9212,2.9661,2.975,3.0027,3.0342,3.0468,3.0526,3.0526,3.0526,3.0526,3.0526,3.0526,3.0526,3.0526,3.0526,3.0526,3.0526,3.0526,3.0675,3.0895,3.0895,3.1295,3.1674,3.1555,3.1711,3.2003,3.2336,3.2406,3.2406,3.2406,3.2406,3.2406,3.2406,3.2406,3.2406,3.2406,3.2406,3.2473,3.2702,3.2716,3.2844,3.3154,3.3437,3.3743,3.4099,3.4173,3.4197,3.4197,3.4197,3.4197,3.4197,3.4197,3.4197,3.4197,3.4197,3.4197,3.4197,3.4197,3.4197,3.4197,3.4197,3.4197,3.4197,3.4197,3.4197,3.4197,3.4197,3.4197,3.4197,3.4197,3.4316,3.4517,3.458,3.4689,3.4851,2.3543,2.3767,2.3989,2.4234,2.4465,2.4637,2.4637,2.4835,2.5005,2.5005,2.4948,2.4892,2.4778,2.4721,2.4778,2.4878,2.4708,2.4865,2.5453,2.5687,2.592,2.6229,2.6826,2.7152,2.7152,2.7152,2.7306,2.7625,2.7625,2.7625,2.7625,2.7625,2.771,2.7929,2.7929,2.8091,2.8319,2.8591,2.8826,2.9042,2.9332,2.9705,3.0113,3.0113,3.03,3.0526,3.0526,3.0526,3.0526,3.0526,3.0526,3.0526,3.0526,3.0526,3.0526,3.0526,3.0526,3.051,3.0692,3.0855,3.1055,3.1213,3.1562,3.1858,3.1711,3.1912,3.2196,3.2354,3.2406,3.2406,3.2406,3.2406,3.2406,3.2406,3.2406,3.2406,3.2406,3.2406,3.2506,3.2773,3.2809,3.2983,3.3494,3.3797,3.4049,3.4197,3.4197,3.4197,3.4197,3.4197,3.4197,3.4197,3.4197,3.4197,3.4197,3.4197,3.4197,3.4197,3.4197,3.4197,3.4197,3.4197,3.4197,3.4197,3.4197,3.4197,3.4221,3.434,3.4386,3.4386,3.4498,3.4628,3.4751,3.485,3.5019,3.5209,2.4234,2.435,2.4523,2.4948,2.5005,2.5005,2.5005,2.5005,2.5005,2.4948,2.4892,2.4835,2.4892,2.4835,2.4935,2.5287,2.5203,2.537,2.5906,2.6404,2.6736,2.6826,2.7306,2.7625,2.7625,2.7625,2.7625,2.7625,2.7625,2.7625,2.7625,2.766,2.7929,2.8288,2.84,2.8685,2.912,2.9182,2.9438,2.981,2.9897,3.0156,3.0526,3.0526,3.0526,3.0526,3.0526,3.0526,3.0526,3.0526,3.0526,3.051,3.0568,3.0568,3.051,3.0634,3.0634,3.0634,3.0998,3.1134,3.1196,3.1504,3.1765,3.1984,3.1984,3.2196,3.2406,3.2406,3.2406,3.2406,3.2406,3.2406,3.2406,3.2406,3.2406,3.2406,3.2406,3.2457,3.2588,3.2845,3.2991,3.3255,3.3815,3.4074,3.4197,3.4197,3.4197,3.4197,3.4197,3.4197,3.4197,3.4197,3.4197,3.4197,3.4197,3.4197,3.4197,3.4197,3.4197,3.4197,3.4197,3.4197,3.4197,3.4197,3.4245,3.4269,3.4293,3.4539,3.4647,3.4668,3.4831,3.4927,3.4982,3.5193,3.5354,3.5493,2.4292,2.465,2.4948,2.5005,2.5005,2.5005,2.5005,2.5005,2.4948,2.4835,2.4778,2.4878,2.5133,2.5467,2.5687,2.5728,2.5687,2.596,2.6563,2.6669,2.693,2.7473,2.7575,2.7625,2.7625,2.7625,2.7625,2.7625,2.7625,2.7625,2.7625,2.8027,2.8255,2.8336,2.8779,2.9028,2.912,2.9528,2.975,2.9853,3.0241,3.0426,3.0526,3.0526,3.0526,3.0526,3.0526,3.0526,3.0526,3.0526,3.0526,3.0568,3.0855,3.0733,3.0593,3.1196,3.1157,3.1015,3.1351,3.1617,3.1785,3.1821,3.2108,3.2319,3.2319,3.2354,3.2406,3.2406,3.2406,3.2406,3.2406,3.2406,3.2406,3.2406,3.2406,3.2406,3.2406,3.2606,3.2876,3.3196,3.368,3.4055,3.4148,3.4173,3.4197,3.4197,3.4197,3.4197,3.4197,3.4197,3.4197,3.4197,3.4197,3.4197,3.4197,3.4197,3.4197,3.4197,3.4197,3.4197,3.4197,3.4197,3.4197,3.4221,3.445,3.4539,3.4561,3.4772,3.487,3.4851,3.4889,3.5019,3.5174,3.5403,3.5479,3.5493,2.465,2.4892,2.5005,2.5005,2.5005,2.4948,2.4892,2.4892,2.4948,2.509,2.509,2.5203,2.5673,2.5728,2.596,2.6283,2.6283,2.6563,2.7152,2.7203,2.7306,2.7575,2.7625,2.7625,2.7625,2.7625,2.771,2.7978,2.7978,2.7978,2.7978,2.8496,2.8873,2.915,2.9393,2.9617,2.9897,3.0113,3.0199,3.0215,3.0426,3.0526,3.0526,3.0526,3.0526,3.0526,3.0526,3.0526,3.0526,3.0526,3.0526,3.0526,3.0675,3.0609,3.0593,3.1095,3.1134,3.1095,3.1579,3.1821,3.193,3.2144,3.2284,3.2406,3.2406,3.2406,3.2406,3.2406,3.2406,3.2406,3.2406,3.2406,3.2406,3.2406,3.2523,3.2621,3.2621,3.2894,3.3214,3.3522,3.3954,3.4197,3.4197,3.4197,3.4197,3.4197,3.4197,3.4197,3.4197,3.4197,3.4197,3.4197,3.4197,3.4197,3.4197,3.4197,3.4197,3.4197,3.4197,3.4197,3.4197,3.4197,3.4269,3.4427,3.4539,3.4668,3.4791,3.4963,3.5072,3.5072,3.5193,3.5273,3.5369,3.5479,3.5493,3.5493]}]]